[[[{"header":{"parameterUnit":"kt","parameterCategory":2,"dx":1,"dy":1,"la1":29.587661999999998,"la2":31.0,"lo1":-88.76705300000003,"lo2":-86.6583820000003,"nx":115,"ny":88,"refTime":"2022-10-14T06:00:00:Z","depth":0,"parameterNumber":1,"parameterNumberName":"U-component_of_WINDS"},"data":[0.0,0.0,0.0,0.0,0.0,0.0,0.0,0.0,0.0,0.0,0.0,0.0,0.0,0.0,0.0,0.0,0.0,0.0,0.0,0.0,0.0,0.0,0.0,0.0,0.0,0.0,0.0,0.0,0.0,0.0,0.0,0.0,0.0,0.0,0.0,0.0,0.0,0.0,0.0,0.0,0.0,0.0,0.0,0.0,0.0,0.0,0.0,0.0,0.0,-0.1678,-0.3831,-0.5264,-0.6218,-0.7293,-0.8009,-0.789,-0.8009,-0.9083,-1.0267,-1.1928,-1.3714,-1.5028,-1.6099,-1.7779,-1.7655,-1.7773,-1.7773,-1.7773,-1.7892,-1.8134,-1.8252,-1.8371,-1.8489,-1.8371,-1.8371,-1.8134,-1.8134,-1.7898,-1.7773,-1.7773,-1.7773,-1.7773,-1.7773,-1.7773,-1.7661,-1.7661,-1.7537,-1.7773,-1.8128,-1.8489,-1.8843,-1.8489,-1.8252,-1.8797,-1.8644,-1.8591,-1.8539,-1.8354,-1.8163,-1.8063,-1.7817,-1.7424,-1.7484,-1.7788,-1.7631,-1.753,-1.7362,-1.7444,-1.7303,-1.7317,-1.7277,-1.7231,-1.7264,-1.7245,-1.7159,0.0,0.0,0.0,0.0,0.0,0.0,0.0,0.0,0.0,0.0,0.0,0.0,0.0,0.0,0.0,0.0,0.0,0.0,0.0,0.0,0.0,0.0,0.0,0.0,0.0,0.0,0.0,0.0,0.0,0.0,0.0,0.0,0.0,0.0,0.0,0.0,0.0,0.0,0.0,0.0,0.0,0.0,0.0,0.0,0.0,0.0,0.0,0.0,0.0,-0.407,-0.6815,-0.8126,-0.9318,-1.0152,-1.0632,-1.087,-1.1108,-1.2056,-1.3239,-1.4549,-1.6099,-1.7531,-1.8371,-1.885,-1.8731,-1.8731,-1.8731,-1.8731,-1.8731,-1.885,-1.885,-1.8968,-1.8968,-1.885,-1.885,-1.885,-1.885,-1.885,-1.8731,-1.8731,-1.8731,-1.8731,-1.8731,-1.885,-1.885,-1.885,-1.885,-1.8968,-1.9086,-1.8968,-1.8869,-1.881,-1.8751,-1.8502,-1.8341,-1.8275,-1.8262,-1.8077,-1.7886,-1.7675,-1.749,-1.7418,-1.7438,-1.7576,-1.7556,-1.7457,-1.7391,-1.7306,-1.7352,-1.7277,-1.7279,-1.7148,-1.7061,-1.7002,-1.6982,0.0,0.0,0.0,0.0,0.0,0.0,0.0,0.0,0.0,0.0,0.0,0.0,0.0,0.0,0.0,0.0,0.0,0.0,0.0,0.0,0.0,0.0,0.0,0.0,0.0,0.0,0.0,0.0,0.0,0.0,0.0,0.0,0.0,0.0,0.0,0.0,0.0,0.0,0.0,0.0,0.0,0.0,0.0,-0.5261,0.0,0.0,-0.5261,-0.5507,-0.6342,-0.7651,-0.8841,-1.0033,-1.2174,-1.3486,-1.444,-1.444,-1.4554,-1.5389,-1.6454,-1.717,-1.7767,-1.8252,-1.9086,-1.9086,-1.9086,-1.9086,-1.9086,-1.9086,-1.9086,-1.9086,-1.9086,-1.9086,-1.9086,-1.9086,-1.9086,-1.9086,-1.9086,-1.9086,-1.9086,-1.9086,-1.9086,-1.9079,-1.9033,-1.9033,-1.9026,-1.9026,-1.9073,-1.9079,-1.8961,-1.885,-1.8738,-1.8581,-1.843,-1.8321,-1.807,-1.7978,-1.7958,-1.78,-1.7616,-1.7497,-1.7444,-1.7398,-1.7372,-1.7431,-1.7438,-1.7345,-1.7246,-1.7154,-1.7174,-1.72,-1.7088,-1.695,-1.6857,-1.6792,-1.6759,0.0,0.0,0.0,0.0,0.0,0.0,0.0,0.0,0.0,0.0,0.0,0.0,0.0,0.0,0.0,0.0,0.0,0.0,0.0,0.0,0.0,0.0,0.0,0.0,0.0,0.0,0.0,0.0,0.0,0.0,0.0,0.0,0.0,0.0,0.0,0.0,0.0,0.0,0.0,0.0,-0.5862,-0.8248,-0.9559,-0.9315,-0.9064,-0.8826,-0.8835,-0.9205,-0.9675,-1.0628,-1.0624,-1.2408,-1.5141,-1.7537,-1.8731,-1.8968,-1.8371,-1.8252,-1.8607,-1.8489,-1.8607,-1.8968,-1.9086,-1.9086,-1.9086,-1.9086,-1.9086,-1.9086,-1.9086,-1.9086,-1.9086,-1.9086,-1.9086,-1.9086,-1.9086,-1.9086,-1.9086,-1.9086,-1.9086,-1.9086,-1.9086,-1.9046,-1.898,-1.896,-1.8954,-1.8928,-1.8914,-1.8901,-1.8732,-1.8607,-1.8339,-1.8308,-1.8169,-1.8024,-1.7813,-1.7688,-1.7662,-1.753,-1.7477,-1.7438,-1.7385,-1.7372,-1.7372,-1.7372,-1.7192,-1.7161,-1.7049,-1.6956,-1.691,-1.6943,-1.6857,-1.6732,-1.6633,-1.7525,-1.7236,0.0,0.0,0.0,0.0,0.0,0.0,0.0,0.0,0.0,0.0,0.0,0.0,0.0,0.0,0.0,0.0,0.0,0.0,0.0,0.0,0.0,0.0,0.0,0.0,0.0,0.0,0.0,0.0,0.0,0.0,0.0,0.0,0.0,0.0,0.0,0.0,0.0,-0.2755,-0.5623,-0.8245,-0.9199,-0.944,-0.9559,-1.0033,-1.0138,-1.0127,-1.0022,-1.0257,-1.0844,-1.2993,-1.4312,-1.5389,-1.7294,-1.8968,-1.8968,-1.9086,-1.9086,-1.9086,-1.9086,-1.9086,-1.9086,-1.9086,-1.9086,-1.9086,-1.9086,-1.9086,-1.9086,-1.9086,-1.9086,-1.9086,-1.9086,-1.9086,-1.9086,-1.9086,-1.9086,-1.9086,-1.9086,-1.9086,-1.904,-1.8921,-1.8901,-1.8802,-1.8743,-1.8703,-1.8677,-1.8446,-1.8394,-1.8407,-1.8334,-1.8083,-1.8018,-1.7886,-1.7767,-1.7635,-1.7504,-1.7504,-1.7431,-1.7405,-1.7398,-1.7264,-1.7238,-1.7245,-1.7264,-1.7186,-1.7094,-1.6923,-1.6785,-1.6646,-1.6567,-1.6567,-1.6495,-1.6449,-1.7391,-1.8598,-1.9389,0.0,0.0,0.0,0.0,0.0,0.0,-0.1199,-0.3115,-0.5025,-0.4548,-0.3115,-0.2994,0.0,0.0,0.0,-0.1199,-0.2636,-0.1678,-0.1559,-0.1798,0.0,0.0,0.0,0.0,-0.2636,0.0,0.0,-0.5025,0.0,0.0,-0.5503,-0.5386,0.0,0.0,-0.5621,-0.5503,-0.5621,-0.741,-0.9434,-1.181,-1.3358,-1.4435,-1.4915,-1.5626,-1.562,-1.5615,-1.5507,-1.562,-1.5975,-1.6933,-1.7176,-1.801,-1.8489,-1.9086,-1.9086,-1.9086,-1.9086,-1.9086,-1.9086,-1.9086,-1.9086,-1.9086,-1.9086,-1.9086,-1.9086,-1.9086,-1.9086,-1.9086,-1.9086,-1.9086,-1.9086,-1.9086,-1.9086,-1.9079,-1.9079,-1.9079,-1.9066,-1.9066,-1.8954,-1.8796,-1.867,-1.8565,-1.8479,-1.8433,-1.8341,-1.8202,-1.813,-1.8117,-1.8024,-1.786,-1.7701,-1.7629,-1.7477,-1.7372,-1.7385,-1.7405,-1.7258,-1.7231,-1.7186,-1.7133,-1.7092,-1.7039,-1.6877,-1.6838,-1.6805,-1.6655,-1.6334,-1.6304,-1.6192,-1.602,-1.5941,-1.7603,-1.9469,-2.0423,-2.2572,-0.1439,-0.1559,-0.2396,-0.2156,-0.1558,0.0,-0.3952,-0.6218,-0.8367,-0.8483,-0.6218,-0.6218,-0.5264,-0.2875,-0.2755,-0.4309,-0.4548,-0.4429,-0.4668,-0.4788,-0.4548,-0.3353,-0.3712,-0.5145,-0.5862,-0.6935,-0.789,-0.8725,-0.9318,-0.9202,-0.9202,-0.9679,-0.8606,-0.8844,-0.9675,-1.1223,-1.1937,-1.3006,-1.4435,-1.5502,-1.6336,-1.73,-1.7892,-1.8252,-1.8128,-1.8128,-1.8134,-1.8252,-1.8371,-1.8731,-1.8968,-1.8968,-1.9086,-1.9086,-1.9086,-1.9086,-1.9086,-1.9086,-1.9086,-1.9086,-1.9086,-1.9086,-1.9086,-1.9086,-1.9086,-1.9086,-1.9086,-1.9086,-1.9086,-1.9086,-1.9086,-1.9059,-1.9033,-1.8974,-1.8901,-1.8829,-1.8684,-1.873,-1.8855,-1.869,-1.8486,-1.8367,-1.8269,-1.811,-1.8077,-1.8011,-1.7958,-1.7919,-1.782,-1.7507,-1.7369,-1.7457,-1.7372,-1.7372,-1.7372,-1.7965,-1.756,-1.722,-1.7075,-1.6884,-1.6963,-1.6982,-1.6571,-1.6414,-1.6396,-1.6305,-1.6073,-1.6,-1.5915,-1.571,-1.7,-1.9395,-2.1585,-2.2539,-2.4236,-0.4666,-0.5145,-0.8006,-0.729,-0.5503,-0.7768,-0.9079,-0.9437,-0.9675,-0.9675,-0.9437,-0.9437,-0.8722,-0.8844,-0.8844,-0.896,-0.896,-0.8722,-0.8841,-0.896,-0.8006,-0.8248,-0.8367,-0.896,-0.9318,-0.9437,-1.0394,-1.1703,-1.0036,-1.1108,-1.0985,-1.039,-1.1227,-1.1223,-1.265,-1.4672,-1.6939,-1.6821,-1.7773,-1.7773,-1.7892,-1.8731,-1.8968,-1.9086,-1.9086,-1.9086,-1.9086,-1.9086,-1.9086,-1.9086,-1.9086,-1.9086,-1.9086,-1.9086,-1.9086,-1.9086,-1.9086,-1.9086,-1.9086,-1.9086,-1.9086,-1.9086,-1.9086,-1.9086,-1.9086,-1.9086,-1.9086,-1.9086,-1.902,-1.9046,-1.9013,-1.8947,-1.8888,-1.8809,-1.8703,-1.8519,-1.8347,-1.8433,-1.8591,-1.8459,-1.8248,-1.8103,-1.7892,-1.7794,-1.7761,-1.8242,-1.9052,-1.9146,-2.0172,-1.9509,-1.9594,-1.9457,-1.8859,-1.8162,-1.8044,-1.878,-1.8639,-1.8178,-1.7726,-1.8335,-1.7338,-1.714,-1.7957,-1.8226,-1.6967,-1.6126,-1.6291,-1.6146,-1.6225,-1.7465,-1.8936,-2.1328,-2.4286,-2.5111,-2.5353,-0.789,-0.8009,-0.9079,-0.8844,-0.8483,-1.1334,-1.2764,-1.312,-1.4796,-1.4554,-1.3002,-1.2645,-1.1814,-1.0155,-0.9798,-1.0271,-1.2408,-1.0862,-1.0033,-1.2404,-1.0743,-1.0271,-1.0747,-1.1338,-1.2408,-1.3358,-1.4316,-1.5513,-1.5152,-1.5507,-1.5389,-1.5152,-1.5868,-1.5033,-1.5863,-1.6939,-1.9086,-1.9086,-1.9086,-1.9086,-1.9086,-1.9086,-1.9086,-1.9086,-1.9086,-1.9086,-1.9086,-1.9086,-1.9086,-1.9086,-1.9086,-1.9086,-1.9086,-1.9086,-1.9086,-1.9086,-1.9086,-1.9086,-1.9086,-1.9086,-1.9046,-1.9046,-1.9086,-1.9086,-1.9086,-1.9033,-1.904,-1.8987,-1.8895,-1.8848,-1.8756,-1.8525,-1.8479,-1.8453,-1.8308,-1.8064,-1.7958,-1.8176,-1.8301,-1.7972,-1.7747,-1.7695,-1.7589,-1.7753,-1.8672,-1.9546,-2.0417,-2.2037,-2.3415,-2.3555,-2.3634,-2.3199,-2.2537,-2.1724,-2.1272,-2.0712,-1.9829,-1.9176,-2.0,-2.1216,-2.0305,-1.9268,-2.0147,-2.0742,-1.9098,-1.7797,-1.7229,-1.7913,-1.9676,-2.0869,-2.1717,-2.3788,-2.6539,-2.7099,-2.7007,-1.1219,-1.1219,-1.2293,-1.2769,-1.3006,-1.5028,-1.5981,-1.6336,-1.7892,-1.7892,-1.6212,-1.5981,-1.4554,-1.3367,-1.3244,-1.4079,-1.5502,-1.3248,-1.3244,-1.562,-1.4193,-1.2892,-1.3367,-1.5152,-1.5863,-1.6573,-1.7531,-1.8613,-1.9086,-1.8371,-1.8731,-1.9086,-1.8134,-1.9086,-1.9086,-1.9086,-1.9086,-1.9086,-1.9086,-1.9086,-1.9086,-1.9086,-1.9086,-1.9086,-1.9086,-1.9086,-1.9086,-1.9086,-1.9086,-1.9086,-1.9086,-1.9086,-1.9086,-1.9086,-1.9086,-1.9086,-1.9086,-1.9086,-1.9086,-1.898,-1.8941,-1.8868,-1.8815,-1.8776,-1.8868,-1.8848,-1.8809,-1.8723,-1.8598,-1.8552,-1.8525,-1.8314,-1.8156,-1.8123,-1.8018,-1.7767,-1.7662,-1.7879,-1.7952,-1.7642,-1.8752,-1.9168,-1.9791,-2.0625,-2.1554,-2.2379,-2.2572,-2.4034,-2.4806,-2.5435,-2.597,-2.5577,-2.5295,-2.4823,-2.4156,-2.2915,-2.1918,-2.1467,-2.219,-2.3191,-2.3021,-2.2108,-2.3013,-2.4894,-2.231,-1.9545,-1.862,-1.8439,-2.155,-2.4191,-2.4997,-2.6625,-2.734,-2.7518,-2.7687,-1.4425,-1.4904,-1.7531,-1.8731,-1.8371,-1.8968,-1.885,-1.8607,-1.8974,-1.8856,-1.8607,-1.8607,-1.8371,-1.8252,-1.7419,-1.7655,-1.8134,-1.8134,-1.8252,-1.8252,-1.7294,-1.8252,-1.8377,-1.8134,-1.801,-1.885,-1.8968,-1.9086,-1.9086,-1.9086,-1.9086,-1.9086,-1.9086,-1.9086,-1.9086,-1.9086,-1.9086,-1.9086,-1.9086,-1.9086,-1.9086,-1.9086,-1.9086,-1.9086,-1.9086,-1.9086,-1.9086,-1.9086,-1.9086,-1.9086,-1.9086,-1.9086,-1.9086,-1.9086,-1.9086,-1.9086,-1.9086,-1.9086,-1.9059,-1.8809,-1.8631,-1.8512,-1.8479,-1.8426,-1.8446,-1.8407,-1.8347,-1.844,-1.8281,-1.8235,-1.8216,-1.8163,-1.7978,-1.7873,-1.7807,-1.7655,-1.751,-1.7569,-1.7609,-1.7464,-1.9509,-2.1701,-2.2533,-2.3414,-2.4279,-2.5003,-2.498,-2.5182,-2.5547,-2.6108,-2.674,-2.6659,-2.6662,-2.648,-2.6374,-2.5017,-2.4216,-2.3923,-2.4017,-2.4249,-2.4171,-2.4728,-2.6499,-2.8745,-2.6599,-2.2732,-2.0811,-1.9204,-2.2659,-2.6109,-2.7374,-2.7374,-2.7396,-2.7282,-2.7152,-1.7655,-1.7773,-1.8613,-1.9086,-1.9086,-1.9086,-1.9086,-1.9086,-1.9086,-1.9086,-1.9086,-1.9086,-1.9086,-1.9086,-1.9086,-1.9086,-1.9086,-1.9086,-1.9086,-1.9086,-1.9086,-1.9086,-1.9086,-1.9086,-1.9086,-1.9086,-1.9086,-1.9086,-1.9086,-1.9086,-1.9086,-1.9086,-1.9086,-1.9086,-1.9086,-1.9086,-1.9086,-1.9086,-1.9086,-1.9086,-1.9086,-1.9086,-1.9086,-1.9086,-1.9086,-1.9086,-1.9086,-1.9086,-1.9086,-1.9086,-1.9086,-1.9086,-1.9086,-1.9086,-1.9086,-1.9086,-1.9086,-1.9086,-1.896,-1.8677,-1.8301,-1.8196,-1.815,-1.815,-1.8176,-1.8202,-1.8143,-1.8169,-1.8129,-1.803,-1.8023,-1.7794,-1.7629,-1.7854,-1.7787,-1.8302,-1.8057,-1.8853,-1.8538,-1.8624,-2.0401,-2.2904,-2.3922,-2.5493,-2.6957,-2.8596,-2.8516,-2.8465,-2.8181,-2.797,-2.8239,-2.8136,-2.8152,-2.8341,-2.8606,-2.7813,-2.7131,-2.6723,-2.639,-2.6249,-2.6394,-2.7814,-2.9349,-2.9365,-2.7844,-2.5702,-2.4093,-2.3163,-2.5151,-2.7652,-2.7416,-2.7108,-2.7048,-2.6751,-2.6645,-1.9086,-1.9086,-1.9086,-1.9086,-1.9086,-1.9086,-1.9086,-1.9086,-1.9086,-1.9086,-1.9086,-1.9086,-1.9086,-1.9086,-1.9086,-1.9086,-1.9086,-1.9086,-1.9086,-1.9086,-1.9086,-1.9086,-1.9086,-1.9086,-1.9086,-1.9086,-1.9086,-1.9086,-1.9086,-1.9086,-1.9086,-1.9086,-1.9086,-1.9086,-1.9086,-1.9086,-1.9086,-1.9086,-1.9086,-1.9086,-1.9086,-1.9086,-1.9086,-1.9086,-1.9086,-1.9086,-1.9079,-1.9086,-1.9086,-1.9086,-1.9086,-1.9007,-1.8934,-1.8914,-1.8842,-1.873,-1.8703,-1.8703,-1.8624,-1.8328,-1.8031,-1.7925,-1.7879,-1.7846,-1.7747,-1.782,-1.7886,-1.7866,-1.7714,-1.7635,-1.7738,-1.7599,-1.7795,-1.7687,-1.8123,-1.8988,-1.9907,-2.1276,-2.1685,-2.2456,-2.3694,-2.4734,-2.6205,-2.7658,-2.9811,-3.1746,-3.1919,-3.1855,-3.0999,-3.0524,-3.0102,-2.9801,-2.9764,-2.9884,-2.9822,-2.9846,-2.9947,-2.9532,-2.9107,-2.8408,-2.7718,-2.9289,-2.9248,-2.8426,-2.7291,-2.6551,-2.6234,-2.6444,-2.6577,-2.6854,-2.6889,-2.6801,-2.6517,-2.6165,-2.567,-1.9086,-1.9086,-1.9086,-1.9086,-1.9086,-1.9086,-1.9086,-1.9086,-1.9086,-1.9086,-1.9086,-1.9086,-1.9086,-1.9086,-1.9086,-1.9086,-1.9086,-1.9086,-1.9086,-1.9086,-1.9086,-1.9086,-1.9086,-1.9086,-1.9086,-1.9086,-1.9086,-1.9086,-1.9079,-1.9,-1.8954,-1.902,-1.8881,-1.8974,-1.8967,-1.8875,-1.8895,-1.8895,-1.8901,-1.8928,-1.8934,-1.8947,-1.8954,-1.8967,-1.9,-1.9026,-1.902,-1.8954,-1.8928,-1.8921,-1.8901,-1.8829,-1.8677,-1.8644,-1.8552,-1.8433,-1.838,-1.8301,-1.8169,-1.7919,-1.7884,-1.7804,-1.7596,-1.7484,-1.7369,-1.7317,-1.729,-1.7457,-1.8348,-1.8172,-1.805,-1.7902,-1.9273,-1.9907,-2.1063,-2.1537,-2.2185,-2.3561,-2.4668,-2.6014,-2.699,-2.7738,-2.9034,-2.9436,-3.1361,-3.1496,-3.167,-3.1515,-3.1255,-3.119,-3.0902,-3.0786,-3.0839,-3.0787,-3.0723,-3.0384,-2.9944,-2.9674,-2.9443,-2.9123,-2.8676,-2.8558,-2.871,-2.7998,-2.7611,-2.7641,-2.7479,-2.6956,-2.6538,-2.6406,-2.6269,-2.6256,-2.6074,-2.6305,-2.5812,-1.9086,-1.9086,-1.9086,-1.9086,-1.9086,-1.9086,-1.9079,-1.9079,-1.9073,-1.9079,-1.9086,-1.9086,-1.9086,-1.9086,-1.9073,-1.9046,-1.9066,-1.9086,-1.9086,-1.9086,-1.9086,-1.9059,-1.902,-1.9046,-1.9053,-1.9086,-1.9007,-1.9013,-1.8914,-1.8723,-1.8512,-1.8446,-1.8532,-1.8499,-1.8473,-1.8499,-1.8519,-1.8519,-1.8512,-1.8506,-1.8499,-1.8486,-1.8486,-1.8473,-1.8453,-1.8453,-1.8446,-1.8473,-1.8479,-1.8486,-1.8506,-1.8486,-1.8374,-1.8341,-1.8275,-1.8196,-1.8143,-1.8018,-1.7734,-1.7589,-1.7497,-1.7457,-1.7277,-1.7795,-1.7687,-1.7372,-1.7372,-1.8002,-1.9273,-2.0326,-2.0851,-2.2427,-2.2507,-2.3124,-2.395,-2.4089,-2.4459,-2.519,-2.626,-2.7459,-2.8752,-2.9926,-3.0399,-3.11,-3.1291,-3.1242,-3.1099,-3.0956,-3.0904,-3.0891,-3.0669,-3.0579,-3.0527,-3.0554,-3.0346,-3.0021,-2.9736,-2.9426,-2.9372,-2.9021,-2.8411,-2.8255,-2.8158,-2.7879,-2.7536,-2.745,-2.7533,-2.7113,-2.6749,-2.6675,-2.6512,-2.611,-2.6176,-2.6822,-2.6937,-1.8796,-1.8895,-1.8769,-1.8789,-1.8888,-1.8769,-1.8717,-1.8743,-1.8848,-1.8842,-1.8769,-1.8954,-1.9013,-1.8908,-1.8914,-1.8848,-1.8736,-1.8697,-1.871,-1.869,-1.869,-1.8703,-1.8736,-1.8717,-1.8717,-1.8677,-1.8717,-1.8763,-1.8644,-1.8387,-1.8235,-1.8255,-1.8248,-1.8209,-1.8295,-1.8248,-1.8229,-1.8216,-1.8222,-1.8229,-1.8235,-1.8242,-1.8242,-1.8242,-1.8248,-1.8262,-1.8262,-1.8235,-1.8235,-1.8235,-1.8235,-1.8189,-1.8077,-1.8038,-1.8089,-1.8016,-1.7983,-1.7831,-1.7545,-1.7398,-1.813,-1.8639,-1.9273,-1.9693,-2.0851,-2.1268,-2.1268,-2.0949,-2.2533,-2.3274,-2.3899,-2.5049,-2.5486,-2.5974,-2.6164,-2.6352,-2.6713,-2.7234,-2.7894,-2.8947,-3.0083,-3.0357,-3.0853,-3.1096,-3.0954,-3.0982,-3.0904,-3.0787,-3.0749,-3.0749,-3.0579,-3.0384,-3.0294,-3.019,-2.984,-2.9541,-2.9242,-2.8879,-2.8736,-2.8548,-2.8121,-2.7858,-2.7702,-2.7515,-2.7732,-2.7719,-2.7484,-2.7429,-2.7438,-2.719,-2.6901,-2.6659,-2.6497,-2.7242,-2.8634,-1.8387,-1.8604,-1.8354,-1.8387,-1.8572,-1.8367,-1.8248,-1.8295,-1.8532,-1.8473,-1.8341,-1.8723,-1.8815,-1.867,-1.8631,-1.8479,-1.8334,-1.8314,-1.8334,-1.8347,-1.8334,-1.8334,-1.8268,-1.8235,-1.8334,-1.8354,-1.8314,-1.8209,-1.811,-1.8103,-1.8084,-1.8064,-1.8031,-1.8103,-1.8011,-1.7998,-1.8136,-1.8117,-1.811,-1.8097,-1.809,-1.8077,-1.8077,-1.8084,-1.8077,-1.8057,-1.8024,-1.8018,-1.8044,-1.8064,-1.8097,-1.7991,-1.7917,-1.7851,-1.7698,-1.8307,-1.8324,-1.8331,-1.886,-1.9273,-2.012,-2.1693,-2.2118,-2.3371,-2.411,-2.4838,-2.481,-2.5755,-2.6104,-2.6044,-2.6028,-2.6597,-2.6454,-2.7261,-2.8518,-2.8872,-2.8924,-2.9385,-3.0156,-3.108,-3.0491,-3.0799,-3.0967,-3.0812,-3.0761,-3.0761,-3.0749,-3.0697,-3.0658,-3.0723,-3.0605,-3.0047,-2.9723,-2.9528,-2.9216,-2.9009,-2.8671,-2.8216,-2.81,-2.797,-2.7624,-2.735,-2.7307,-2.7828,-2.8259,-2.839,-2.9231,-2.9282,-2.8306,-2.8114,-2.8202,-2.7787,-2.7284,-2.8405,-2.9907,-1.8268,-1.8321,-1.8262,-1.8268,-1.8308,-1.8255,-1.8222,-1.8242,-1.8295,-1.8275,-1.8248,-1.8361,-1.84,-1.8341,-1.8314,-1.8288,-1.8248,-1.8209,-1.8189,-1.8176,-1.8176,-1.8216,-1.8222,-1.8235,-1.8176,-1.8123,-1.815,-1.7998,-1.7708,-1.7622,-1.7576,-1.7616,-1.7569,-1.7543,-1.7589,-1.7642,-1.755,-1.755,-1.755,-1.755,-1.755,-1.755,-1.7441,-1.7435,-1.7543,-1.7787,-1.8262,-1.816,-1.7936,-1.7936,-1.78,-1.7658,-1.7477,-1.7457,-1.9546,-2.3177,-2.411,-2.411,-2.3899,-2.3793,-2.3697,-2.4838,-2.4953,-2.5354,-2.6069,-2.6595,-2.6108,-2.5661,-2.6905,-2.8348,-2.8395,-2.9746,-3.0568,-3.0754,-3.1,-3.1547,-3.1131,-3.1081,-3.155,-3.1411,-3.098,-3.0812,-3.0799,-3.0761,-3.0684,-3.0671,-3.0554,-3.0502,-3.0151,-3.0333,-2.9982,-2.9398,-2.9086,-2.8879,-2.9034,-2.8967,-2.8856,-2.9006,-2.9254,-2.9104,-2.8314,-2.7655,-2.7683,-2.8148,-2.8792,-3.0246,-3.1545,-3.2091,-3.0295,-2.9199,-2.9415,-2.9464,-2.947,-3.0233,-3.1423,-1.7892,-1.7998,-1.7873,-1.7892,-1.7985,-1.7879,-1.782,-1.7833,-1.7965,-1.7945,-1.7925,-1.8103,-1.8163,-1.8044,-1.8129,-1.7932,-1.784,-1.782,-1.782,-1.782,-1.782,-1.782,-1.78,-1.7807,-1.782,-1.7937,-1.782,-1.7629,-1.729,-1.7479,-1.7405,-1.7372,-1.7372,-1.7372,-1.7372,-1.7587,-1.7391,-1.7391,-1.7284,-1.7284,-1.7391,-1.7391,-1.8338,-1.9388,-2.0547,-2.1268,-2.117,-2.0432,-1.938,-1.938,-1.9373,-1.938,-1.9808,-2.0866,-2.2851,-2.5058,-2.5689,-2.5679,-2.5784,-2.5889,-2.6602,-2.7532,-2.754,-2.7981,-2.8954,-2.899,-2.9213,-2.9029,-3.0367,-3.0667,-3.0289,-3.1513,-3.2236,-3.2151,-3.1964,-3.1692,-3.1398,-3.1148,-3.1099,-3.0838,-3.0734,-3.0708,-3.0761,-3.0645,-3.0606,-3.0502,-3.0372,-3.0021,-2.9655,-2.9294,-2.8905,-2.8567,-2.8502,-2.8808,-2.9585,-2.9721,-2.9881,-3.0714,-3.119,-3.0985,-3.0496,-3.0323,-2.9946,-2.9602,-3.0559,-3.2045,-3.3155,-3.3664,-3.1784,-3.0139,-3.1152,-3.1902,-3.1765,-3.1933,-3.3042,-1.751,-1.7811,-1.7471,-1.7504,-1.7668,-1.7484,-1.7411,-1.731,-1.7642,-1.7583,-1.7471,-1.7866,-1.7912,-1.789,-1.7831,-1.7602,-1.749,-1.7477,-1.7343,-1.7444,-1.7336,-1.7343,-1.7471,-1.749,-1.8185,-1.8331,-1.9217,-1.9139,-1.8545,-1.8431,-1.9273,-1.8424,-1.8853,-1.9273,-1.938,-1.8853,-1.9587,-1.9907,-1.9693,-1.9693,-1.9587,-1.9693,-2.0531,-2.2215,-2.3899,-2.4953,-2.4848,-2.3476,-2.2321,-2.2215,-2.2321,-2.2533,-2.3564,-2.579,-2.6991,-2.7675,-2.7693,-2.7782,-2.769,-2.7363,-2.8356,-2.9535,-2.9949,-3.0956,-3.208,-3.2407,-3.1578,-3.1819,-3.195,-3.2074,-3.2216,-3.1912,-3.1891,-3.1657,-3.145,-3.1307,-3.0956,-3.0839,-3.0813,-3.0695,-3.0669,-3.0643,-3.0554,-3.0411,-3.0177,-2.993,-2.9827,-2.9528,-2.9108,-2.8515,-2.8197,-2.8093,-2.804,-2.8926,-3.0269,-3.0649,-3.1377,-3.2415,-3.2324,-3.2027,-3.1778,-3.2215,-3.2683,-3.2379,-3.2884,-3.355,-3.4003,-3.4615,-3.3503,-3.2359,-3.3235,-3.4322,-3.3752,-3.3248,-3.438,-1.7297,-1.7438,-1.7284,-1.729,-1.7431,-1.7499,-1.7687,-1.7479,-1.7418,-1.8071,-1.7411,-1.7444,-1.7984,-1.7572,-1.7673,-1.7431,-1.7486,-1.7587,-1.7902,-1.7687,-1.7587,-1.7479,-1.7902,-1.8431,-2.0014,-2.4215,-2.3899,-2.2745,-2.2011,-2.3062,-2.2533,-2.1587,-2.3062,-2.3485,-2.411,-2.4426,-2.3793,-2.3582,-2.3582,-2.3688,-2.3793,-2.3899,-2.4215,-2.5259,-2.6318,-2.6623,-2.6518,-2.5784,-2.5154,-2.5163,-2.5163,-2.6413,-2.8519,-3.0877,-3.2219,-3.2017,-3.1146,-3.0725,-3.0614,-3.1037,-3.1123,-3.1825,-3.192,-3.2214,-3.2397,-3.2437,-3.2307,-3.2216,-3.1982,-3.1606,-3.1099,-3.1177,-3.1099,-3.0969,-3.0917,-3.076,-3.0682,-3.0761,-3.0736,-3.0723,-3.0527,-3.0372,-3.0203,-3.0034,-2.9671,-2.946,-2.9356,-2.9095,-2.8437,-2.7957,-2.7972,-2.7911,-2.7798,-2.8368,-3.0846,-3.1822,-3.3046,-3.3524,-3.2977,-3.2406,-3.1903,-3.2326,-3.2861,-3.3586,-3.4258,-3.4503,-3.4825,-3.5381,-3.5381,-3.4806,-3.5051,-3.5868,-3.5606,-3.4919,-3.5156,-2.1799,-2.1905,-2.1799,-2.1799,-2.1799,-2.1799,-2.1799,-2.1799,-2.1799,-2.1914,-2.1587,-2.012,-1.9587,-1.9587,-1.9587,-1.9587,-1.9907,-2.0957,-2.1063,-1.9487,-1.8009,-1.8217,-1.9273,-2.1276,-2.2851,-2.5163,-2.5994,-2.5268,-2.4426,-2.4953,-2.5364,-2.4215,-2.5049,-2.6184,-2.5889,-2.5679,-2.6069,-2.6079,-2.5889,-2.5889,-2.5889,-2.5889,-2.6308,-2.7773,-2.9449,-3.0279,-2.9853,-2.8908,-2.8075,-2.8279,-2.8854,-3.0088,-3.1356,-3.2314,-3.2792,-3.2865,-3.2579,-3.2488,-3.2463,-3.2476,-3.2437,-3.2391,-3.2164,-3.2086,-3.1995,-3.1722,-3.1606,-3.1502,-3.1346,-3.1099,-3.0813,-3.0761,-3.0761,-3.0761,-3.0774,-3.0774,-3.0761,-3.0761,-3.0684,-3.0385,-3.0489,-3.0098,-2.9799,-2.9528,-2.9365,-2.9496,-2.9363,-2.9203,-2.8533,-2.8568,-2.8395,-2.8721,-2.8178,-2.9262,-3.1936,-3.3486,-3.4742,-3.476,-3.429,-3.3734,-3.3029,-3.306,-3.3123,-3.3856,-3.473,-3.5004,-3.5183,-3.6083,-3.6325,-3.6194,-3.65,-3.7321,-3.7578,-3.7212,-3.7164,-2.5889,-2.5889,-2.5889,-2.5889,-2.5889,-2.5889,-2.5784,-2.5689,-2.5679,-2.5374,-2.5268,-2.3476,-2.2533,-2.2436,-2.2427,-2.2427,-2.2745,-2.4215,-2.4742,-2.2215,-2.0014,-2.0851,-2.3371,-2.5469,-2.7041,-2.7981,-2.7773,-2.7355,-2.7146,-2.7564,-2.7459,-2.7115,-2.7563,-2.7563,-2.7885,-2.8068,-2.7301,-2.75,-2.7487,-2.7619,-2.77,-2.7803,-2.8624,-3.0284,-3.2266,-3.3559,-3.3293,-3.1729,-3.0582,-3.0812,-3.1507,-3.1908,-3.2163,-3.23,-3.2307,-3.2255,-3.2177,-3.2047,-3.2073,-3.2008,-3.2086,-3.1956,-3.1644,-3.1544,-3.1411,-3.106,-3.0852,-3.0774,-3.0761,-3.0813,-3.0761,-3.0761,-3.0761,-3.0761,-3.0761,-3.0802,-3.1102,-3.1139,-3.1359,-3.1239,-3.1014,-3.0472,-3.0527,-3.0503,-2.9875,-2.9567,-2.9488,-2.9268,-2.9322,-2.9455,-3.0071,-3.1087,-3.1362,-3.3141,-3.4994,-3.5381,-3.6318,-3.6594,-3.6175,-3.5664,-3.4962,-3.4728,-3.4259,-3.4567,-3.5136,-3.507,-3.507,-3.5953,-3.8026,-3.7962,-3.809,-3.8641,-3.9084,-3.9463,-3.9444,-2.5889,-2.5889,-2.5889,-2.5889,-2.6099,-2.5889,-2.6413,-2.5994,-2.6413,-2.6308,-2.6204,-2.5689,-2.5374,-2.5469,-2.5364,-2.5364,-2.5469,-2.6413,-2.5889,-2.5316,-2.5144,-2.5905,-2.8258,-2.9156,-3.0312,-3.2015,-3.319,-3.1562,-3.0221,-3.1744,-3.1598,-3.0174,-3.1319,-3.2545,-3.1896,-3.1756,-3.2091,-3.1818,-3.1221,-3.095,-3.0938,-3.1037,-3.116,-3.1952,-3.2767,-3.2839,-3.2702,-3.2355,-3.1971,-3.2167,-3.2358,-3.2359,-3.2333,-3.193,-3.1748,-3.1657,-3.1359,-3.0993,-3.1008,-3.1019,-3.1021,-3.1073,-3.0995,-3.0773,-3.0904,-3.0865,-3.0761,-3.0761,-3.0761,-3.0761,-3.0761,-3.0761,-3.0761,-3.0749,-3.0789,-3.1451,-3.232,-3.2357,-3.286,-3.4405,-3.2943,-3.2987,-3.2972,-3.2589,-3.1504,-3.1435,-3.1787,-3.1697,-3.1607,-3.2349,-3.3363,-3.3614,-3.4889,-3.6898,-3.6997,-3.6972,-3.7546,-3.7633,-3.689,-3.6371,-3.5642,-3.526,-3.5089,-3.5183,-3.5559,-3.5559,-3.5998,-3.7642,-3.9273,-3.99,-4.0314,-4.0376,-4.0376,-4.1078,-4.1279,-3.0705,-3.0705,-3.0705,-3.0705,-3.0717,-3.0717,-3.0717,-3.0717,-3.0705,-3.0717,-3.0291,-2.9023,-2.819,-2.819,-2.8179,-2.819,-2.8513,-2.9968,-2.9499,-2.8187,-2.804,-2.9296,-3.0839,-3.1456,-3.1968,-3.319,-3.3077,-3.2492,-3.1781,-3.2467,-3.2579,-3.1744,-3.2436,-3.2956,-3.319,-3.267,-3.2618,-3.2735,-3.2618,-3.2476,-3.2476,-3.2476,-3.2463,-3.2463,-3.2476,-3.2476,-3.2463,-3.2463,-3.2125,-3.1618,-3.1489,-3.1476,-3.1463,-3.1242,-3.1138,-3.1112,-3.0825,-3.0761,-3.0761,-3.0761,-3.0761,-3.0761,-3.0761,-3.0761,-3.0761,-3.0761,-3.0761,-3.0761,-3.0761,-3.0761,-3.0761,-3.0761,-3.0761,-3.0762,-3.1206,-3.2427,-3.4158,-3.4151,-3.4381,-3.4487,-3.4165,-3.3864,-3.3855,-3.3263,-3.3091,-3.3553,-3.4026,-3.4009,-3.4213,-3.6101,-3.7129,-3.6234,-3.6744,-3.7324,-3.7529,-3.7231,-3.7519,-3.6858,-3.6245,-3.598,-3.5489,-3.5089,-3.5089,-3.5373,-3.5907,-3.6869,-3.9419,-4.1485,-4.2079,-4.22,-4.2744,-4.2961,-4.2831,-4.3166,-4.3037,-3.419,-3.419,-3.419,-3.419,-3.419,-3.419,-3.4099,-3.3956,-3.3841,-3.3407,-3.3191,-3.1542,-3.0543,-3.0602,-3.0578,-3.0614,-3.086,-3.2533,-3.2118,-3.0354,-3.046,-3.1282,-3.2022,-3.2398,-3.2417,-3.2527,-3.2579,-3.2476,-3.2476,-3.2456,-3.2443,-3.2476,-3.2275,-3.232,-3.2359,-3.2164,-3.2099,-3.2216,-3.2125,-3.1982,-3.1969,-3.1969,-3.2021,-3.2021,-3.1995,-3.1982,-3.2021,-3.2021,-3.158,-3.0734,-3.0761,-3.0761,-3.0839,-3.0813,-3.0813,-3.0813,-3.0682,-3.0761,-3.0761,-3.0761,-3.0761,-3.0761,-3.0761,-3.0761,-3.0761,-3.0761,-3.0761,-3.0761,-3.0761,-3.0761,-3.0656,-3.0619,-3.0541,-3.0697,-3.2132,-3.389,-3.5472,-3.5957,-3.5974,-3.5996,-3.5622,-3.5533,-3.5481,-3.519,-3.4922,-3.5435,-3.5713,-3.5757,-3.615,-3.7641,-3.8286,-3.7804,-3.7162,-3.7631,-3.7738,-3.7358,-3.6884,-3.6132,-3.5907,-3.5727,-3.5508,-3.5505,-3.578,-3.6542,-3.8316,-3.9962,-4.254,-4.3903,-4.4223,-4.4105,-4.4282,-4.4081,-4.4303,-4.4475,-4.426,-3.4177,-3.419,-3.4177,-3.4125,-3.4086,-3.4086,-3.3888,-3.3524,-3.3471,-3.3211,-3.2722,-3.2231,-3.2167,-3.2227,-3.2047,-3.2035,-3.2312,-3.2709,-3.2351,-3.2027,-3.1891,-3.1784,-3.1787,-3.2086,-3.2255,-3.2307,-3.2333,-3.2372,-3.2268,-3.2281,-3.2476,-3.2281,-3.1891,-3.1904,-3.2073,-3.1372,-3.1216,-3.1554,-3.119,-3.0982,-3.0982,-3.0943,-3.0943,-3.0969,-3.0995,-3.1008,-3.1034,-3.1034,-3.0825,-3.0787,-3.0761,-3.0761,-3.0761,-3.0761,-3.0761,-3.0761,-3.0761,-3.0761,-3.0761,-3.0761,-3.0761,-3.0761,-3.0761,-3.0761,-3.1012,-3.1143,-3.1182,-3.1378,-3.1247,-3.0999,-3.0985,-3.0785,-3.0494,-3.0594,-3.3176,-3.5446,-3.7196,-3.7148,-3.7642,-3.8699,-3.8111,-3.7365,-3.8858,-3.7619,-3.7737,-3.8482,-3.8882,-3.8268,-3.8196,-3.7659,-3.8618,-3.8109,-3.7032,-3.7073,-3.6637,-3.6295,-3.6143,-3.566,-3.5746,-3.5678,-3.5571,-3.6542,-3.7205,-3.9594,-4.1686,-4.3362,-4.4718,-4.46,-4.4718,-4.5069,-4.5127,-4.4952,-4.4971,-4.5089,-4.5023,-3.4071,-3.3758,-3.3745,-3.355,-3.3112,-3.3112,-3.2982,-3.2826,-3.2787,-3.2683,-3.2501,-3.2463,-3.2476,-3.2476,-3.2476,-3.2476,-3.2476,-3.2476,-3.2086,-3.1394,-3.1317,-3.1307,-3.1177,-3.1333,-3.1398,-3.1411,-3.1411,-3.1398,-3.1398,-3.1398,-3.1398,-3.1398,-3.1203,-3.1229,-3.1213,-3.0982,-3.0839,-3.1021,-3.0878,-3.0761,-3.0761,-3.0761,-3.0761,-3.0761,-3.0761,-3.0761,-3.0761,-3.0761,-3.0761,-3.0761,-3.0761,-3.0761,-3.0761,-3.0761,-3.0761,-3.0761,-3.0761,-3.0749,-3.0761,-3.0789,-3.0761,-3.0761,-3.0761,-3.1301,-3.2593,-3.2414,-3.3038,-3.4018,-3.3871,-3.3663,-3.3576,-3.3412,-3.3218,-3.2932,-3.5028,-3.6479,-3.7184,-3.8183,-3.9296,-3.9505,-3.9353,-3.9353,-3.9827,-3.9164,-3.9166,-3.8978,-3.9181,-3.8877,-3.8099,-3.7396,-3.706,-3.6719,-3.6409,-3.6067,-3.5507,-3.5374,-3.526,-3.5752,-3.6083,-3.639,-3.6824,-3.7976,-3.9636,-4.1981,-4.3264,-4.4673,-4.4976,-4.4976,-4.5069,-4.5534,-4.5765,-4.588,-4.6076,-4.6101,-4.5524,-3.3423,-3.3185,-3.3073,-3.2826,-3.2501,-3.2476,-3.2359,-3.2229,-3.2216,-3.2112,-3.1956,-3.1943,-3.193,-3.193,-3.1943,-3.193,-3.1943,-3.1917,-3.1528,-3.0891,-3.0787,-3.0787,-3.0787,-3.0774,-3.0761,-3.0761,-3.0761,-3.0774,-3.0787,-3.0787,-3.0761,-3.0761,-3.0787,-3.0761,-3.0721,-3.0761,-3.0761,-3.0761,-3.0761,-3.0761,-3.0761,-3.0761,-3.0761,-3.0761,-3.0761,-3.0761,-3.0761,-3.0761,-3.0761,-3.0761,-3.0761,-3.0761,-3.063,-3.0606,-3.0515,-3.0502,-3.0359,-3.041,-3.1016,-3.117,-3.1503,-3.2055,-3.2234,-3.3052,-3.4327,-3.4103,-3.4557,-3.5786,-3.5779,-3.5393,-3.5345,-3.5286,-3.5433,-3.6199,-3.726,-3.8016,-3.8246,-3.9201,-3.9902,-4.0072,-4.0072,-3.992,-3.9655,-3.956,-3.9032,-3.8516,-3.8326,-3.8023,-3.7258,-3.6386,-3.5814,-3.5688,-3.5384,-3.5156,-3.5194,-3.5213,-3.6109,-3.7293,-3.7834,-3.8281,-3.8789,-3.9796,-4.1813,-4.3594,-4.4295,-4.4976,-4.5035,-4.5151,-4.5326,-4.5616,-4.6704,-4.7193,-4.7313,-4.6848,-4.6067,-3.2514,-3.2476,-3.2488,-3.2424,-3.2333,-3.2307,-3.2112,-3.167,-3.1631,-3.1385,-3.1021,-3.0878,-3.0876,-3.0773,-3.0982,-3.0865,-3.093,-3.0863,-3.0878,-3.0682,-3.0761,-3.0761,-3.0761,-3.0761,-3.0761,-3.0761,-3.0761,-3.0761,-3.0761,-3.0761,-3.0761,-3.0761,-3.0761,-3.0761,-3.0761,-3.0761,-3.0761,-3.0761,-3.0761,-3.0761,-3.0761,-3.0761,-3.0761,-3.0761,-3.0761,-3.0761,-3.0761,-3.0761,-3.0761,-3.0761,-3.0736,-3.0749,-3.0645,-3.0397,-3.0007,-3.0121,-2.9715,-3.0444,-3.2015,-3.2402,-3.3247,-3.4443,-3.5082,-3.5038,-3.5578,-3.5488,-3.5645,-3.6131,-3.595,-3.5668,-3.5706,-3.5451,-3.6262,-3.9216,-3.9504,-3.9675,-3.9751,-3.9978,-4.0053,-3.9958,-3.9806,-3.9635,-3.8991,-3.8725,-3.8509,-3.8004,-3.7826,-3.7589,-3.7115,-3.72,-3.635,-3.5752,-3.5667,-3.6004,-3.5571,-3.5315,-3.7277,-3.8916,-3.9462,-4.0025,-4.054,-4.1623,-4.3594,-4.4151,-4.4835,-4.4893,-4.5035,-4.6314,-4.6314,-4.7568,-4.7913,-4.8751,-4.8268,-4.7562,-4.6717,-3.2255,-3.193,-3.1891,-3.1683,-3.1239,-3.1226,-3.1216,-3.1073,-3.1047,-3.0863,-3.0787,-3.0761,-3.0761,-3.0761,-3.0761,-3.0761,-3.0761,-3.0761,-3.0761,-3.0761,-3.0761,-3.0761,-3.0761,-3.0761,-3.0761,-3.0761,-3.0761,-3.0761,-3.0761,-3.0761,-3.0761,-3.0761,-3.0761,-3.0761,-3.0761,-3.0761,-3.0761,-3.0761,-3.0761,-3.0761,-3.0761,-3.0761,-3.0761,-3.0761,-3.0761,-3.0761,-3.0761,-3.0761,-3.0761,-3.071,-3.0398,-3.0203,-3.0242,-3.1021,-3.1464,-3.171,-3.2616,-3.3705,-3.4282,-3.4367,-3.4689,-3.5293,-3.5377,-3.6131,-3.7495,-3.7238,-3.7828,-3.8812,-3.8905,-3.8527,-3.8474,-3.833,-3.8772,-3.9675,-4.0072,-4.0072,-4.0072,-4.0053,-3.9749,-3.9181,-3.8706,-3.8269,-3.7947,-3.789,-3.8018,-3.8345,-3.8342,-3.8587,-3.8838,-3.9382,-3.9658,-3.8577,-3.7645,-3.745,-3.8237,-3.8451,-3.9837,-4.0336,-4.0831,-4.1469,-4.22,-4.3523,-4.4635,-4.4776,-4.4893,-4.4893,-4.574,-4.7307,-4.8938,-5.0691,-5.0665,-4.96,-4.8838,-4.8249,-4.7153,-3.1657,-3.132,-3.132,-3.1112,-3.0682,-3.0761,-3.0761,-3.0761,-3.0761,-3.0761,-3.0761,-3.0761,-3.0761,-3.0761,-3.1576,-3.2035,-3.2035,-3.2035,-3.159,-3.0761,-3.0761,-3.0761,-3.0761,-3.0761,-3.113,-3.1852,-3.2035,-3.2479,-3.3167,-3.3272,-3.3272,-3.3363,-3.3363,-3.3363,-3.3258,-3.3363,-3.283,-3.2127,-3.2035,-3.159,-3.0854,-3.0761,-3.1363,-3.2295,-3.2432,-3.2343,-3.2432,-3.2432,-3.2343,-3.2343,-3.2068,-3.1859,-3.1992,-3.2833,-3.3345,-3.3274,-3.4113,-3.5124,-3.5778,-3.5958,-3.6186,-3.6916,-3.7078,-3.785,-3.8856,-3.8912,-3.9092,-4.0237,-4.0263,-4.0091,-4.0072,-4.0072,-4.0053,-4.0015,-3.9787,-3.9484,-3.9559,-3.9312,-3.8877,-3.8345,-3.7852,-3.7672,-3.7899,-3.7952,-3.8285,-3.9015,-3.9179,-3.9401,-3.9989,-4.0566,-4.061,-4.0049,-3.9487,-3.9551,-4.134,-4.1752,-4.1813,-4.214,-4.2382,-4.3128,-4.3796,-4.503,-4.5458,-4.5657,-4.6062,-4.6037,-4.555,-4.7153,-4.9042,-5.0692,-5.1281,-5.0247,-4.926,-4.8806,-4.7735,-3.0867,-3.0972,-3.0774,-3.0787,-3.0761,-3.0946,-3.0854,-3.0761,-3.0761,-3.0761,-3.0761,-3.0761,-3.0854,-3.1485,-3.3579,-3.4512,-3.4498,-3.4469,-3.325,-3.1298,-3.1195,-3.1064,-3.0867,-3.0959,-3.2187,-3.4114,-3.4189,-3.5189,-3.7248,-3.7473,-3.7802,-3.7561,-3.7248,-3.7561,-3.7232,-3.7128,-3.6544,-3.4412,-3.4247,-3.3326,-3.1352,-3.109,-3.2479,-3.4783,-3.5256,-3.5151,-3.5204,-3.5256,-3.5272,-3.5256,-3.5125,-3.5178,-3.5178,-3.5182,-3.5016,-3.4769,-3.4367,-3.5,-3.6782,-3.7127,-3.7839,-3.9523,-3.9635,-3.9978,-3.9883,-3.9826,-3.9959,-4.0091,-3.992,-3.9768,-3.9768,-3.9635,-3.973,-3.9711,-3.9086,-3.8779,-3.8795,-3.851,-3.769,-3.7909,-3.8023,-3.8259,-3.866,-3.8692,-3.9221,-3.9953,-4.0215,-4.038,-4.0685,-4.0565,-4.0709,-4.0636,-4.0776,-4.1305,-4.4068,-4.4164,-4.4341,-4.4459,-4.4282,-4.4986,-4.563,-4.6237,-4.6402,-4.6633,-4.7359,-4.7372,-4.6453,-4.7202,-4.9374,-5.0277,-5.0917,-5.0326,-4.9011,-4.9029,-4.8885,-3.3391,-3.3118,-3.1406,-3.0761,-3.0854,-3.2676,-3.2401,-3.0867,-3.0761,-3.0761,-3.0761,-3.0761,-3.2557,-3.5608,-3.5949,-3.6011,-3.5908,-3.6011,-3.5312,-3.4324,-3.4644,-3.4599,-3.4091,-3.4076,-3.4507,-3.5022,-3.5139,-3.5467,-3.5948,-3.6118,-3.6049,-3.6033,-3.6118,-3.6033,-3.6033,-3.6017,-3.5692,-3.5194,-3.5108,-3.4765,-3.4249,-3.4076,-3.4495,-3.5256,-3.5393,-3.5393,-3.5393,-3.5393,-3.5393,-3.5377,-3.4984,-3.4812,-3.478,-3.4399,-3.4751,-3.6132,-3.7495,-3.8556,-3.9107,-3.9201,-3.9429,-3.9978,-4.0072,-4.0072,-4.0072,-4.0072,-4.0072,-3.992,-3.8931,-3.8231,-3.8174,-3.8174,-3.8247,-3.8174,-3.8004,-3.8455,-3.9456,-3.9507,-3.9469,-4.0092,-3.9855,-4.0095,-3.9765,-3.9743,-4.0291,-4.1536,-4.1896,-4.22,-4.3284,-4.3475,-4.3464,-4.3582,-4.3535,-4.3985,-4.4635,-4.501,-4.4893,-4.5069,-4.6027,-4.6516,-4.6706,-4.8551,-4.9423,-4.9773,-4.9854,-4.988,-5.0061,-4.993,-5.1065,-5.0945,-5.0446,-4.9573,-4.8723,-4.8927,-4.9259,-3.5788,-3.5683,-3.4241,-3.3621,-3.3803,-3.5159,-3.4978,-3.3712,-3.3621,-3.3621,-3.3564,-3.2902,-3.4692,-3.8191,-3.7793,-3.7493,-3.7493,-3.7493,-3.6773,-3.5541,-3.5874,-3.5874,-3.5409,-3.5393,-3.5964,-3.6715,-3.6782,-3.7297,-3.8158,-3.8323,-3.8306,-3.8323,-3.8323,-3.8323,-3.8323,-3.8323,-3.781,-3.6865,-3.6782,-3.6996,-3.7223,-3.7299,-3.7282,-3.7299,-3.7282,-3.7299,-3.7299,-3.7299,-3.7299,-3.7265,-3.7047,-3.6806,-3.6806,-3.6454,-3.6832,-3.8097,-3.9353,-4.0072,-4.0072,-4.0072,-4.0072,-4.0072,-4.0072,-4.0072,-4.0053,-3.9711,-3.9294,-3.9007,-3.8151,-3.7472,-3.7581,-3.8158,-3.8509,-3.8591,-3.883,-3.9066,-3.9413,-3.973,-3.996,-4.002,-4.0405,-4.0486,-4.024,-4.0584,-4.1774,-4.3128,-4.351,-4.3808,-4.46,-4.4893,-4.4893,-4.4893,-4.4893,-4.4893,-4.4976,-4.536,-4.5822,-4.6142,-4.7082,-4.8086,-4.8362,-4.9825,-5.1611,-5.3227,-5.2528,-5.2499,-5.3522,-5.2521,-5.158,-5.133,-5.0513,-4.9107,-4.845,-4.8503,-4.8922,-3.8236,-3.8236,-3.781,-3.7987,-3.8148,-3.8236,-3.7923,-3.7609,-3.7697,-3.7946,-3.8039,-3.6698,-3.7347,-3.9029,-3.914,-3.9087,-3.9087,-3.9087,-3.7953,-3.6137,-3.5835,-3.5918,-3.5955,-3.5904,-3.6914,-3.8685,-3.8894,-3.9866,-4.1644,-4.1941,-4.2176,-4.2393,-4.2294,-4.2077,-4.2176,-4.2176,-4.1158,-3.9046,-3.8982,-3.9369,-3.9997,-4.0072,-4.0072,-4.0072,-3.9997,-4.0072,-3.9845,-4.0072,-3.9997,-4.0072,-3.994,-3.9997,-3.9921,-3.9997,-3.994,-3.9845,-3.9845,-3.9882,-3.9806,-3.9806,-3.9787,-3.9901,-3.9787,-3.9749,-3.9731,-3.8972,-3.8136,-3.7567,-3.732,-3.7201,-3.7385,-3.8643,-3.9417,-3.9404,-4.0236,-4.0556,-3.9636,-3.9753,-3.9941,-3.8937,-4.0361,-4.0522,-4.0999,-4.1957,-4.3308,-4.4566,-4.46,-4.4718,-4.4893,-4.4893,-4.4952,-4.5393,-4.5393,-4.5509,-4.574,-4.6598,-4.7276,-4.7531,-4.8636,-4.9369,-4.9825,-5.0782,-5.2116,-5.3453,-5.3424,-5.3375,-5.3388,-5.261,-5.1572,-5.0742,-4.9676,-4.8583,-4.7375,-4.7632,-4.8044,-4.059,-4.0433,-3.8678,-3.8942,-4.0607,-4.0607,-3.9119,-3.6906,-3.689,-3.8589,-4.1233,-4.1096,-4.1193,-4.1622,-4.0989,-4.065,-4.0729,-4.0631,-4.0061,-3.9138,-3.9608,-3.9553,-3.9083,-3.901,-3.926,-3.9723,-3.98,-4.0068,-4.0547,-4.0624,-4.0624,-4.0643,-4.0624,-4.0643,-4.0624,-4.0624,-4.0375,-3.98,-3.9819,-3.988,-4.0072,-4.0072,-4.0053,-4.0072,-4.0053,-4.0072,-4.0072,-4.0072,-4.0072,-4.0072,-4.0072,-4.0072,-4.0072,-4.0072,-3.9674,-3.9067,-3.901,-3.8725,-3.8136,-3.8042,-3.825,-3.8668,-3.8307,-3.825,-3.8535,-3.7548,-3.6624,-3.6416,-3.604,-3.5679,-3.6034,-3.7221,-3.806,-3.817,-3.9382,-4.1115,-4.2911,-4.2503,-4.2261,-4.3284,-4.3606,-4.3725,-4.3844,-4.4164,-4.4459,-4.4752,-4.4893,-4.4893,-4.4893,-4.4893,-4.6027,-4.7505,-4.8391,-4.8121,-4.8391,-4.8611,-4.8775,-4.8909,-5.0037,-5.0747,-5.1246,-5.2225,-5.3256,-5.3453,-5.3621,-5.3504,-5.3436,-5.2333,-5.0571,-4.8825,-4.79,-4.7031,-4.6501,-4.7381,-4.813,-4.247,-4.2246,-4.0718,-4.0729,-4.1924,-4.1942,-4.0918,-3.9325,-3.8895,-3.9722,-4.1304,-4.1442,-4.1461,-4.1404,-4.087,-4.0661,-4.068,-4.068,-4.0414,-4.0091,-4.0471,-4.0433,-4.0072,-4.0072,-4.0072,-4.0072,-4.0072,-4.0072,-4.0072,-4.0072,-4.0072,-4.0072,-4.0072,-4.0072,-4.0072,-4.0072,-4.0072,-4.0053,-3.9579,-3.9464,-3.9408,-3.9408,-3.9389,-3.9389,-3.9863,-4.0072,-4.0072,-4.0072,-4.0072,-4.0072,-3.9692,-3.9389,-3.9389,-3.9121,-3.8722,-3.8193,-3.8155,-3.7966,-3.751,-3.7472,-3.7301,-3.6884,-3.7225,-3.732,-3.6814,-3.6056,-3.5919,-3.6663,-3.6423,-3.6455,-3.7277,-3.8831,-3.9775,-3.9816,-4.1262,-4.2985,-4.4483,-4.4069,-4.401,-4.4718,-4.4893,-4.4893,-4.4893,-4.4893,-4.4796,-4.4399,-4.5401,-4.6288,-4.6887,-4.6046,-4.5795,-4.7235,-4.811,-4.8216,-4.7708,-4.8501,-4.9401,-4.9481,-5.0664,-5.1722,-5.2493,-5.2403,-5.2999,-5.3475,-5.2573,-5.2456,-5.3533,-5.1384,-4.907,-4.7101,-4.6537,-4.6288,-4.6204,-4.6849,-4.7329,-4.3604,-4.3528,-4.2844,-4.264,-4.264,-4.264,-4.264,-4.2446,-4.1437,-4.0661,-4.0072,-4.0072,-4.0072,-4.0072,-4.0072,-4.0072,-4.0072,-4.0072,-4.0072,-4.0072,-4.0072,-4.0072,-4.0072,-4.0072,-4.0072,-4.0072,-4.0072,-4.0072,-4.0072,-4.0072,-4.0072,-4.0053,-4.026,-4.0411,-4.0411,-4.0411,-4.0561,-4.0842,-4.005,-3.9663,-3.9643,-3.9643,-3.9566,-3.93,-4.0041,-4.0315,-4.001,-3.9862,-3.9843,-3.9744,-3.8608,-3.8151,-3.8352,-3.7518,-3.7092,-3.7282,-3.732,-3.7263,-3.713,-3.7149,-3.6523,-3.5251,-3.6314,-3.6485,-3.4928,-3.517,-3.6141,-3.7642,-3.769,-3.8263,-3.9621,-4.1002,-4.1778,-4.2226,-4.3569,-4.4503,-4.447,-4.4314,-4.4299,-4.4479,-4.4799,-4.4982,-4.4793,-4.5089,-4.5019,-4.433,-4.5422,-4.7266,-4.7766,-4.7163,-4.6233,-4.6233,-4.7063,-4.7172,-4.7165,-4.8215,-4.9363,-4.9623,-5.0601,-5.1626,-5.2748,-5.2321,-5.2009,-5.2793,-5.143,-5.0765,-5.1641,-4.9431,-4.7295,-4.6172,-4.5812,-4.5718,-4.5648,-4.6122,-4.6432,-4.2749,-4.2749,-4.2616,-4.264,-4.264,-4.264,-4.264,-4.2446,-4.087,0.0,0.0,-4.0072,-4.0072,-4.0072,-4.0072,-4.0072,-4.0072,-4.0072,-4.0072,-4.0072,-4.0072,-4.0072,-4.0072,-4.0072,-4.0072,-4.0072,-4.0072,-4.0072,-4.0072,-4.0072,-4.0072,-4.0204,-4.1549,-4.2269,-4.2269,-4.2249,-4.3058,-4.4562,-4.4557,-4.4472,-4.445,-4.445,-4.3585,-4.1942,-4.2104,-4.1493,-3.9755,-3.9208,-3.8722,-3.8377,-3.6061,-3.5389,-3.6877,-3.5443,-3.5061,-3.6264,-3.6397,-3.6162,-3.5498,-3.5441,-3.5308,-3.5042,-3.5289,-3.4928,-3.3631,-3.6104,-3.8212,-3.9522,-3.8732,-3.832,-3.8541,-3.9367,-4.0193,-4.1058,-4.1851,-4.2609,-4.3041,-4.2651,-4.2713,-4.3178,-4.4533,-4.5016,-4.4146,-4.5623,-4.6496,-4.5444,-4.5548,-4.5958,-4.6336,-4.764,-4.8478,-4.8507,-4.867,-4.9132,-4.8997,-4.943,-4.9684,-4.9667,-4.9973,-5.0506,-5.1368,-5.156,-5.0974,-5.042,-5.0291,-4.9391,-4.7704,-4.671,-4.5794,-4.4608,-4.4414,-4.4468,-4.4573,-4.5378,-4.623,-4.1895,-4.1857,-4.1499,-4.1328,0.0,-4.125,-4.1309,-4.1251,-4.0415,-4.0072,-4.0072,-4.0072,-4.0072,-4.0072,-4.0072,-4.0072,-4.0072,-4.0072,-4.0072,-4.0129,-4.0972,-4.14,-4.1474,-4.2417,-4.2417,-4.1474,-4.2417,-4.2343,-4.1549,-4.2417,-4.2931,-4.2931,-4.3787,-4.3969,-4.3477,-4.3948,-4.4706,-4.5637,-4.5321,-4.5081,-4.5081,-4.5081,-4.4554,-4.3637,-4.3961,0.0,0.0,0.0,0.0,0.0,0.0,0.0,0.0,-3.3994,0.0,-3.2323,-3.1061,-3.0156,-2.9881,-3.0042,-3.1014,-3.2821,-3.2107,-3.1578,-3.1776,-3.5325,-3.7433,-3.722,-3.8192,-3.9111,-3.994,-4.0315,-4.077,-4.1254,-4.1633,-4.1901,-4.2249,-4.2468,-4.2824,-4.3281,-4.4529,-4.529,-4.4611,-4.5725,-4.5895,-4.493,-4.5714,-4.6449,-4.606,-4.6951,-4.7769,-4.7813,-4.8263,-4.8569,-4.8017,-4.8234,-4.8891,-4.9436,-4.9537,-5.0252,-5.1817,-5.0976,-5.0202,-5.0379,-4.875,-4.7062,-4.5025,-4.4749,-4.4699,-4.4166,-4.407,-4.4339,-4.5296,-4.6179,-4.7008,-4.0812,-4.0965,-4.0263,-4.0072,-4.0015,-4.0085,-3.9857,-3.9578,-3.9578,-3.9578,-3.9578,-3.9597,-3.9578,-3.9578,-3.9578,-3.9727,-4.0005,-4.008,-4.0228,-4.0578,-4.2058,-4.2741,-4.2813,-4.4316,-4.4266,-4.2906,-4.4316,-4.4245,-4.2741,-4.4316,-4.5115,-4.5115,-4.5642,-4.5475,-4.4772,0.0,0.0,0.0,-4.5926,-4.584,-4.584,-4.584,-4.5571,-4.4921,-4.5577,0.0,-4.3845,-4.3639,-4.3158,-4.2159,-3.9675,0.0,0.0,0.0,0.0,0.0,0.0,0.0,0.0,0.0,0.0,0.0,-2.778,-2.7357,-2.9325,-3.3364,-3.5237,-3.4088,-3.7259,-3.9847,-4.0661,-4.0983,-4.1218,-4.1467,-4.1267,-4.135,-4.1814,-4.2465,-4.3039,-4.3296,-4.4668,-4.5518,-4.5248,-4.5687,-4.553,-4.4707,-4.599,-4.6866,-4.6119,-4.5989,-4.5994,-4.6145,-4.6982,-4.71,-4.6303,-4.7347,-4.8545,-4.8953,-4.9149,-4.9657,-5.1176,-4.9788,-4.9,-4.9498,-4.7295,-4.4672,-4.3567,-4.3705,-4.4084,-4.4207,-4.4397,-4.4972,-4.661,-4.737,-4.7863,-3.9446,-4.0205,-4.0091,-4.0072,-4.0014,-4.0071,-3.9174,-3.7885,-3.7814,-3.7814,-3.7814,-3.7814,-3.7795,-3.7885,-3.7866,-3.8629,-3.9976,-4.0066,-4.0858,-4.2231,-4.2482,-4.2618,-4.2618,-4.2821,-4.2821,-4.2618,-4.2888,-4.2821,-4.2618,-4.2821,-4.2956,-4.3067,-4.5595,-4.6814,-4.6744,-4.8417,-4.878,-4.7962,-4.9664,-5.0598,-5.0641,-5.0598,-4.9271,-4.6505,-4.6711,-4.5511,-4.2563,-4.1931,-4.1343,-4.0851,-3.8063,-3.7294,-3.8978,-3.6786,-3.3783,0.0,-2.9809,0.0,0.0,0.0,0.0,0.0,0.0,0.0,0.0,-2.9909,-3.2191,-3.1879,-3.6897,-3.9294,-3.7255,-3.8169,-3.929,-4.027,-3.9485,-3.9723,-4.1688,-4.1301,-4.1221,-4.2237,-4.4492,-4.5582,-4.46,-4.6202,-4.7025,-4.5846,-4.5946,-4.6147,-4.5957,-4.5939,-4.6211,-4.716,-4.6606,-4.6717,-4.721,-4.8142,-4.8875,-4.8842,-4.8162,-4.7607,-4.8804,-4.7582,-4.6013,-4.4954,-4.5049,-4.488,-4.3576,-4.3765,-4.4207,-4.4505,-4.5234,-4.6259,-4.7562,-4.8079,-4.8241,-4.1072,-4.144,-4.144,-4.1063,-4.0463,-4.0503,-4.0441,-4.0323,-4.0303,-3.9772,-3.8979,-3.991,-3.9792,-3.8979,-3.9931,-4.0186,-4.0117,-4.1055,-4.187,-4.2588,-4.3653,-4.4049,-4.4137,-4.5229,-4.5141,-4.4115,-4.5164,-4.5141,-4.418,-4.5206,-4.5683,-4.5771,-4.7062,-4.6787,-4.5228,-4.9182,-5.1026,-5.0589,-5.1591,-5.2361,-5.304,-5.1623,-5.0541,-4.9799,-4.8432,-4.6735,-4.4784,-4.4355,-4.385,-4.299,-4.0873,-4.0132,-4.0884,-3.476,-3.115,0.0,0.0,0.0,0.0,0.0,0.0,0.0,0.0,0.0,0.0,0.0,-2.8333,-3.1742,-3.7684,-3.9054,-3.3725,-3.5738,-3.7607,-3.8091,-3.5809,-3.6299,-4.1517,-4.043,-4.0272,-4.2992,-4.4828,-4.5744,-4.5229,-4.6047,-4.6504,-4.5952,-4.5864,-4.5988,-4.6322,-4.6087,-4.6459,-4.7998,-4.7598,-4.735,-4.8153,-4.8725,-4.8887,-4.857,-4.8014,-4.7637,-4.7814,-4.6713,-4.5202,-4.3778,-4.4124,-4.4409,-4.357,-4.4039,-4.4868,-4.5535,-4.6462,-4.7446,-4.8255,-4.846,-4.8636,-4.1591,-4.1765,-4.1649,-4.1029,-4.0109,-4.0327,-4.0875,-4.1593,-4.1896,-4.1189,-4.014,-4.141,-4.07,-3.8534,-3.8747,-3.8957,-3.916,-4.049,-4.1737,-4.316,-4.4536,-4.5195,-4.5322,-4.6735,-4.6611,-4.5362,-4.623,-4.6168,-4.5275,-4.623,-4.6501,-4.6107,-4.6167,-4.5101,-4.3199,-4.7846,-5.0885,-5.209,-5.2357,-5.2944,-5.3884,-5.1909,-5.1241,-5.1949,-4.9598,-4.7809,-4.6833,-4.6425,-4.6033,-4.5442,-4.3122,-4.1822,-4.1809,-3.2935,0.0,0.0,0.0,0.0,0.0,0.0,0.0,0.0,0.0,-2.1321,-1.5584,0.0,-2.5093,0.0,-3.6571,-3.826,-3.3046,-3.4678,0.0,0.0,-3.2349,-3.2345,-3.8688,-3.8517,-3.9277,-4.2787,-4.4797,-4.5864,-4.5864,-4.5864,-4.6074,-4.6552,-4.6623,-4.6801,-4.7278,-4.7273,-4.7781,-4.8988,-4.8719,-4.8605,-4.9469,-4.9505,-4.9213,-4.8643,-4.794,-4.7484,-4.7178,-4.604,-4.4779,-4.3686,-4.3893,-4.4299,-4.4334,-4.4854,-4.5829,-4.693,-4.7729,-4.8383,-4.8715,-4.8876,-4.9014,-3.8839,-3.9499,-3.9027,-3.8476,-3.8075,-3.899,-3.9116,-3.8693,-3.9788,-4.018,-4.0054,-4.0201,-3.7984,-3.3938,-3.0161,0.0,-3.6482,-3.6588,-3.954,-4.47,-4.4867,-4.4926,-4.4926,-4.5103,-4.5103,-4.4912,-4.3163,-4.318,-4.4815,-4.3212,-4.1588,-4.0227,-4.0284,-4.0804,-4.1769,-4.3292,-4.6385,-5.1027,-5.1987,-5.2575,-5.2682,-5.2427,-5.189,-5.1069,-4.959,-4.8297,-4.7256,-4.5831,-4.569,-4.6836,-4.2362,-3.9746,-3.9682,0.0,0.0,0.0,0.0,0.0,0.0,0.0,0.0,0.0,0.0,0.0,0.0,0.0,0.0,-2.546,-3.1475,0.0,-3.7542,-3.5902,0.0,0.0,0.0,-2.8453,-3.1303,-3.4629,-3.7695,-4.0281,0.0,0.0,-4.5864,-4.5864,-4.6582,-4.8498,-4.8763,-4.8739,-4.8795,-5.0233,-5.1185,-5.0463,-4.9542,-4.9578,-5.1153,-5.0686,-4.9901,-4.9529,-4.7423,-4.5862,-4.5624,-4.4862,-4.4127,-4.3572,-4.4292,-4.5314,-4.6546,-4.6509,-4.7019,-4.8591,-4.8745,-4.8715,-4.9185,-4.9281,-4.9359,-3.7771,-3.5168,-3.423,-3.4975,-3.6718,-3.6359,-3.785,-4.0463,-4.0814,-3.9531,-3.7348,-3.9069,-3.6626,-3.1098,-3.0209,0.0,0.0,0.0,-3.8074,-4.1763,-4.2502,-4.3704,-4.5201,-4.5252,-4.5252,-4.5226,-4.4404,-4.4482,-4.5226,-4.4404,-3.9523,-3.0952,0.0,0.0,-3.4568,-4.1513,-4.6492,-4.9413,-5.3288,-5.5302,-5.5302,-5.5396,-5.446,-5.2489,-5.0278,-4.8946,-4.8527,-4.7949,-4.6456,-4.3934,-4.1091,-3.7825,0.0,0.0,0.0,0.0,0.0,0.0,0.0,0.0,0.0,0.0,0.0,-1.6859,-1.2289,0.0,0.0,0.0,-2.4114,-2.5481,-2.7222,-3.0308,0.0,0.0,0.0,0.0,0.0,0.0,0.0,-3.5773,-3.997,-4.2807,-4.3661,-4.5316,-4.6654,-4.7153,-4.8256,-4.9081,-4.9447,0.0,-5.1785,-5.1387,-5.1017,-5.1017,-5.1752,-4.9429,-4.8061,-4.9519,-4.7349,-4.5393,-4.4763,-4.4387,-4.4471,-4.5315,-4.5614,-4.5992,-4.6853,-4.7486,-4.8158,-4.8991,-4.912,-4.9143,-4.9304,-4.9474,-4.9625,-3.5327,0.0,0.0,0.0,0.0,-3.3504,-3.5483,-3.9145,-3.9345,-3.776,-3.5085,-3.6744,0.0,0.0,0.0,0.0,0.0,0.0,-3.6425,-3.9726,-4.1764,-4.3703,-4.5471,-4.5498,-4.5498,-4.5445,-4.4828,-4.4111,-4.3322,-4.2126,-3.5957,-2.5289,0.0,0.0,0.0,0.0,-4.5125,-4.8491,-5.3782,-5.6713,-5.7161,-5.7254,-5.6364,-5.4563,-5.1863,-5.0327,-4.9931,-4.8159,-4.5511,-4.1952,-3.7722,0.0,0.0,0.0,0.0,0.0,0.0,0.0,0.0,0.0,0.0,0.0,0.0,0.0,0.0,0.0,0.0,0.0,0.0,0.0,-2.1842,-2.6822,-2.8871,0.0,0.0,0.0,0.0,0.0,0.0,0.0,0.0,0.0,-3.9962,-4.3435,-4.6003,0.0,0.0,-4.9333,-4.9688,-5.0963,-5.1816,-5.1613,-5.1717,0.0,-5.0077,-4.753,-4.6153,-4.7455,-4.6635,-4.4966,-4.2799,-4.3662,-4.4603,-4.4078,-4.5467,-4.6751,-4.7437,-4.6828,-4.6558,-4.8474,-4.7288,-4.6061,-4.658,-4.7655,-4.8335,0.0,0.0,0.0,0.0,0.0,0.0,0.0,0.0,-3.3895,-3.4244,0.0,-3.2884,0.0,0.0,0.0,0.0,-2.6091,-2.973,0.0,0.0,-4.3348,-4.5365,-4.5388,-4.5411,-4.5468,-4.5338,-4.3174,-4.0769,-3.7915,-3.4086,0.0,0.0,0.0,0.0,0.0,0.0,-4.0642,-4.8166,-5.281,-5.5793,-5.7155,-5.7161,-5.7136,-5.6898,-5.448,-5.2563,-5.1229,-4.5352,-4.2062,-4.2183,-3.1565,0.0,0.0,0.0,0.0,0.0,0.0,0.0,0.0,0.0,0.0,0.0,0.0,0.0,0.0,0.0,0.0,0.0,0.0,0.0,0.0,-2.7512,0.0,0.0,0.0,0.0,0.0,0.0,0.0,0.0,0.0,0.0,-3.4626,-3.9887,-4.4495,-4.7149,0.0,0.0,0.0,0.0,-5.1614,-5.0894,-5.1406,-5.0248,-4.5785,-4.5675,-4.5385,-4.3255,0.0,0.0,-3.9242,-4.2531,-4.4111,-3.8647,-4.3215,-4.7903,-4.8859,-4.416,-4.1937,-4.7662,-4.3225,-3.8593,-3.9927,-4.2804,-4.4695,0.0,0.0,0.0,0.0,0.0,0.0,0.0,0.0,0.0,-3.1849,0.0,-3.0656,0.0,0.0,0.0,0.0,0.0,0.0,0.0,0.0,-3.7557,-3.9761,-3.9378,-4.1518,-4.1432,0.0,-3.7565,-3.3996,0.0,0.0,0.0,0.0,0.0,0.0,0.0,0.0,-3.9834,-4.4812,-5.2997,-5.8048,-5.9448,-5.8804,-5.817,-5.7621,-5.6016,-5.2466,-4.6871,-4.5372,-4.2748,0.0,0.0,0.0,0.0,0.0,0.0,0.0,0.0,0.0,0.0,0.0,0.0,0.0,0.0,0.0,0.0,0.0,0.0,0.0,0.0,0.0,0.0,0.0,-2.5637,0.0,0.0,0.0,0.0,0.0,0.0,0.0,0.0,0.0,-3.0799,-3.7035,-4.2071,-4.4073,-4.7415,-4.9631,-4.9665,0.0,0.0,0.0,0.0,0.0,0.0,0.0,-4.1405,-4.2426,-3.9349,-3.6717,-3.6814,-4.0354,-4.2655,-4.0648,0.0,0.0,-4.897,-4.7232,-4.6345,-4.8736,-4.3613,-3.8981,-3.9617,-3.8172,-3.7053,0.0,0.0,0.0,0.0,0.0,0.0,0.0,0.0,0.0,-2.8632,-2.7132,0.0,0.0,0.0,0.0,0.0,0.0,0.0,0.0,0.0,0.0,0.0,-3.6049,-3.8279,0.0,0.0,0.0,0.0,0.0,0.0,0.0,0.0,0.0,0.0,0.0,0.0,-3.912,-4.3038,-5.2682,-5.8547,-5.9989,-5.9286,-5.863,-5.8156,-5.7,-5.3132,-4.6246,0.0,0.0,0.0,0.0,0.0,0.0,0.0,0.0,0.0,0.0,0.0,0.0,0.0,0.0,0.0,0.0,0.0,0.0,0.0,0.0,0.0,0.0,0.0,0.0,0.0,-2.4084,0.0,0.0,0.0,0.0,0.0,0.0,0.0,0.0,0.0,0.0,0.0,-3.7652,-4.0684,-4.4638,-4.7597,-4.8641,-4.876,-4.8847,0.0,0.0,0.0,0.0,0.0,0.0,0.0,0.0,0.0,0.0,0.0,0.0,0.0,0.0,-4.1574,-3.5561,-3.7108,-3.939,-3.9426,0.0,0.0,0.0,0.0,0.0,0.0,0.0,0.0,0.0,0.0,0.0,0.0,0.0,0.0,0.0,-2.4482,0.0,0.0,-2.2593,0.0,0.0,0.0,0.0,0.0,0.0,0.0,0.0,0.0,0.0,0.0,0.0,0.0,0.0,0.0,0.0,0.0,0.0,0.0,0.0,0.0,0.0,-3.8404,-4.2782,-5.1821,-5.7142,-5.8534,-5.8512,-5.8508,-5.8452,-5.7374,-5.4514,-4.9642,0.0,0.0,0.0,0.0,0.0,0.0,0.0,0.0,0.0,0.0,0.0,0.0,0.0,0.0,0.0,0.0,0.0,0.0,0.0,0.0,0.0,0.0,0.0,0.0,0.0,0.0,-2.5018,-2.6051,-2.6565,0.0,0.0,0.0,0.0,0.0,0.0,0.0,0.0,0.0,-3.7332,-4.0701,-4.3725,-4.6841,-4.7156,-4.7377,-4.8067,-4.506,-4.2614,-4.2809,-4.3257,-4.1839,0.0,0.0,0.0,0.0,0.0,0.0,0.0,0.0,0.0,0.0,0.0,0.0,0.0,0.0,0.0,0.0,0.0,0.0,0.0,0.0,0.0,0.0,0.0,0.0,0.0,0.0,0.0,0.0,0.0,0.0,0.0,0.0,0.0,0.0,0.0,0.0,0.0,0.0,0.0,0.0,0.0,0.0,0.0,0.0,0.0,0.0,0.0,0.0,0.0,0.0,0.0,0.0,0.0,0.0,-3.9173,-4.2888,-5.244,-5.8107,-5.9579,-5.9324,-5.8925,-5.8411,-5.7696,-5.4407,0.0,0.0,0.0,0.0,0.0,0.0,0.0,0.0,0.0,0.0,0.0,0.0,0.0,0.0,0.0,0.0,0.0,0.0,0.0,0.0,0.0,0.0,0.0,0.0,0.0,0.0,0.0,0.0,-3.1424,-3.0042,-2.5818,0.0,0.0,0.0,0.0,0.0,0.0,0.0,0.0,0.0,0.0,-4.374,-4.6985,-4.7199,-4.7238,-4.7725,-4.656,-4.5806,-4.6368,-4.4767,-4.2799,-4.0865,0.0,0.0,0.0,0.0,0.0,0.0,0.0,0.0,0.0,0.0,0.0,0.0,0.0,0.0,0.0,0.0,0.0,0.0,0.0,0.0,0.0,0.0,0.0,0.0,0.0,0.0,0.0,0.0,0.0,0.0,0.0,0.0,0.0,0.0,0.0,0.0,0.0,0.0,0.0,0.0,0.0,0.0,0.0,0.0,0.0,0.0,0.0,0.0,0.0,0.0,0.0,0.0,0.0,-3.9753,-4.3173,-5.2766,-5.8218,-5.91,-5.8939,-5.8596,-5.8092,-5.7787,-5.3878,0.0,0.0,0.0,0.0,0.0,0.0,0.0,0.0,0.0,0.0,0.0,0.0,0.0,0.0,0.0,0.0,0.0,0.0,0.0,0.0,0.0,0.0,0.0,0.0,0.0,0.0,0.0,0.0,-2.9991,-2.9427,-2.6446,0.0,0.0,0.0,0.0,0.0,0.0,0.0,0.0,0.0,0.0,-4.2008,-4.5435,-4.6555,0.0,0.0,-4.7647,-4.7663,-4.813,-4.6517,-4.3896,-3.9963,-3.7427,0.0,0.0,0.0,0.0,0.0,0.0,0.0,0.0,0.0,0.0,0.0,0.0,0.0,0.0,0.0,0.0,0.0,0.0,0.0,0.0,0.0,0.0,0.0,0.0,0.0,0.0,0.0,0.0,0.0,0.0,0.0,0.0,0.0,0.0,0.0,0.0,0.0,0.0,0.0,0.0,0.0,0.0,0.0,0.0,0.0,0.0,0.0,0.0,0.0,0.0,0.0,0.0,-4.0262,-4.3605,-5.2921,-5.7875,-5.785,-5.7822,-5.7805,-5.7801,-5.7772,-5.3169,0.0,0.0,0.0,0.0,0.0,0.0,0.0,0.0,0.0,0.0,0.0,0.0,0.0,0.0,0.0,0.0,0.0,0.0,0.0,0.0,0.0,0.0,0.0,0.0,0.0,0.0,0.0,0.0,0.0,0.0,0.0,0.0,0.0,0.0,0.0,0.0,0.0,0.0,0.0,0.0,0.0,-3.933,-4.3011,-4.5596,-4.7341,0.0,-4.8124,-4.8137,-4.7857,-4.7833,-4.4807,-3.5708,0.0,0.0,0.0,0.0,0.0,0.0,0.0,0.0,0.0,0.0,0.0,0.0,0.0,0.0,0.0,0.0,0.0,0.0,0.0,0.0,0.0,0.0,0.0,0.0,0.0,0.0,0.0,0.0,0.0,0.0,0.0,0.0,0.0,0.0,0.0,0.0,0.0,0.0,0.0,0.0,0.0,0.0,0.0,0.0,0.0,0.0,0.0,0.0,0.0,0.0,0.0,0.0,0.0,0.0,-4.4044,-5.3715,-5.8839,-5.9033,-5.8674,-5.8497,-5.8601,-5.8145,0.0,0.0,0.0,0.0,0.0,0.0,0.0,0.0,0.0,0.0,0.0,0.0,0.0,0.0,0.0,0.0,0.0,0.0,0.0,0.0,0.0,0.0,0.0,0.0,0.0,0.0,0.0,-2.0802,0.0,0.0,0.0,0.0,0.0,0.0,0.0,0.0,0.0,0.0,0.0,0.0,0.0,0.0,-4.0732,-4.6415,-4.8052,-4.7731,0.0,0.0,-4.7713,-4.4098,-4.4567,-4.3674,0.0,0.0,0.0,0.0,0.0,0.0,0.0,0.0,0.0,0.0,0.0,0.0,0.0,0.0,0.0,0.0,0.0,0.0,0.0,0.0,0.0,0.0,0.0,0.0,0.0,0.0,0.0,0.0,0.0,0.0,0.0,0.0,0.0,0.0,0.0,0.0,0.0,0.0,0.0,0.0,0.0,0.0,0.0,0.0,0.0,0.0,0.0,0.0,0.0,0.0,0.0,0.0,0.0,0.0,-4.0454,-4.4397,-5.2092,-5.7133,-5.9362,-5.9177,-5.9075,-5.9147,-5.8801,-5.3677,0.0,0.0,0.0,0.0,0.0,0.0,0.0,0.0,0.0,0.0,0.0,0.0,0.0,0.0,0.0,0.0,0.0,0.0,0.0,0.0,0.0,0.0,0.0,0.0,0.0,0.0,0.0,0.0,0.0,0.0,0.0,0.0,0.0,0.0,0.0,0.0,0.0,0.0,0.0,0.0,0.0,0.0,-4.5229,-4.5905,0.0,0.0,0.0,-4.3548,-4.3216,0.0,0.0,0.0,0.0,0.0,0.0,0.0,0.0,0.0,0.0,0.0,0.0,0.0,0.0,0.0,0.0,0.0,0.0,0.0,0.0,0.0,0.0,0.0,0.0,0.0,0.0,0.0,0.0,0.0,0.0,0.0,0.0,0.0,0.0,0.0,0.0,0.0,0.0,0.0,0.0,0.0,0.0,0.0,0.0,0.0,0.0,0.0,0.0,0.0,0.0,0.0,0.0,0.0,0.0,0.0,0.0,0.0,-4.4485,-5.0078,-5.5084,-5.9309,-5.9488,-5.9525,-5.9541,-5.952,-5.4828,0.0,0.0,0.0,0.0,0.0,0.0,0.0,0.0,0.0,0.0,0.0,0.0,0.0,0.0,0.0,0.0,0.0,0.0,0.0,0.0,0.0,0.0,0.0,0.0,0.0,0.0,0.0,0.0,0.0,0.0,0.0,0.0,0.0,0.0,0.0,0.0,0.0,0.0,0.0,0.0,0.0,-4.2949,-4.2196,-4.2093,-4.1813,0.0,0.0,-3.8098,-4.3077,-4.2255,0.0,0.0,0.0,0.0,0.0,0.0,0.0,0.0,0.0,0.0,0.0,0.0,0.0,0.0,0.0,0.0,0.0,0.0,0.0,0.0,0.0,0.0,0.0,0.0,0.0,0.0,0.0,0.0,0.0,0.0,0.0,0.0,0.0,0.0,0.0,0.0,0.0,0.0,0.0,0.0,0.0,0.0,0.0,0.0,0.0,0.0,0.0,0.0,0.0,0.0,0.0,0.0,0.0,0.0,0.0,0.0,-4.4914,-5.3456,-5.8645,-5.9859,-5.975,-5.9709,-5.9937,-5.975,-5.5,0.0,0.0,0.0,0.0,0.0,0.0,0.0,0.0,0.0,0.0,0.0,0.0,0.0,0.0,0.0,0.0,0.0,0.0,0.0,0.0,0.0,0.0,0.0,0.0,0.0,0.0,0.0,0.0,0.0,0.0,0.0,0.0,0.0,0.0,0.0,0.0,0.0,0.0,0.0,0.0,0.0,-4.1216,-4.3618,-4.318,0.0,0.0,0.0,0.0,-3.8547,-3.626,0.0,0.0,0.0,0.0,0.0,0.0,0.0,0.0,0.0,0.0,0.0,0.0,0.0,0.0,0.0,0.0,0.0,0.0,0.0,0.0,0.0,0.0,0.0,0.0,0.0,0.0,0.0,0.0,0.0,0.0,0.0,0.0,0.0,0.0,0.0,0.0,0.0,0.0,0.0,0.0,0.0,0.0,0.0,0.0,0.0,0.0,0.0,0.0,0.0,0.0,0.0,0.0,0.0,0.0,0.0,0.0,-4.822,-5.3367,-5.7344,-5.9948,-5.9942,-5.9941,-6.0024,-5.9942,-5.5195,0.0,0.0,0.0,0.0,0.0,0.0,0.0,0.0,0.0,0.0,0.0,0.0,0.0,0.0,0.0,0.0,0.0,0.0,0.0,0.0,0.0,0.0,0.0,0.0,0.0,0.0,0.0,0.0,0.0,0.0,0.0,0.0,0.0,0.0,0.0,0.0,0.0,0.0,0.0,0.0,-3.9467,-4.0393,-4.2932,0.0,0.0,0.0,0.0,0.0,0.0,-3.4582,-3.265,0.0,0.0,0.0,0.0,0.0,0.0,0.0,0.0,0.0,0.0,0.0,0.0,0.0,0.0,0.0,0.0,0.0,0.0,0.0,0.0,0.0,0.0,0.0,0.0,0.0,0.0,0.0,0.0,0.0,0.0,0.0,0.0,0.0,0.0,0.0,0.0,0.0,0.0,0.0,0.0,0.0,0.0,0.0,0.0,0.0,0.0,0.0,0.0,0.0,0.0,0.0,0.0,0.0,0.0,0.0,-5.078,-5.2087,-5.5102,-5.9948,-6.01,-6.01,-6.01,-6.01,-5.5316,-4.5558,0.0,0.0,0.0,0.0,0.0,0.0,0.0,0.0,0.0,0.0,0.0,0.0,0.0,0.0,0.0,0.0,0.0,0.0,0.0,0.0,0.0,0.0,0.0,0.0,0.0,0.0,0.0,0.0,0.0,0.0,0.0,0.0,0.0,0.0,0.0,0.0,0.0,0.0,0.0,-3.8317,-3.9181,0.0,0.0,0.0,0.0,0.0,0.0,0.0,0.0,-3.2584,0.0,0.0,0.0,0.0,0.0,0.0,0.0,0.0,0.0,0.0,0.0,0.0,0.0,0.0,0.0,0.0,0.0,0.0,0.0,0.0,0.0,0.0,0.0,0.0,0.0,0.0,0.0,0.0,0.0,0.0,0.0,0.0,0.0,0.0,0.0,0.0,0.0,0.0,0.0,0.0,0.0,0.0,0.0,0.0,0.0,0.0,0.0,0.0,0.0,0.0,0.0,0.0,0.0,0.0,0.0,0.0,-5.1513,-5.6252,-5.9872,-6.01,-6.01,-6.01,-6.01,-5.5315,-4.5393,0.0,0.0,0.0,0.0,0.0,0.0,0.0,0.0,0.0,0.0,0.0,0.0,0.0,0.0,0.0,0.0,0.0,0.0,0.0,0.0,0.0,0.0,0.0,0.0,0.0,0.0,0.0,0.0,0.0,0.0,0.0,0.0,0.0,0.0,0.0,0.0,0.0,0.0,-3.0637,-3.3432,0.0,0.0,0.0,0.0,0.0,0.0,0.0,0.0,-3.2566,0.0,0.0,0.0,0.0,0.0,0.0,0.0,0.0,0.0,0.0,0.0,0.0,0.0,0.0,0.0,0.0,0.0,0.0,0.0,0.0,0.0,0.0,0.0,0.0,0.0,0.0,0.0,0.0,0.0,0.0,0.0,0.0,0.0,0.0,0.0,0.0,0.0,0.0,0.0,0.0,0.0,0.0,0.0,0.0,0.0,0.0,0.0,0.0,0.0,0.0,0.0,0.0,0.0,0.0,0.0,0.0,0.0,0.0,-5.5548,-5.991,-6.01,-6.01,-6.0024,-5.8353,-5.3414,0.0,0.0,0.0,0.0,0.0,0.0,0.0,0.0,0.0,0.0,0.0,0.0,0.0,0.0,0.0,0.0,0.0,0.0,0.0,0.0,0.0,0.0,0.0,0.0,0.0,0.0,0.0,0.0,0.0,0.0,0.0,0.0,0.0,0.0,0.0,0.0,0.0,0.0,0.0,0.0,0.0,0.0,0.0,0.0,0.0,0.0,0.0,0.0,0.0,0.0,0.0,0.0,0.0,0.0,0.0,0.0,0.0,0.0,0.0,0.0,0.0,0.0,0.0,0.0,0.0,0.0,0.0,0.0,0.0,0.0,0.0,0.0,0.0,0.0,0.0,0.0,0.0,0.0,0.0,0.0,0.0,0.0,0.0,0.0,0.0,0.0,0.0,0.0,0.0,0.0,0.0,0.0,0.0,0.0,0.0,0.0,0.0,0.0,0.0,0.0,0.0,0.0,0.0,0.0,0.0,0.0,0.0,0.0,-5.4721,-5.991,-6.01,-6.01,-6.0062,-5.6455,-5.1396,0.0,0.0,0.0,0.0,0.0,0.0,0.0,0.0,0.0,0.0,0.0,0.0,0.0,0.0,0.0,0.0,0.0,0.0,0.0,0.0,0.0,0.0,0.0,0.0,0.0,0.0,0.0,0.0,0.0,0.0,0.0,0.0,0.0,0.0,0.0,0.0,0.0,0.0,0.0,0.0,0.0,0.0,0.0,0.0,0.0,0.0,0.0,0.0,-3.1815,0.0,0.0,0.0,0.0,0.0,0.0,0.0,0.0,0.0,0.0,0.0,0.0,0.0,0.0,0.0,0.0,0.0,0.0,0.0,0.0,0.0,0.0,0.0,0.0,0.0,0.0,0.0,0.0,0.0,0.0,0.0,0.0,0.0,0.0,0.0,0.0,0.0,0.0,0.0,0.0,0.0,0.0,0.0,0.0,0.0,0.0,0.0,0.0,0.0,0.0,0.0,0.0,0.0,0.0,0.0,0.0,0.0,0.0,0.0,-5.4683,-5.9948,-6.01,-6.01,-5.9948,-5.5272,-5.0202,0.0,0.0,0.0,0.0,0.0,0.0,0.0,0.0,0.0,0.0,0.0,0.0,0.0,0.0,0.0,0.0,0.0,0.0,0.0,0.0,0.0,0.0,0.0,0.0,0.0,0.0,0.0,0.0,0.0,0.0,0.0,0.0,0.0,0.0,0.0,0.0,0.0,0.0,0.0,0.0,0.0,0.0,0.0,0.0,0.0,0.0,0.0,0.0,0.0,0.0,0.0,0.0,0.0,0.0,0.0,0.0,0.0,0.0,0.0,0.0,0.0,0.0,0.0,0.0,0.0,0.0,0.0,0.0,0.0,0.0,0.0,0.0,0.0,0.0,0.0,0.0,0.0,0.0,0.0,0.0,0.0,0.0,0.0,0.0,0.0,0.0,0.0,0.0,0.0,0.0,0.0,0.0,0.0,0.0,0.0,0.0,0.0,0.0,0.0,0.0,0.0,0.0,0.0,0.0,0.0,0.0,0.0,0.0,-5.083,-5.6986,-5.9075,-5.9606,-5.8619,-5.2726,-4.7578,0.0,0.0,0.0,0.0,0.0,0.0,0.0,0.0,0.0,0.0,0.0,0.0,0.0,0.0,0.0,0.0,0.0,0.0,0.0,0.0,0.0,0.0,0.0,0.0,0.0,0.0,0.0,0.0,0.0,0.0,0.0,0.0,0.0,0.0,0.0,0.0,0.0,0.0,0.0,0.0,0.0,0.0,0.0,0.0,0.0,0.0,0.0,0.0,0.0,0.0,0.0,0.0,0.0,0.0,0.0,0.0,0.0,0.0,0.0,0.0,0.0,0.0,0.0,0.0,0.0,0.0,0.0,0.0,0.0,0.0,0.0,0.0,0.0,0.0,0.0,0.0,0.0,0.0,0.0,0.0,0.0,0.0,0.0,0.0,0.0,0.0,0.0,0.0,0.0,0.0,0.0,0.0,0.0,0.0,0.0,0.0,0.0,0.0,0.0,0.0,0.0,0.0,0.0,0.0,0.0,0.0,0.0,0.0,0.0,-5.4175,-5.7212,-5.7669,-5.5506,-4.9382,-4.4415,0.0,0.0,0.0,0.0,0.0,0.0,0.0,0.0,0.0,0.0,0.0,0.0,0.0,0.0,0.0,0.0,0.0,0.0,0.0,0.0,0.0,0.0,0.0,0.0,0.0,0.0,0.0,0.0,0.0,0.0,0.0,0.0,0.0,0.0,0.0,0.0,0.0,0.0,0.0,0.0,0.0,0.0,0.0,0.0,0.0,0.0,0.0,0.0,0.0,0.0,0.0,0.0,0.0,0.0,0.0,0.0,0.0,0.0,0.0,0.0,0.0,0.0,0.0,0.0,0.0,0.0,0.0,0.0,0.0,0.0,0.0,0.0,0.0,0.0,0.0,0.0,0.0,0.0,0.0,0.0,0.0,0.0,0.0,0.0,0.0,0.0,0.0,0.0,0.0,0.0,0.0,0.0,0.0,0.0,0.0,0.0,0.0,0.0,0.0,0.0,0.0,0.0,0.0,0.0,0.0,0.0,0.0,0.0,0.0,-5.2605,-5.4262,-5.3553,-5.0456,-4.5265,-4.0967,0.0,0.0,0.0,0.0,0.0,0.0,0.0,0.0,0.0,0.0,0.0,0.0,0.0,0.0,0.0,0.0,0.0,0.0,0.0,0.0,0.0,0.0,0.0,0.0,0.0,0.0,0.0,0.0,0.0,0.0,0.0,0.0,0.0,0.0,0.0,0.0,0.0,0.0,0.0,0.0,0.0,0.0,0.0,0.0,0.0,0.0,0.0,0.0,0.0,0.0,0.0,0.0,0.0,0.0,0.0,0.0,0.0,0.0,0.0,0.0,0.0,0.0,0.0,0.0,0.0,0.0,0.0,0.0,0.0,0.0,0.0,0.0,0.0,0.0,0.0,0.0,0.0,0.0,0.0,0.0,0.0,0.0,0.0,0.0,0.0,0.0,0.0,0.0,0.0,0.0,0.0,0.0,0.0,0.0,0.0,0.0,0.0,0.0,0.0,0.0,0.0,0.0,0.0,0.0,0.0,0.0,0.0,0.0,0.0,-4.3188,-4.6624,-4.8507,-4.8406,-4.2354,-3.9064,-3.8796,0.0,0.0,0.0,0.0,0.0,0.0,0.0,0.0,0.0,0.0,0.0,0.0,0.0,0.0,0.0,0.0,0.0,0.0,0.0,0.0,0.0,0.0,0.0,0.0,0.0,0.0,0.0,0.0,0.0,0.0,0.0,0.0,0.0,0.0,0.0,0.0,0.0,0.0,0.0,0.0,0.0,0.0,0.0,0.0,0.0,0.0,0.0,0.0,0.0,0.0,0.0,0.0,0.0,0.0,0.0,0.0,0.0,0.0,0.0,0.0,0.0,0.0,0.0,0.0,0.0,0.0,0.0,0.0,0.0,0.0,0.0,0.0,0.0,0.0,0.0,0.0,0.0,0.0,0.0,0.0,0.0,0.0,0.0,0.0,0.0,0.0,0.0,0.0,0.0,0.0,0.0,0.0,0.0,0.0,0.0,0.0,0.0,0.0,0.0,0.0,0.0,0.0,0.0,0.0,0.0,0.0,0.0,0.0,-3.8147,-4.2555,-4.4976,-4.4989,-4.1069,-3.8245,0.0,0.0,0.0,0.0,0.0,0.0,0.0,0.0,0.0,0.0,0.0,0.0,0.0,0.0,0.0,0.0,0.0,0.0,0.0,0.0,0.0,0.0,0.0,0.0,0.0,0.0,0.0,0.0,0.0,0.0,0.0,0.0,0.0,0.0,0.0,0.0,0.0,0.0,0.0,0.0,0.0,0.0,0.0,0.0,0.0,0.0,0.0,0.0,0.0,0.0,0.0,0.0,0.0,0.0,0.0,0.0,0.0,0.0,0.0,0.0,0.0,0.0,0.0,0.0,0.0,0.0,0.0,0.0,0.0,0.0,0.0,0.0,0.0,0.0,0.0,0.0,0.0,0.0,0.0,0.0,0.0,0.0,0.0,0.0,0.0,0.0,0.0,0.0,0.0,0.0,0.0,0.0,0.0,0.0,0.0,0.0,0.0,0.0,0.0,0.0,0.0,0.0,0.0,0.0,0.0,0.0,0.0,0.0,-3.3006,-3.9475,-4.288,-4.3258,-4.0357,-4.1412,-3.836,0.0,0.0,0.0,0.0,0.0,0.0,0.0,0.0,0.0,0.0,0.0,0.0,0.0,0.0,0.0,0.0,0.0,0.0,0.0,0.0,0.0,0.0,0.0,0.0,0.0,0.0,0.0,0.0,0.0,0.0,0.0,0.0,0.0,0.0,0.0,0.0,0.0,0.0,0.0,0.0,0.0,0.0,0.0,0.0,0.0,0.0,0.0,0.0,0.0,0.0,0.0,0.0,0.0,0.0,0.0,0.0,0.0,0.0,0.0,0.0,0.0,0.0,0.0,0.0,0.0,0.0,0.0,0.0,0.0,0.0,0.0,0.0,0.0,0.0,0.0,0.0,0.0,0.0,0.0,0.0,0.0,0.0,0.0,0.0,0.0,0.0,0.0,0.0,0.0,0.0,0.0,0.0,0.0,0.0,0.0,0.0,0.0,0.0,0.0,0.0,0.0,0.0,0.0,0.0,0.0,0.0,0.0,0.0,0.0,-3.2969,0.0,-3.9811,0.0,-3.9597,-3.6558,0.0,0.0,0.0,0.0,0.0,0.0,0.0,0.0,0.0,0.0,0.0,0.0,0.0,0.0,0.0,0.0,0.0,0.0,0.0,0.0,0.0,0.0,0.0,0.0,0.0,0.0,0.0,0.0,0.0,0.0,0.0,0.0,0.0,0.0,0.0,0.0,0.0,0.0,0.0,0.0,0.0,0.0,0.0,0.0,0.0,0.0,0.0,0.0,0.0,0.0,0.0,0.0,0.0,0.0,0.0,0.0,0.0,0.0,0.0,0.0,0.0,0.0,0.0,0.0,0.0,0.0,0.0,0.0,0.0,0.0,0.0,0.0,0.0,0.0,0.0,0.0,0.0,0.0,0.0,0.0,0.0,0.0,0.0,0.0,0.0,0.0,0.0,0.0,0.0,0.0,0.0,0.0,0.0,0.0,0.0,0.0,0.0,0.0,0.0,0.0,0.0,0.0,0.0,0.0,0.0,0.0,0.0,0.0,0.0,-3.2389,-3.299,-3.7233,-4.4875,-4.0054,-3.7624,0.0,0.0,0.0,0.0,0.0,0.0,0.0,0.0,0.0,0.0,0.0,0.0,0.0,0.0,0.0,0.0,0.0,0.0,0.0,0.0,0.0,0.0,0.0,0.0,0.0,0.0,0.0,0.0,0.0,0.0,0.0,0.0,0.0,0.0,0.0,0.0,0.0,0.0,0.0,0.0,0.0,0.0,0.0,0.0,0.0,0.0,0.0,0.0,0.0,0.0,0.0,0.0,0.0,0.0,0.0,0.0,0.0,0.0,0.0,0.0,0.0,0.0,0.0,0.0,0.0,0.0,0.0,0.0,0.0,0.0,0.0,0.0,0.0,0.0,0.0,0.0,0.0,0.0,0.0,0.0,0.0,0.0,0.0,0.0,0.0,0.0,0.0,0.0,0.0,0.0,0.0,0.0,0.0,0.0,0.0,0.0,0.0,0.0,0.0,0.0,0.0,0.0,0.0,0.0,0.0,0.0,0.0,0.0,0.0,0.0,-3.5738,-3.579,-3.7472,-4.1952,-4.0813,0.0,0.0,0.0,0.0,0.0,0.0,0.0,0.0,0.0,0.0,0.0,0.0,0.0,0.0,0.0,0.0,0.0,0.0,0.0,0.0,0.0,0.0,0.0,0.0,0.0,0.0,0.0,0.0,0.0,0.0,0.0,0.0,0.0,0.0,0.0,0.0,0.0,0.0,0.0,0.0,0.0,0.0,0.0,0.0,0.0,0.0,0.0,0.0,0.0,0.0,0.0,0.0,0.0,0.0,0.0,0.0,0.0,0.0,0.0,0.0,0.0,0.0,0.0,0.0,0.0,0.0,0.0,0.0,0.0,0.0,0.0,0.0,0.0,0.0,0.0,0.0,0.0,0.0,0.0,0.0,0.0,0.0,0.0,0.0,0.0,0.0,0.0,0.0,0.0,0.0,0.0,0.0,0.0,0.0,0.0,0.0,0.0,0.0,0.0,0.0,0.0,0.0,0.0,0.0,0.0,0.0,0.0,0.0,0.0,0.0,-3.6836,0.0,-3.4131,-3.5227,-3.5978,-3.6016,0.0,0.0,0.0,0.0,0.0,0.0,0.0,0.0,0.0,0.0,0.0,0.0,0.0,0.0,0.0,0.0,0.0,0.0,0.0,0.0,0.0,0.0,0.0,0.0,0.0,0.0,0.0,0.0,0.0,0.0,0.0,0.0,0.0,0.0,0.0,0.0,0.0,0.0,0.0,0.0,0.0,0.0,0.0,0.0,0.0,0.0,0.0,0.0,0.0,0.0,0.0,0.0,0.0,0.0,0.0,0.0,0.0,0.0,0.0,0.0,0.0,0.0,0.0,0.0,0.0,0.0,0.0,0.0,0.0,0.0,0.0,0.0,0.0,0.0,0.0,0.0,0.0,0.0,0.0,0.0,0.0,0.0,0.0,0.0,0.0,0.0,0.0,0.0,0.0,0.0,0.0,0.0,0.0,0.0,0.0,0.0,0.0,0.0,0.0,0.0,0.0,0.0,0.0,0.0,0.0,0.0,0.0,0.0,0.0,0.0,-3.6432,-3.3562,-3.3482,-3.4079,0.0,0.0,0.0,0.0,0.0,0.0,0.0,0.0,0.0,0.0,0.0,0.0,0.0,0.0,0.0,0.0,0.0,0.0,0.0,0.0,0.0,0.0,0.0,0.0,0.0,0.0,0.0,0.0,0.0,0.0,0.0,0.0,0.0,0.0,0.0,0.0,0.0,0.0,0.0,0.0,0.0,0.0,0.0,0.0,0.0,0.0,0.0,0.0,0.0,0.0,0.0,0.0,0.0,0.0,0.0,0.0,0.0,0.0,0.0,0.0,0.0,0.0,0.0,0.0,0.0,0.0,0.0,0.0,0.0,0.0,0.0,0.0,0.0,0.0,0.0,0.0,0.0,0.0,0.0,0.0,0.0,0.0,0.0,0.0,0.0,0.0,0.0,0.0,0.0,0.0,0.0,0.0,0.0,0.0,0.0,0.0,0.0,0.0,0.0,0.0,0.0,0.0,0.0,0.0,0.0,0.0,0.0,0.0,0.0,0.0,0.0,-3.4942,-3.4776,-3.489,0.0,-3.2501,0.0,0.0,0.0,0.0,0.0,0.0,0.0,0.0,0.0,0.0,0.0,0.0,0.0,0.0,0.0,0.0,0.0,0.0,0.0,0.0,0.0,0.0,0.0,0.0,0.0,0.0,0.0,0.0,0.0,0.0,0.0,0.0,0.0,0.0,0.0,0.0,0.0,0.0,0.0,0.0,0.0,0.0,0.0,0.0,0.0,0.0,0.0,0.0,0.0,0.0,0.0,0.0,0.0,0.0,0.0,0.0,0.0,0.0,0.0,0.0,0.0,0.0,0.0,0.0,0.0,0.0,0.0,0.0,0.0,0.0,0.0,0.0,0.0,0.0,0.0,0.0,0.0,0.0,0.0,0.0,0.0,0.0,0.0,0.0,0.0,0.0,0.0,0.0,0.0,0.0,0.0,0.0,0.0,0.0,0.0,0.0,0.0,0.0,0.0,0.0,0.0,0.0,0.0,0.0,0.0,0.0,0.0,0.0,0.0,0.0,0.0,0.0,-3.42,-3.3417,-3.0514,0.0,0.0,0.0,0.0,0.0,0.0,0.0,0.0,0.0,0.0,0.0,0.0,0.0,0.0,0.0,0.0,0.0,0.0,0.0,0.0,0.0,0.0,0.0,0.0,0.0,0.0,0.0,0.0,0.0,0.0,0.0,0.0,0.0,0.0,0.0,0.0,0.0,0.0,0.0,0.0,0.0,0.0,0.0,0.0,0.0,0.0,0.0,0.0,0.0,0.0,0.0,0.0,0.0,0.0,0.0,0.0,0.0,0.0,0.0,0.0,0.0,0.0,0.0,0.0,0.0,0.0,0.0,0.0,0.0,0.0,0.0,0.0,0.0,0.0,0.0,0.0,0.0,0.0,0.0,0.0,0.0,0.0,0.0,0.0,0.0,0.0,0.0,0.0,0.0,0.0,0.0,0.0,0.0,0.0,0.0,0.0,0.0,0.0,0.0,0.0,0.0,0.0,0.0,0.0,0.0,0.0,0.0,0.0,0.0,0.0,-3.605,-3.3604,-3.3591,-3.2419,-2.9863,0.0,0.0,0.0,0.0,0.0,0.0,0.0,0.0,0.0,0.0,0.0,0.0,0.0,0.0,0.0,0.0,0.0,0.0,0.0,0.0,0.0,0.0,0.0,0.0,0.0,0.0,0.0,0.0,0.0,0.0,0.0,0.0,0.0,0.0,0.0,0.0,0.0,0.0,0.0,0.0,0.0,0.0,0.0,0.0,0.0,0.0,0.0,0.0,0.0,0.0,0.0,0.0,0.0,0.0,0.0,0.0,0.0,0.0,0.0,0.0,0.0,0.0,0.0,0.0,0.0,0.0,0.0,0.0,0.0,0.0,0.0,0.0,0.0,0.0,0.0,0.0,0.0,0.0,0.0,0.0,0.0,0.0,0.0,0.0,0.0,0.0,0.0,0.0,0.0,0.0,0.0,0.0,0.0,0.0,0.0,0.0,0.0,0.0,0.0,0.0,0.0,0.0,0.0,0.0,0.0,0.0,0.0,0.0,0.0,0.0,0.0,0.0,0.0,0.0,-2.9752,0.0,0.0,0.0,0.0,0.0,0.0,0.0,0.0,0.0,0.0,0.0,0.0,0.0,0.0,0.0,0.0,0.0,0.0,0.0,0.0,0.0,0.0,0.0,0.0,0.0,0.0,0.0,0.0,0.0,0.0,0.0,0.0,0.0,0.0,0.0,0.0,0.0,0.0,0.0,0.0,0.0,0.0,0.0,0.0,0.0,0.0,0.0,0.0,0.0,0.0,0.0,0.0,0.0,0.0,0.0,0.0,0.0,0.0,0.0,0.0,0.0,0.0,0.0,0.0,0.0,0.0,0.0,0.0,0.0,0.0,0.0,0.0,0.0,0.0,0.0,0.0,0.0,0.0,0.0,0.0,0.0,0.0,0.0,0.0,0.0,0.0,0.0,0.0,0.0,0.0,0.0,0.0,0.0,0.0,0.0,0.0,0.0,0.0,0.0,0.0,0.0,0.0,0.0,0.0,0.0,0.0,0.0,0.0,0.0,0.0,0.0,0.0,0.0,0.0,0.0,0.0,0.0,0.0,0.0,0.0,0.0,0.0,0.0,0.0,0.0,0.0,0.0,0.0,0.0,0.0,0.0,0.0,0.0,0.0,0.0,0.0,0.0,0.0,0.0,0.0,0.0,0.0,0.0,0.0,0.0,0.0,0.0,0.0,0.0,0.0,0.0,0.0,0.0,0.0,0.0,0.0,0.0,0.0,0.0,0.0,0.0,0.0,0.0,0.0,0.0,0.0,0.0,0.0,0.0,0.0,0.0,0.0,0.0,0.0,0.0,0.0,0.0,0.0,0.0,0.0,0.0,0.0,0.0,0.0,0.0,0.0,0.0,0.0,0.0,0.0,0.0,0.0,0.0,0.0,0.0,0.0,0.0,0.0,0.0,0.0,0.0,0.0,0.0,0.0,0.0,0.0,0.0,0.0,0.0,0.0,0.0,0.0,0.0,0.0,0.0,0.0,0.0,0.0,0.0,0.0,0.0,0.0,0.0,0.0,0.0,0.0,0.0,0.0,0.0,0.0,0.0,0.0,0.0,0.0,0.0,0.0,0.0,0.0,0.0,0.0,0.0,0.0,0.0,0.0,0.0,0.0,0.0,0.0,0.0,0.0,0.0,0.0,0.0,0.0,0.0,0.0,0.0,0.0,0.0,0.0,0.0,0.0,0.0,0.0,0.0,0.0,0.0,0.0,0.0,0.0,0.0,0.0,0.0,0.0,0.0,0.0,0.0,0.0,0.0,0.0,0.0,0.0,0.0,0.0,0.0,0.0,0.0,0.0,0.0,0.0,0.0,0.0,0.0,0.0,0.0,0.0,0.0,0.0,0.0,0.0,0.0,0.0,0.0,0.0,0.0,0.0,0.0,0.0,0.0,0.0,0.0,0.0,0.0,0.0,0.0,0.0,0.0,0.0,0.0,0.0,0.0,0.0,0.0,0.0,0.0,0.0,0.0,0.0,0.0,0.0,0.0,0.0,0.0,0.0,0.0,0.0,0.0,0.0,0.0,0.0,0.0,0.0,0.0,0.0,0.0,0.0,0.0,0.0,0.0,0.0,0.0,0.0,0.0,0.0,0.0,0.0,0.0,0.0,0.0,0.0,0.0,0.0,0.0,0.0,0.0,0.0,0.0,0.0,0.0,0.0,0.0,0.0,0.0,0.0,0.0,0.0,0.0,0.0,0.0,0.0,0.0,0.0,0.0,0.0,0.0,0.0,0.0,0.0,0.0,0.0,0.0,0.0,0.0,0.0,0.0,0.0,0.0,0.0,0.0,0.0,0.0,0.0,0.0,0.0,0.0,0.0,0.0,0.0,0.0,0.0,0.0,0.0,0.0,0.0,0.0,0.0,0.0,0.0,0.0,0.0,0.0,0.0,0.0,0.0,0.0,0.0,0.0,0.0,0.0,0.0,0.0,0.0,0.0,0.0,0.0,0.0,0.0,0.0,0.0,0.0,0.0,0.0,0.0,0.0,0.0,0.0,0.0,0.0,0.0,0.0,0.0,0.0,0.0,0.0,0.0,0.0,0.0,0.0,0.0,0.0,0.0,0.0,0.0,0.0,0.0,0.0,0.0,0.0,0.0,0.0,0.0,0.0,0.0,0.0,0.0,0.0,0.0,0.0,0.0,0.0,0.0,0.0,0.0,0.0,0.0,0.0,0.0,0.0,0.0,0.0,0.0,0.0,0.0,0.0,0.0,0.0,0.0,0.0,0.0,0.0,0.0,0.0,0.0,0.0,0.0,0.0,0.0,0.0,0.0,0.0,0.0,0.0,0.0,0.0,0.0,0.0,0.0,0.0,0.0,0.0,0.0,0.0,0.0,0.0,0.0,0.0,0.0,0.0,0.0,0.0,0.0,0.0,0.0,0.0,0.0,0.0,0.0,0.0,0.0,0.0,0.0,0.0,0.0,0.0,0.0,0.0,0.0,0.0,0.0,0.0,0.0,0.0,0.0,0.0,0.0,0.0,0.0,0.0,0.0,0.0,0.0,0.0,0.0,0.0,0.0,0.0,0.0,0.0,0.0,0.0,0.0,0.0,0.0,0.0,0.0,0.0,0.0,0.0,0.0,0.0,0.0,0.0,0.0,0.0,0.0,0.0,0.0,0.0,0.0,0.0,0.0,0.0,0.0,0.0,0.0,0.0,0.0,0.0,0.0,0.0,0.0,0.0,0.0,0.0,0.0,0.0,0.0,0.0,0.0,0.0,0.0,0.0,0.0,0.0,0.0,0.0,0.0,0.0,0.0,0.0,0.0,0.0,0.0,0.0,0.0,0.0,0.0,0.0,0.0,0.0,0.0,0.0,0.0,0.0,0.0,0.0,0.0,0.0,0.0,0.0,0.0,0.0,0.0,0.0,0.0,0.0,0.0,0.0,0.0,0.0,0.0,0.0,0.0,0.0,0.0,0.0,0.0,0.0,0.0,0.0,0.0,0.0,0.0,0.0,0.0,0.0,0.0,0.0,0.0,0.0,0.0,0.0,0.0,0.0,0.0,0.0,0.0,0.0,0.0,0.0,0.0,0.0,0.0,0.0,0.0,0.0,0.0,0.0,0.0,0.0,0.0,0.0,0.0,0.0,0.0,0.0,0.0,0.0,0.0,0.0,0.0,0.0,0.0,0.0,0.0,0.0,0.0,0.0,0.0,0.0,0.0,0.0,0.0,0.0,0.0,0.0,0.0,0.0,0.0,0.0,0.0,0.0,0.0,0.0,0.0,0.0,0.0,0.0,0.0,0.0,0.0,0.0,0.0,0.0,0.0,0.0,0.0,0.0,0.0,0.0,0.0,0.0,0.0,0.0,0.0,0.0,0.0,0.0,0.0,0.0,0.0,0.0,0.0,0.0,0.0,0.0,0.0,0.0,0.0,0.0,0.0,0.0,0.0,0.0,0.0,0.0,0.0,0.0,0.0,0.0,0.0,0.0,0.0,0.0,0.0,0.0,0.0,0.0,0.0,0.0,0.0,0.0,0.0,0.0,0.0,0.0,0.0,0.0,0.0,0.0,0.0,0.0,0.0,0.0,0.0,0.0,0.0,0.0,0.0,0.0,0.0,0.0,0.0,0.0,0.0,0.0,0.0,0.0,0.0,0.0,0.0,0.0,0.0,0.0,0.0,0.0,0.0,0.0,0.0,0.0,0.0,0.0,0.0,0.0,0.0,0.0,0.0,0.0,0.0,0.0,0.0,0.0,0.0,0.0,0.0,0.0,0.0,0.0,0.0,0.0,0.0,0.0,0.0,0.0,0.0,0.0,0.0,0.0,0.0,0.0,0.0,0.0,0.0,0.0,0.0,0.0,0.0,0.0,0.0,0.0,0.0,0.0,0.0,0.0,0.0,0.0,0.0,0.0,0.0,0.0,0.0,0.0,0.0,0.0,0.0,0.0,0.0,0.0,0.0,0.0,0.0,0.0,0.0,0.0,0.0,0.0,0.0,0.0,0.0,0.0,0.0,0.0,0.0,0.0,0.0,0.0,0.0,0.0,0.0,0.0,0.0,0.0,0.0,0.0,0.0,0.0,0.0,0.0,0.0,0.0,0.0,0.0,0.0,0.0,0.0,0.0,0.0,0.0,0.0,0.0,0.0,0.0,0.0,0.0,0.0,0.0,0.0,0.0,0.0,0.0,0.0,0.0,0.0,0.0,0.0,0.0,0.0,0.0,0.0,0.0,0.0,0.0,0.0,0.0,0.0,0.0,0.0,0.0,0.0,0.0,0.0,0.0,0.0,0.0,0.0,0.0,0.0,0.0,0.0,0.0,0.0,0.0,0.0,0.0,0.0,0.0,0.0,0.0,0.0,0.0,0.0,0.0,0.0,0.0,0.0,0.0,0.0,0.0,0.0,0.0,0.0,0.0,0.0,0.0,0.0,0.0,0.0,0.0]}],[{"header":{"parameterUnit":"kt","parameterCategory":2,"dx":1,"dy":1,"la1":29.587661999999998,"la2":31.0,"lo1":-88.76705300000003,"lo2":-86.6583820000003,"nx":115,"ny":88,"refTime":"2022-10-14T06:00:00:Z","depth":0,"parameterNumber":2,"parameterNumberName":"V-component_of_WINDS"},"data":[11.0062,11.0062,11.0062,11.0062,11.0062,11.0062,11.0062,11.0062,11.0062,11.0062,11.0214,11.01,11.0062,11.01,11.0062,11.0062,11.0062,11.0062,11.0062,11.0062,11.0062,11.0062,11.0176,11.0366,11.01,11.0366,11.0594,11.0214,11.0974,11.0632,11.0176,11.0366,11.029,11.0214,11.0138,11.0252,11.0518,11.0442,11.0328,11.0328,11.0176,11.0138,11.0062,11.0062,11.0062,11.0062,11.0024,11.0024,10.9986,10.986,10.9692,10.9594,10.9506,10.944,10.939,10.9399,10.939,10.9306,10.9125,10.8918,10.8745,10.8648,10.8533,10.8424,10.8406,10.8387,10.8387,10.8387,10.8368,10.8366,10.8346,10.8326,10.8306,10.8326,10.8326,10.8366,10.8366,10.8405,10.8387,10.8387,10.8387,10.8387,10.8387,10.8387,10.8444,10.8444,10.8426,10.8387,10.8328,10.8306,10.8245,10.8306,10.8346,10.7289,10.5736,10.5437,10.5137,10.4091,10.3006,10.179,10.0407,9.8819,9.9155,10.153,10.0633,9.9417,9.9099,9.8931,9.8763,9.8838,9.8613,9.8352,9.8538,9.8426,9.794,11.0062,11.0062,11.0062,11.0062,11.0062,11.0062,11.0062,11.0062,11.0062,11.0062,11.0062,11.0062,11.0062,11.0062,11.0062,11.0062,11.0062,11.0062,11.0062,11.0062,11.0062,11.0062,11.0062,11.0062,11.0062,11.0062,11.0062,11.0062,11.0062,11.0062,11.0062,11.0062,11.0062,11.0062,11.0062,11.0062,11.0062,11.0062,11.0062,11.0062,11.0024,11.0062,10.9986,10.9986,11.0062,11.0062,11.0024,10.9948,10.9873,10.9683,10.9471,10.9343,10.9248,10.9174,10.9166,10.9143,10.9119,10.898,10.8804,10.8675,10.8533,10.8388,10.8326,10.8282,10.8303,10.8303,10.8303,10.8303,10.8303,10.8282,10.8282,10.8261,10.8261,10.8282,10.8282,10.8282,10.8282,10.8282,10.8303,10.8303,10.8303,10.8303,10.8303,10.8282,10.8282,10.8282,10.8282,10.8261,10.8241,10.8261,10.7701,10.7364,10.7027,10.5606,10.4016,10.3642,10.3567,10.252,10.1436,10.0239,9.9193,9.8781,9.8893,9.9679,9.9566,9.9006,9.8632,9.8146,9.8407,9.8613,9.7996,9.7248,9.7379,9.7043,9.693,11.0062,11.0062,11.0062,11.0062,11.0062,11.0062,11.0062,11.0062,11.0062,11.0062,11.0062,11.0062,11.0062,11.0062,11.0062,11.0062,11.0062,11.0062,11.0062,11.0062,11.0062,11.0062,11.0062,11.0062,11.0062,11.0062,11.0062,11.0062,11.0062,11.0062,11.0062,11.0062,11.0062,11.0062,11.0062,11.0062,11.0062,11.0024,11.0062,10.9948,10.9797,10.9645,10.9607,10.9518,10.9493,10.9493,10.9518,10.9658,10.9575,10.9416,10.9288,10.9185,10.8967,10.885,10.8766,10.8766,10.8713,10.8636,10.848,10.8407,10.835,10.8346,10.8241,10.8241,10.8241,10.8241,10.8241,10.8241,10.8241,10.8241,10.8241,10.8241,10.8241,10.8241,10.8241,10.8241,10.8241,10.8241,10.8241,10.8241,10.8241,10.8203,10.7942,10.7942,10.7904,10.7904,10.8166,10.8203,10.8224,10.8282,10.6953,10.6055,10.5195,10.3904,10.2483,10.1959,10.1847,10.095,9.9903,9.923,9.8931,9.8669,9.852,9.8856,9.8893,9.837,9.7809,9.7286,9.7398,9.7547,9.6912,9.6127,9.5603,9.5229,9.3847,11.0062,11.0062,11.0062,11.0062,11.0062,11.0062,11.0062,11.0062,11.0062,11.0062,11.0062,11.0062,11.0062,11.0062,11.0062,11.0062,11.0062,11.0062,11.0062,11.0024,11.0024,11.0062,11.0062,11.0062,11.0062,11.0062,11.0062,11.0062,11.0062,11.0062,11.0062,11.0062,11.0062,11.0062,11.0062,11.0062,11.0024,10.9986,10.9873,10.9683,10.9564,10.9372,10.9265,10.921,10.9079,10.9098,10.9212,10.9334,10.9217,10.9128,10.9091,10.8902,10.8594,10.8426,10.8303,10.8261,10.8326,10.8346,10.8286,10.8306,10.8286,10.8261,10.8241,10.8241,10.8241,10.8241,10.8241,10.8241,10.8241,10.8241,10.8241,10.8241,10.8241,10.8241,10.8241,10.8241,10.8241,10.8241,10.8241,10.8241,10.8241,10.8016,10.7642,10.753,10.7493,10.7343,10.7269,10.7194,10.6915,10.6205,10.4671,10.3829,10.3044,10.2221,10.1025,10.0314,10.0165,9.9417,9.9118,9.8893,9.8594,9.852,9.852,9.852,9.8127,9.7323,9.6688,9.6164,9.5902,9.6089,9.5603,9.4893,9.4332,9.2857,9.0787,11.0062,11.0062,11.0062,11.0062,11.0062,11.0062,11.0024,11.0062,10.9986,11.0024,11.0024,11.0024,10.9986,11.0062,11.0024,11.0024,10.9986,10.9986,11.0024,10.9986,11.0024,11.0062,11.0062,11.0024,10.9948,11.0024,10.9986,10.9873,10.9986,10.9948,10.991,11.0062,10.9986,10.991,10.991,10.991,10.9873,10.98,10.9576,10.9334,10.9258,10.9276,10.9265,10.9185,10.9023,10.8909,10.9071,10.9011,10.8878,10.8758,10.8707,10.8636,10.8426,10.8261,10.8261,10.8241,10.8241,10.8241,10.8241,10.8241,10.8241,10.8241,10.8241,10.8241,10.8241,10.8241,10.8241,10.8241,10.8241,10.8241,10.8241,10.8241,10.8241,10.8241,10.8241,10.8241,10.8241,10.8241,10.7979,10.7306,10.7194,10.6633,10.6296,10.6072,10.5923,10.4614,10.4315,10.439,10.3978,10.3213,10.2184,10.1436,10.0763,10.0015,9.9267,9.9267,9.8856,9.8707,9.8669,9.8538,9.8389,9.8426,9.8538,9.809,9.7566,9.6594,9.5192,9.4407,9.3958,9.3958,9.3547,9.3285,9.2148,9.0401,8.837,11.0062,11.0062,11.0062,11.0062,11.0062,11.0024,10.9904,10.979,10.9606,10.9664,10.979,10.9756,10.9873,10.9986,10.9986,10.9904,10.9803,10.986,10.9899,10.9858,10.9948,10.9986,10.9948,10.9873,10.9803,10.9721,10.9645,10.9606,10.9531,10.9531,10.9583,10.9626,10.9569,10.9531,10.9539,10.9583,10.9539,10.9394,10.92,10.8931,10.879,10.8729,10.8702,10.8602,10.8565,10.8527,10.8619,10.8565,10.8513,10.8445,10.8445,10.8348,10.8306,10.8241,10.8241,10.8241,10.8241,10.8241,10.8241,10.8241,10.8241,10.8241,10.8241,10.8241,10.8241,10.8241,10.8241,10.8241,10.8241,10.8241,10.8241,10.8241,10.8241,10.8203,10.8203,10.8203,10.8129,10.8129,10.7493,10.6596,10.5885,10.5287,10.4801,10.4539,10.4016,10.3231,10.2819,10.2745,10.2221,10.1286,10.0389,9.9978,9.9118,9.852,9.8594,9.8707,9.8501,9.8352,9.809,9.7791,9.8183,9.7884,9.6949,9.6725,9.6537,9.5061,9.3228,9.2463,9.1827,9.0855,9.0406,8.9517,8.8275,8.6733,8.4982,10.9939,10.9899,10.9808,10.9813,10.9861,10.9835,10.9725,10.9506,10.9363,10.9316,10.9506,10.9506,10.9594,10.9797,10.98,10.9674,10.9664,10.9669,10.9659,10.9654,10.9664,10.9745,10.9734,10.96,10.9564,10.9463,10.9399,10.9335,10.9248,10.9296,10.9296,10.9255,10.9345,10.9326,10.9217,10.9069,10.8993,10.8871,10.8729,10.8582,10.8498,10.8464,10.8368,10.8346,10.8328,10.8328,10.8366,10.8346,10.8326,10.8303,10.8261,10.8261,10.8241,10.8241,10.8241,10.8241,10.8241,10.8241,10.8241,10.8241,10.8241,10.8241,10.8241,10.8241,10.8241,10.8241,10.8241,10.8241,10.8241,10.8241,10.8241,10.8091,10.7942,10.7605,10.7194,10.6783,10.596,10.6222,10.6932,10.5997,10.4838,10.4165,10.2949,10.2707,10.252,10.2146,10.1847,10.1623,10.1062,9.9922,9.9137,9.9006,9.852,9.852,9.852,9.7525,9.7715,9.766,9.6837,9.637,9.6201,9.5697,9.5191,9.4293,9.2986,9.1884,9.1154,9.0743,9.0257,8.9098,8.7971,8.6152,8.4219,8.2317,8.0526,10.9621,10.96,10.9352,10.9402,10.9583,10.9369,10.9268,10.9238,10.9217,10.9217,10.9238,10.9238,10.9297,10.9326,10.9326,10.9278,10.9278,10.9297,10.9288,10.9278,10.9352,10.9372,10.9363,10.9278,10.9248,10.9238,10.9189,10.9057,10.9223,10.9119,10.9093,10.9151,10.9107,10.9069,10.8913,10.8697,10.8482,10.85,10.8387,10.8387,10.8368,10.8303,10.8261,10.8241,10.8241,10.8241,10.8241,10.8241,10.8241,10.8241,10.8241,10.8241,10.8241,10.8241,10.8241,10.8241,10.8241,10.8241,10.8241,10.8241,10.8241,10.8241,10.8241,10.8241,10.8241,10.8241,10.8241,10.8241,10.7867,10.8016,10.7829,10.7456,10.7119,10.667,10.6072,10.5025,10.4053,10.4539,10.5437,10.4689,10.3492,10.267,10.1473,10.0912,10.0726,10.0254,9.9755,9.966,9.9147,9.808,9.7947,9.7819,9.7588,9.7991,9.7356,9.6057,9.5891,9.5747,9.506,9.4326,9.3549,9.3045,9.1846,9.0593,8.9369,8.9178,8.9534,8.929,8.8619,8.7803,8.6759,8.4754,8.166,7.9342,7.8028,10.9399,10.939,10.9268,10.9326,10.9316,10.8981,10.8861,10.8819,10.8718,10.8713,10.8833,10.8875,10.8968,10.9212,10.9244,10.9163,10.8902,10.9067,10.9185,10.8864,10.9079,10.9163,10.9117,10.9019,10.8902,10.879,10.8744,10.8657,10.8669,10.8619,10.8636,10.8669,10.8606,10.8686,10.8568,10.8482,10.8241,10.8241,10.8241,10.8241,10.8241,10.8241,10.8241,10.8241,10.8241,10.8241,10.8241,10.8241,10.8241,10.8241,10.8241,10.8241,10.8241,10.8241,10.8241,10.8241,10.8241,10.8241,10.8241,10.8241,10.8016,10.8016,10.8241,10.8241,10.8241,10.7942,10.7979,10.768,10.7156,10.6895,10.6371,10.5063,10.4801,10.4651,10.3829,10.2445,10.1847,10.3081,10.3791,10.1922,10.0651,10.0352,9.9753,9.9416,9.8938,9.8266,9.7624,9.7388,9.7065,9.6719,9.6582,9.5711,9.5245,9.5045,9.4485,9.391,9.379,9.3732,9.3094,9.2357,9.1589,9.0649,8.859,8.6814,8.7501,8.7968,8.812,8.7557,8.6516,8.569,8.4734,8.2281,7.9316,7.76,7.6264,10.9031,10.9031,10.8953,10.8899,10.8871,10.8648,10.8551,10.8498,10.8368,10.8368,10.8478,10.8551,10.8713,10.8865,10.8842,10.8775,10.8582,10.888,10.8842,10.8565,10.8722,10.8922,10.8865,10.8669,10.8568,10.8462,10.8388,10.8323,10.8241,10.8326,10.8303,10.8241,10.8366,10.8241,10.8241,10.8241,10.8241,10.8241,10.8241,10.8241,10.8241,10.8241,10.8241,10.8241,10.8241,10.8241,10.8241,10.8241,10.8241,10.8241,10.8241,10.8241,10.8241,10.8241,10.8241,10.8241,10.8241,10.8241,10.8241,10.7642,10.7418,10.7007,10.6708,10.6483,10.7007,10.6895,10.667,10.6184,10.5474,10.5212,10.5063,10.3866,10.2969,10.2782,10.2184,10.0763,10.0165,10.1399,10.181,10.0053,9.8769,9.8611,9.8372,9.8084,9.7223,9.6452,9.5861,9.5505,9.464,9.4513,9.4446,9.3412,9.2781,9.224,9.175,9.148,9.1295,9.1168,9.0682,9.0078,8.9417,8.8669,8.7025,8.5755,8.6267,8.6818,8.6672,8.6284,8.4855,8.2994,8.1445,7.9287,7.7475,7.6121,7.5049,10.8653,10.8627,10.8388,10.8303,10.8326,10.8261,10.8282,10.8286,10.8299,10.8319,10.8286,10.8286,10.8326,10.8346,10.8445,10.8406,10.8366,10.8366,10.8346,10.8346,10.8426,10.8346,10.8363,10.8366,10.8348,10.8282,10.8261,10.8241,10.8241,10.8241,10.8241,10.8241,10.8241,10.8241,10.8241,10.8241,10.8241,10.8241,10.8241,10.8241,10.8241,10.8241,10.8241,10.8241,10.8241,10.8241,10.8241,10.8241,10.8241,10.8241,10.8241,10.8241,10.8241,10.8241,10.8241,10.8241,10.8241,10.8241,10.8091,10.667,10.5661,10.4988,10.4801,10.4502,10.4614,10.439,10.4053,10.4577,10.3679,10.3418,10.3305,10.3006,10.1959,10.1361,10.0987,10.0127,9.9305,9.9641,9.9866,9.9043,9.808,9.7385,9.7118,9.6597,9.56,9.4549,9.4045,9.3165,9.2121,9.1805,9.1742,9.1093,9.0736,9.0117,8.9396,8.9076,8.8825,8.8511,8.8092,8.7438,8.6789,8.6237,8.567,8.4983,8.4684,8.4467,8.4648,8.4872,8.2402,8.0058,7.8388,7.7302,7.6044,7.4955,7.4599,10.8406,10.8387,10.8323,10.8241,10.8241,10.8241,10.8241,10.8241,10.8241,10.8241,10.8241,10.8241,10.8241,10.8241,10.8241,10.8241,10.8241,10.8241,10.8241,10.8241,10.8241,10.8241,10.8241,10.8241,10.8241,10.8241,10.8241,10.8241,10.8241,10.8241,10.8241,10.8241,10.8241,10.8241,10.8241,10.8241,10.8241,10.8241,10.8241,10.8241,10.8241,10.8241,10.8241,10.8241,10.8241,10.8241,10.8241,10.8241,10.8241,10.8241,10.8241,10.8241,10.8241,10.8241,10.8241,10.8241,10.8241,10.8241,10.753,10.5923,10.3791,10.3193,10.2931,10.2931,10.3081,10.3231,10.2894,10.3044,10.2164,10.1603,10.1566,10.0912,9.9978,9.9976,9.9603,9.9355,9.8628,9.8131,9.8229,9.8097,9.7549,9.6797,9.6394,9.5558,9.4011,9.2095,9.1484,9.0625,8.9719,8.9388,8.9223,8.8897,8.8613,8.7875,8.707,8.6888,8.6706,8.6396,8.5982,8.5191,8.4351,8.3733,8.3168,8.2638,8.2322,8.2141,8.1994,8.1788,7.9767,7.7284,7.636,7.5502,7.4313,7.3249,7.3207,10.8241,10.8241,10.8241,10.8241,10.8241,10.8241,10.8241,10.8241,10.8241,10.8241,10.8241,10.8241,10.8241,10.8241,10.8241,10.8241,10.8241,10.8241,10.8241,10.8241,10.8241,10.8241,10.8241,10.8241,10.8241,10.8241,10.8241,10.8241,10.8241,10.8241,10.8241,10.8241,10.8241,10.8241,10.8241,10.8241,10.8241,10.8241,10.8241,10.8241,10.8241,10.8241,10.8241,10.8241,10.8241,10.8241,10.8203,10.8241,10.8241,10.8241,10.8241,10.7792,10.7381,10.7269,10.6857,10.6222,10.6072,10.6072,10.5623,10.3941,10.2258,10.166,10.1399,10.1212,10.0651,10.1062,10.1436,10.1324,10.0464,10.0015,9.9958,9.9173,9.8406,9.8425,9.8384,9.8259,9.7845,9.7479,9.7311,9.6785,9.6372,9.564,9.4893,9.4124,9.1749,8.9649,8.8902,8.8118,8.7537,8.7101,8.6806,8.6548,8.644,8.5876,8.5697,8.5166,8.4567,8.427,8.3936,8.3092,8.2244,8.1577,8.0906,8.0272,7.9823,7.9352,7.8978,7.8747,7.7459,7.5311,7.4128,7.3635,7.2607,7.1402,7.0289,10.8241,10.8241,10.8241,10.8241,10.8241,10.8241,10.8241,10.8241,10.8241,10.8241,10.8241,10.8241,10.8241,10.8241,10.8241,10.8241,10.8241,10.8241,10.8241,10.8241,10.8241,10.8241,10.8241,10.8241,10.8241,10.8241,10.8241,10.8241,10.8203,10.7755,10.7493,10.7867,10.7082,10.7605,10.7568,10.7044,10.7156,10.7156,10.7194,10.7343,10.7381,10.7456,10.7493,10.7568,10.7755,10.7904,10.7867,10.7493,10.7343,10.7306,10.7194,10.6783,10.5923,10.5736,10.5212,10.4539,10.424,10.3791,10.3044,10.1623,10.0781,10.0332,9.9791,9.9155,9.9137,9.8838,9.8688,9.9006,9.8999,9.8645,9.8591,9.8386,9.8011,9.7845,9.7525,9.7149,9.6575,9.6287,9.5814,9.5418,9.4515,9.3269,9.2436,9.0594,8.8255,8.7723,8.7014,8.6586,8.5872,8.5694,8.5192,8.4871,8.4731,8.4588,8.4409,8.3765,8.3117,8.2649,8.2288,8.1394,8.0143,7.954,7.888,7.8249,7.7701,7.6723,7.6014,7.6121,7.5463,7.3294,7.2173,7.2137,7.1395,6.9892,6.813,10.8241,10.8241,10.8241,10.8241,10.8241,10.8241,10.8203,10.8203,10.8166,10.8203,10.8241,10.8241,10.8241,10.8241,10.8166,10.8016,10.8129,10.8241,10.8241,10.8241,10.8241,10.8091,10.7867,10.8016,10.8054,10.8241,10.7792,10.7829,10.7269,10.6184,10.4988,10.4614,10.51,10.4913,10.4764,10.4913,10.5025,10.5025,10.4988,10.495,10.4913,10.4838,10.4838,10.4764,10.4651,10.4651,10.4614,10.4764,10.4801,10.4838,10.495,10.4838,10.4203,10.4016,10.3642,10.3193,10.2894,10.2184,10.0576,9.9753,9.923,9.9006,9.8613,9.8406,9.8425,9.852,9.852,9.8329,9.8011,9.772,9.7571,9.7142,9.7007,9.6784,9.6505,9.5726,9.5005,9.4421,9.3893,9.3074,9.1888,9.0753,8.9233,8.7219,8.6263,8.5836,8.5444,8.5052,8.4909,8.4873,8.455,8.43,8.4157,8.3946,8.3375,8.2483,8.1698,8.1124,8.0699,7.9736,7.8059,7.7106,7.7101,7.6596,7.5913,7.5419,7.5389,7.4492,7.3493,7.2064,7.0909,7.0775,6.9778,6.831,6.6671,10.6596,10.7156,10.6446,10.6558,10.7119,10.6446,10.6147,10.6296,10.6895,10.6857,10.6446,10.7493,10.7829,10.7231,10.7269,10.6895,10.6259,10.6035,10.611,10.5997,10.5997,10.6072,10.6259,10.6147,10.6147,10.5923,10.6147,10.6409,10.5736,10.4277,10.3418,10.353,10.3492,10.3268,10.3754,10.3492,10.338,10.3305,10.3343,10.338,10.3418,10.3455,10.3455,10.3455,10.3492,10.3567,10.3567,10.3418,10.3418,10.3418,10.3418,10.3156,10.252,10.2296,10.194,10.1529,10.1342,10.0482,9.8874,9.8669,9.8421,9.8172,9.8011,9.7888,9.7571,9.7442,9.7442,9.7511,9.7118,9.6943,9.6752,9.6421,9.5953,9.5271,9.4747,9.3828,9.2777,9.2309,9.1596,9.0432,8.926,8.8164,8.6824,8.5728,8.5335,8.5123,8.4909,8.4588,8.4481,8.4481,8.43,8.3765,8.3232,8.2947,8.1983,8.1163,8.0342,7.9343,7.8951,7.8171,7.6225,7.5512,7.5853,7.5597,7.4668,7.4633,7.5003,7.3363,7.0556,6.9919,6.9624,6.8333,6.7051,6.5767,6.4882,10.4277,10.5511,10.4091,10.4277,10.5324,10.4165,10.3492,10.3754,10.51,10.4764,10.4016,10.6184,10.6708,10.5885,10.5661,10.4801,10.3978,10.3866,10.3978,10.4053,10.3978,10.3978,10.3604,10.3418,10.3978,10.4091,10.3866,10.3268,10.2707,10.267,10.2558,10.2445,10.2258,10.267,10.2146,10.2072,10.2857,10.2745,10.2707,10.2632,10.2595,10.252,10.252,10.2558,10.252,10.2408,10.2221,10.2184,10.2333,10.2445,10.2632,10.2034,10.0968,10.0594,9.9734,9.8775,9.827,9.8307,9.8168,9.8011,9.7801,9.7348,9.7252,9.6881,9.6699,9.6476,9.6365,9.6117,9.5748,9.5528,9.506,9.5099,9.4587,9.3528,9.2556,9.1571,9.036,8.9771,8.9155,8.8072,8.7313,8.6077,8.5371,8.4943,8.4516,8.4516,8.4481,8.4338,8.4231,8.4409,8.4372,8.2554,8.1662,8.1127,8.0271,7.97,7.8773,7.7524,7.7203,7.6846,7.5639,7.489,7.5027,7.443,7.3617,7.3241,7.1229,6.9193,6.7503,6.6637,6.6641,6.5662,6.4473,6.3613,6.2879,10.3604,10.3904,10.3567,10.3604,10.3829,10.353,10.3343,10.3455,10.3754,10.3642,10.3492,10.4128,10.4352,10.4016,10.3866,10.3717,10.3492,10.3268,10.3156,10.3081,10.3081,10.3305,10.3343,10.3418,10.3081,10.2782,10.2931,10.2072,10.0426,9.994,9.9679,9.9903,9.9641,9.9492,9.9753,10.0053,9.9529,9.9529,9.9529,9.9529,9.9529,9.9529,9.9548,9.9511,9.9492,9.9603,9.9748,9.9805,9.9807,9.9807,9.9677,9.951,9.9118,9.9006,9.8266,9.7005,9.6699,9.6699,9.6752,9.6778,9.6841,9.6476,9.6485,9.6302,9.6032,9.5494,9.5353,9.453,9.3828,9.3085,9.2157,9.1211,9.0699,9.0275,9.003,8.9397,8.8216,8.7468,8.6977,8.63,8.5407,8.4943,8.4907,8.4516,8.4302,8.4267,8.3946,8.3803,8.284,8.3339,8.2376,8.0771,7.9914,7.9343,7.8437,7.7733,7.6923,7.5811,7.5471,7.5326,7.4734,7.3968,7.3552,7.309,7.194,6.8943,6.6136,6.384,6.4417,6.463,6.3989,6.3548,6.3378,6.268,6.1837,10.1473,10.2072,10.1361,10.1473,10.1997,10.1399,10.1062,10.1137,10.1885,10.1772,10.166,10.267,10.3006,10.2333,10.2164,10.1698,10.1174,10.1062,10.1062,10.1062,10.1062,10.1062,10.095,10.0987,10.1062,10.108,10.1062,9.9978,9.8688,9.8501,9.8707,9.852,9.852,9.852,9.852,9.8481,9.8632,9.8632,9.8651,9.8651,9.8632,9.8632,9.8344,9.8027,9.7713,9.7442,9.7502,9.7698,9.7989,9.7989,9.7952,9.7989,9.7904,9.7645,9.7044,9.6458,9.6292,9.6255,9.6227,9.6199,9.5925,9.5623,9.487,9.4464,9.3971,9.3364,9.23,9.1721,9.1087,9.0665,8.9871,8.961,8.8869,8.8334,8.8119,8.737,8.6265,8.5871,8.5444,8.5014,8.4728,8.4657,8.4516,8.4195,8.4088,8.3803,8.3446,8.2483,8.1202,8.0485,7.9415,7.8487,7.8309,7.7306,7.5832,7.5452,7.4898,7.415,7.3703,7.3666,7.3172,7.2092,7.1632,7.0377,6.764,6.4626,6.2521,6.2162,6.2718,6.3189,6.2653,6.2275,6.2174,6.2003,6.1333,9.9305,10.037,9.908,9.9267,10.0202,9.9155,9.8744,9.88,10.0053,9.9716,9.908,10.1324,10.1585,10.0818,10.0482,9.9828,9.9193,9.9118,9.8987,9.8931,9.895,9.8987,9.908,9.9193,9.872,9.8307,9.8292,9.8462,9.8267,9.825,9.8011,9.8212,9.8131,9.8011,9.7989,9.8131,9.791,9.7845,9.7888,9.7888,9.791,9.7888,9.7638,9.7191,9.6752,9.6485,9.6513,9.6855,9.7167,9.7191,9.7167,9.7118,9.6756,9.5832,9.5304,9.4949,9.4628,9.4166,9.4233,9.4645,9.459,9.4029,9.2862,9.185,9.1222,9.026,9.0111,8.9543,8.9294,8.8725,8.8512,8.7976,8.762,8.6978,8.6407,8.6015,8.5052,8.4731,8.4659,8.4621,8.455,8.4479,8.3946,8.3553,8.2911,8.2233,8.1948,8.1127,7.9704,7.8345,7.7208,7.6923,7.678,7.5354,7.3758,7.3766,7.3253,7.2592,7.1967,7.1933,7.0339,6.968,6.7948,6.5478,6.2835,6.1792,6.15,6.1027,6.1385,6.1996,6.1531,6.0974,6.1205,6.1394,6.0767,9.8725,9.8893,9.8651,9.8688,9.8856,9.8613,9.8425,9.8501,9.8781,9.8703,9.8744,9.8931,9.9452,9.9024,9.8967,9.8856,9.8538,9.8481,9.8386,9.8425,9.8481,9.8501,9.8386,9.825,9.7823,9.6673,9.6752,9.7069,9.7276,9.6994,9.7118,9.7372,9.6994,9.6892,9.6699,9.662,9.6778,9.683,9.683,9.6804,9.6778,9.6752,9.6673,9.6366,9.6122,9.5999,9.6028,9.6227,9.6394,9.6431,9.6431,9.6056,9.5135,9.3637,9.226,9.233,9.1425,9.1167,9.1164,9.078,9.071,9.0185,8.9829,8.9724,8.9618,8.9119,8.8762,8.8512,8.787,8.6835,8.5444,8.5658,8.5444,8.5087,8.4945,8.48,8.4586,8.4516,8.4445,8.4409,8.4157,8.3446,8.2982,8.2519,8.152,8.0667,8.0382,7.9669,7.813,7.681,7.6077,7.5655,7.5858,7.4876,7.356,7.3185,7.1889,7.108,7.012,6.8711,6.6512,6.6096,6.5195,6.1858,6.0705,6.0829,6.0776,6.0366,6.0366,6.0743,6.0558,5.999,6.0146,6.0634,6.0586,9.7324,9.73,9.7324,9.7324,9.7324,9.7324,9.7324,9.7324,9.7324,9.7337,9.7372,9.7801,9.791,9.791,9.791,9.791,9.7845,9.7548,9.7525,9.7968,9.8366,9.829,9.8011,9.7479,9.7044,9.6431,9.6171,9.6403,9.662,9.6485,9.6339,9.6673,9.6421,9.6041,9.6199,9.6255,9.6032,9.6069,9.6199,9.6199,9.6199,9.6199,9.6085,9.5672,9.5209,9.4949,9.5044,9.5296,9.5544,9.5088,9.3645,9.2258,9.1714,9.0938,9.0403,9.0296,8.9511,8.9261,8.919,8.9226,8.9119,8.9297,8.8369,8.8155,8.7906,8.7157,8.6835,8.655,8.6122,8.5444,8.4659,8.4516,8.4516,8.4516,8.4552,8.4552,8.4516,8.4516,8.4302,8.3482,8.3202,8.2414,8.1594,8.1127,8.0136,7.863,7.8274,7.7848,7.6315,7.5653,7.4947,7.4578,7.4866,7.4286,7.3011,7.1811,7.045,6.9339,6.8215,6.6029,6.3958,6.3171,6.2624,6.1711,6.0612,6.0629,6.0482,5.9905,5.9714,5.9793,5.9563,5.9007,5.8844,5.912,5.933,9.6199,9.6199,9.6199,9.6199,9.6199,9.6199,9.6227,9.6292,9.6255,9.6376,9.6403,9.6855,9.7118,9.7179,9.7142,9.7142,9.7069,9.6673,9.654,9.7191,9.7823,9.7571,9.6881,9.6311,9.5882,9.5611,9.5672,9.5793,9.5852,9.5733,9.5763,9.5742,9.5338,9.5338,9.5283,9.4755,9.4821,9.5119,9.4688,9.4373,9.427,9.4239,9.3993,9.3551,9.3047,9.2831,9.3048,9.3472,9.3774,9.3099,9.118,8.9793,8.9581,8.9047,8.8762,8.8619,8.8405,8.8048,8.812,8.7941,8.8155,8.7799,8.6942,8.6373,8.63,8.5337,8.4766,8.4552,8.4516,8.4659,8.4516,8.4516,8.4516,8.4516,8.4516,8.434,8.3744,8.3285,8.2228,8.1379,8.1059,8.0696,7.9009,7.8693,7.808,7.6775,7.6073,7.5751,7.516,7.4537,7.3963,7.3459,7.3218,7.2096,7.0961,7.0004,6.8665,6.7397,6.5939,6.4009,6.227,6.1225,6.1488,6.1098,6.0553,6.0591,6.0591,5.9983,5.8555,5.8596,5.8513,5.8105,5.7808,5.7688,5.7931,9.6199,9.6199,9.6199,9.6199,9.6142,9.6199,9.6056,9.6171,9.6056,9.6085,9.6114,9.6292,9.6376,9.6311,9.6339,9.6339,9.6311,9.6056,9.6199,9.6155,9.6357,9.5841,9.5015,9.4625,9.434,9.3976,9.4051,9.433,9.4409,9.4189,9.4438,9.4265,9.2929,9.2869,9.3295,9.1576,9.0937,9.1756,9.1319,9.085,9.0814,9.078,9.0818,9.0543,9.0332,9.0225,9.0153,9.0117,8.9972,8.9902,8.9511,8.8905,8.8833,8.7727,8.7228,8.6978,8.6158,8.5442,8.5194,8.5514,8.523,8.5373,8.5159,8.4836,8.4909,8.4802,8.4516,8.4516,8.4516,8.4516,8.4516,8.4516,8.4516,8.4481,8.4305,8.3289,8.1528,7.9836,7.8603,7.7731,7.8321,7.7478,7.6286,7.5625,7.559,7.4507,7.3986,7.3776,7.3567,7.287,7.237,7.2086,7.1139,6.9947,6.9034,6.8271,6.6871,6.5512,6.4056,6.2997,6.1269,6.0613,6.0624,6.0482,6.0217,6.0217,5.9911,5.8803,5.768,5.7248,5.6911,5.6867,5.6867,5.6409,5.6685,9.4852,9.4852,9.4852,9.4852,9.4888,9.4888,9.4888,9.4888,9.4852,9.4888,9.4985,9.5301,9.555,9.555,9.5514,9.555,9.5494,9.5047,9.4637,9.4402,9.504,9.3985,9.2169,9.168,9.1543,9.1188,9.1188,9.1439,9.1648,9.1367,9.1367,9.1541,9.0653,9.0546,9.1188,8.9761,8.9618,8.9939,8.9618,8.9226,8.9226,8.9226,8.919,8.919,8.9226,8.9226,8.919,8.919,8.8262,8.6871,8.6514,8.6479,8.6443,8.5836,8.5551,8.548,8.4978,8.4516,8.4516,8.4516,8.4516,8.4516,8.4516,8.4516,8.4516,8.4516,8.4516,8.4516,8.4516,8.4516,8.4516,8.4516,8.4516,8.4233,8.2367,8.0259,7.8793,7.7843,7.6994,7.6114,7.5843,7.5395,7.3648,7.3626,7.3245,7.2575,7.2145,7.211,7.193,7.1044,7.0383,7.0165,6.947,6.8209,6.7185,6.6482,6.5314,6.4162,6.2937,6.2477,6.1314,6.0624,6.0624,6.0503,6.0055,5.929,5.7489,5.6063,5.5714,5.5622,5.5205,5.4988,5.4945,5.4634,5.5458,9.3935,9.3935,9.3935,9.3935,9.3935,9.3935,9.3685,9.3293,9.3294,9.3047,9.2762,9.3255,9.3307,9.3488,9.3416,9.3524,9.3243,9.2834,9.2295,9.2051,9.3055,9.1499,8.9188,8.9012,8.9368,8.9368,8.9511,8.9226,8.9226,8.9475,8.944,8.9226,8.8976,8.8798,8.8905,8.8369,8.8191,8.8512,8.8262,8.787,8.7834,8.7834,8.7977,8.7977,8.7906,8.787,8.7977,8.7977,8.6764,8.4728,8.4516,8.4516,8.4731,8.4659,8.4659,8.4659,8.4586,8.4516,8.4516,8.4516,8.4516,8.4516,8.4516,8.4516,8.4516,8.4516,8.4516,8.4516,8.4516,8.4516,8.4514,8.4124,8.391,8.3489,8.054,7.7709,7.6288,7.5598,7.4791,7.3599,7.3443,7.2853,7.1948,7.1753,7.1799,7.1463,7.1239,7.1133,7.0379,6.9507,6.8893,6.8552,6.7562,6.6344,6.5364,6.4706,6.3884,6.274,6.2037,6.1571,6.1039,6.0426,6.044,6.0071,5.9001,5.7205,5.5314,5.4337,5.4126,5.4222,5.4078,5.4193,5.3864,5.3475,5.4292,9.3899,9.3935,9.3899,9.3757,9.365,9.365,9.2792,9.1794,9.1651,9.0938,8.9904,9.0081,8.9902,8.976,9.0187,9.0151,8.9689,8.9868,8.9796,8.9509,8.9436,8.883,8.7335,8.8155,8.8619,8.8762,8.8833,8.894,8.8655,8.8691,8.9226,8.8691,8.762,8.7656,8.812,8.6193,8.5765,8.6693,8.5694,8.5123,8.5123,8.5016,8.5016,8.5087,8.5159,8.5194,8.5266,8.5266,8.4978,8.4588,8.4516,8.4516,8.4516,8.4516,8.4516,8.4516,8.4516,8.4516,8.4516,8.4516,8.4516,8.4516,8.4516,8.4516,8.4344,8.4134,8.3957,8.3925,8.3852,8.4025,8.3707,8.289,8.2107,8.1827,7.8635,7.5798,7.3596,7.2128,7.1357,7.0357,7.0375,7.0645,6.9922,7.0381,7.0231,6.9782,6.943,6.886,6.8204,6.7591,6.7398,6.6508,6.5287,6.4213,6.3457,6.2865,6.2602,6.161,6.0988,6.072,6.0387,6.0071,5.9976,5.8701,5.7375,5.5253,5.3767,5.3865,5.3767,5.3473,5.3424,5.3572,5.3357,5.2909,5.2715,9.3291,9.2435,9.24,9.1865,9.0974,9.0974,9.0617,9.0189,9.0082,8.9797,8.9297,8.919,8.9226,8.9226,8.9226,8.9226,8.9226,8.9226,8.8155,8.6549,8.6334,8.6015,8.5658,8.6086,8.6265,8.63,8.63,8.6265,8.6265,8.6265,8.6265,8.6265,8.5729,8.5801,8.6049,8.5123,8.4731,8.523,8.4838,8.4516,8.4516,8.4516,8.4516,8.4516,8.4516,8.4516,8.4516,8.4516,8.4516,8.4516,8.4516,8.4516,8.4516,8.4516,8.4516,8.4516,8.4516,8.4481,8.4516,8.4305,8.4516,8.4516,8.4516,8.4278,8.3542,8.2552,8.1772,8.1123,8.0526,7.9789,7.9826,7.9194,7.8494,7.7584,7.4904,7.2767,7.1811,7.0508,6.9633,6.9471,6.9557,6.9557,6.9331,6.9576,6.9226,6.8198,6.7863,6.7337,6.5989,6.4772,6.4352,6.376,6.3062,6.247,6.1654,6.1424,6.1227,6.0544,5.9905,5.9675,5.9363,5.904,5.8076,5.6735,5.6003,5.3952,5.3601,5.3601,5.3473,5.3078,5.2879,5.1972,5.0726,5.0754,4.979,9.183,9.0866,9.0867,9.0189,8.9297,8.9226,8.8905,8.8548,8.8512,8.8227,8.7799,8.7763,8.7727,8.7727,8.7763,8.7727,8.7763,8.7692,8.6621,8.4873,8.4588,8.4588,8.4588,8.4552,8.4516,8.4516,8.4516,8.4552,8.4588,8.4588,8.4516,8.4516,8.4588,8.4516,8.4693,8.4516,8.4516,8.4516,8.4516,8.4516,8.4516,8.4516,8.4516,8.4516,8.4516,8.4516,8.4516,8.4516,8.4516,8.4516,8.4516,8.4516,8.4443,8.4088,8.3839,8.3803,8.3411,8.2988,8.2682,8.2543,8.2335,8.2163,8.2093,8.1807,8.1116,8.0098,7.924,7.8526,7.761,7.6994,7.6891,7.6542,7.5342,7.3203,7.1386,7.0383,7.0258,6.9642,6.9287,6.9233,6.9233,6.897,6.8685,6.852,6.7948,6.6712,6.6383,6.5857,6.437,6.2549,6.1257,6.1813,6.1287,6.0892,6.0958,6.0991,6.0244,5.9249,5.8679,5.8388,5.7915,5.7366,5.5867,5.4682,5.4214,5.3601,5.3552,5.3453,5.3305,5.3057,5.1643,4.9949,4.8146,4.6951,4.6067,8.9333,8.9226,8.9261,8.9083,8.8833,8.8762,8.8227,8.7014,8.6907,8.6229,8.523,8.4838,8.5121,8.4836,8.5123,8.4802,8.498,8.5085,8.4838,8.4586,8.4516,8.4516,8.4516,8.4516,8.4516,8.4516,8.4516,8.4516,8.4516,8.4516,8.4516,8.4516,8.4516,8.4516,8.4516,8.4516,8.4516,8.4516,8.4516,8.4516,8.4516,8.4516,8.4516,8.4516,8.4516,8.4516,8.4516,8.4516,8.4516,8.4516,8.4445,8.4481,8.4195,8.2952,8.2165,8.1921,8.0816,7.957,7.8746,7.8711,7.8563,7.8047,7.7428,7.7781,7.7619,7.7201,7.6878,7.6609,7.6442,7.649,7.6137,7.5166,7.3129,7.0026,6.9646,6.9417,6.9374,6.9244,6.92,6.9036,6.8773,6.8477,6.7534,6.7074,6.6365,6.5166,6.4698,6.4133,6.2385,6.1004,6.0497,6.0544,6.055,6.0218,6.0387,6.0405,5.908,5.7967,5.7551,5.7161,5.6704,5.5866,5.4439,5.4038,5.3669,5.3621,5.3552,5.2348,5.2348,5.0899,5.0051,4.8538,4.6207,4.3965,4.2809,8.8619,8.7727,8.762,8.7049,8.612,8.6085,8.5765,8.5373,8.5301,8.5085,8.4588,8.4516,8.4516,8.4516,8.4516,8.4516,8.4516,8.4516,8.4516,8.4516,8.4516,8.4516,8.4516,8.4516,8.4516,8.4516,8.4516,8.4516,8.4516,8.4516,8.4516,8.4516,8.4516,8.4516,8.4516,8.4516,8.4516,8.4516,8.4516,8.4516,8.4516,8.4516,8.4516,8.4516,8.4516,8.4516,8.4516,8.4516,8.4516,8.4374,8.3518,8.2982,8.2807,8.0812,7.9621,7.9482,7.8499,7.7748,7.7453,7.7416,7.7231,7.6998,7.696,7.6609,7.5823,7.4891,7.4041,7.3187,7.2405,7.1703,7.1603,7.1335,7.049,6.9593,6.9233,6.9233,6.9233,6.92,6.8674,6.7863,6.7041,6.6284,6.5726,6.5627,6.4541,6.2573,6.2263,6.1305,5.9521,5.8523,5.8245,5.8421,5.952,5.9643,5.8599,5.8231,5.7292,5.6942,5.6588,5.617,5.5622,5.4593,5.3787,5.3718,5.3621,5.3621,5.285,5.1401,4.9691,4.779,4.704,4.6456,4.3974,4.1483,4.0719,8.6978,8.6051,8.6051,8.548,8.4586,8.4516,8.4516,8.4516,8.4516,8.4516,8.4516,8.4516,8.4516,8.4516,8.4175,8.4001,8.4001,8.4001,8.421,8.4516,8.4516,8.4516,8.4516,8.4516,8.4381,8.4071,8.4001,8.379,8.3398,8.3397,8.3397,8.336,8.336,8.336,8.3361,8.336,8.3612,8.3966,8.4001,8.421,8.4483,8.4516,8.3606,8.1987,8.181,8.1846,8.181,8.181,8.1846,8.1846,8.0893,8.0363,8.0188,7.8779,7.7614,7.6983,7.5949,7.511,7.4801,7.4757,7.4604,7.4246,7.4165,7.3688,7.3077,7.2229,7.144,7.0758,6.9737,6.9266,6.9233,6.9233,6.92,6.9134,6.874,6.8389,6.8346,6.7918,6.7337,6.6416,6.5561,6.4436,6.3862,6.3477,6.2476,6.0221,5.9616,5.8968,5.751,5.6871,5.6933,5.7329,5.8131,5.8225,5.6123,5.5912,5.5867,5.5668,5.5484,5.4954,5.4813,5.3903,5.3342,5.3222,5.3575,5.3547,5.2864,5.1233,4.8298,4.6451,4.517,4.4162,4.1702,4.0411,3.9263,8.4519,8.452,8.4552,8.4588,8.4516,8.4449,8.4483,8.4516,8.4516,8.4516,8.4516,8.4516,8.4483,8.4209,8.311,8.2809,8.2774,8.2704,8.3078,8.3711,8.3993,8.4203,8.4235,8.4202,8.3577,8.2358,8.2285,8.1904,8.103,8.1052,8.1067,8.1011,8.103,8.1011,8.0996,8.1002,8.16,8.2316,8.2426,8.3007,8.3854,8.3991,8.1669,7.7896,7.714,7.7355,7.7248,7.714,7.7175,7.714,7.7075,7.6967,7.6967,7.6757,7.5956,7.4563,7.3075,7.1761,7.1036,7.0942,7.0607,6.9679,6.9877,6.9419,6.978,6.9681,6.9561,6.9266,6.897,6.8707,6.8707,6.8477,6.8641,6.8608,6.7698,6.6998,6.6858,6.5705,6.4953,6.4517,6.423,6.3204,6.1125,6.088,5.9679,5.7997,5.7167,5.7004,5.6646,5.6218,5.616,5.6447,5.6253,5.544,5.4056,5.4174,5.4029,5.3932,5.4078,5.3493,5.3545,5.3424,5.3028,5.2825,5.2483,5.2267,5.2275,5.0618,4.7576,4.527,4.397,4.2322,4.0401,3.9174,3.7511,8.3431,8.354,8.4279,8.4516,8.4483,8.3754,8.3861,8.4519,8.4516,8.4516,8.4516,8.4516,8.3719,8.2137,8.0743,8.0174,8.0179,8.0174,7.978,7.9176,8.0154,8.005,7.9111,7.9076,7.8889,7.8662,7.8693,7.8504,7.8201,7.8123,7.8197,7.8162,7.8123,7.8162,7.8162,7.8128,7.8319,7.8585,7.8624,7.8776,7.9002,7.9076,7.8397,7.714,7.6994,7.6994,7.6994,7.6994,7.6994,7.696,7.5887,7.5297,7.5228,7.4191,7.3061,7.1879,7.0705,6.9915,6.9652,6.9642,6.9514,6.9244,6.9233,6.9233,6.9233,6.9233,6.9233,6.897,6.7261,6.6219,6.612,6.612,6.6078,6.612,6.5824,6.5121,6.4386,6.3998,6.2859,6.1151,6.1079,6.0148,5.8677,5.8233,5.7809,5.6261,5.5851,5.5622,5.4783,5.4534,5.4397,5.4546,5.4486,5.4075,5.3787,5.3522,5.3621,5.3473,5.26,5.2117,5.21,5.0386,4.9423,4.9233,4.9205,4.9016,4.8449,4.8639,4.6998,4.4286,4.1585,3.9344,3.8583,3.6702,3.4893,8.2307,8.2311,8.2921,8.3215,8.3142,8.2578,8.2654,8.3179,8.3215,8.3215,8.3075,8.195,8.0506,7.8738,7.7918,7.7515,7.7515,7.7515,7.7313,7.7093,7.7817,7.7817,7.7029,7.6994,7.6687,7.633,7.6256,7.6048,7.5704,7.5621,7.5587,7.5621,7.5621,7.5621,7.5621,7.5621,7.5836,7.6216,7.6256,7.5434,7.405,7.3799,7.3765,7.3799,7.3765,7.3799,7.3799,7.3799,7.3799,7.3731,7.2905,7.2431,7.2431,7.1545,7.0753,7.0166,6.9557,6.9233,6.9233,6.9233,6.9233,6.9233,6.9233,6.9233,6.92,6.8608,6.806,6.7393,6.5914,6.4904,6.4928,6.4458,6.4249,6.4067,6.3211,6.2215,6.1275,6.0888,6.0374,5.9192,5.8653,5.8089,5.7335,5.6765,5.5943,5.4954,5.47,5.4462,5.3865,5.3621,5.3621,5.3621,5.3621,5.3621,5.3601,5.3227,5.2829,5.2499,5.1607,5.0672,5.0409,4.8963,4.719,4.536,4.6167,4.6142,4.501,4.5656,4.5634,4.384,4.0722,3.7596,3.6262,3.412,3.1317,8.1073,8.1073,8.1314,8.1232,8.1114,8.1073,8.1094,8.1114,8.1073,8.0915,8.02,7.781,7.615,7.5174,7.4987,7.4886,7.4886,7.4886,7.5297,7.5976,7.6412,7.6373,7.602,7.6128,7.5685,7.471,7.4516,7.4001,7.3233,7.3195,7.3235,7.3242,7.3255,7.3248,7.3235,7.3235,7.3681,7.4608,7.4684,7.2888,6.9452,6.9233,6.9233,6.9233,6.9276,6.9233,6.9539,6.9233,6.9276,6.9233,6.9353,6.9276,6.932,6.9276,6.9178,6.9013,6.9013,6.8904,6.8773,6.8773,6.874,6.8937,6.874,6.8674,6.8816,6.7501,6.6054,6.5068,6.464,6.4271,6.4428,6.337,6.2623,6.2451,6.0646,5.8734,5.8076,5.7304,5.7174,5.7862,5.711,5.681,5.656,5.5806,5.4812,5.3942,5.3865,5.3767,5.3621,5.3621,5.3572,5.3148,5.3148,5.3049,5.285,5.2095,5.148,5.1194,5.0145,4.9369,4.8963,4.8191,4.7029,4.5151,4.5127,4.5185,4.4698,4.3853,4.3082,4.1643,3.9337,3.6527,3.3481,3.1006,2.7948,7.9878,8.0,8.0863,8.0736,7.9911,7.9911,7.9763,7.9599,7.9564,7.8035,7.5548,7.4714,7.4314,7.3943,7.2819,7.24,7.2355,7.2367,7.1902,7.1155,7.2196,7.2096,7.1055,7.0922,7.0827,7.0569,7.0525,7.0461,7.023,7.0186,7.0186,7.0219,7.0186,7.0219,7.0186,7.0186,7.0285,7.0525,7.0559,7.0131,6.9233,6.9233,6.92,6.9233,6.92,6.9233,6.9233,6.9233,6.9233,6.9233,6.9233,6.9233,6.9233,6.9233,6.8718,6.7665,6.7567,6.7074,6.6054,6.589,6.6252,6.6975,6.635,6.6252,6.6745,6.5035,6.3595,6.3234,6.2267,6.1642,6.148,6.059,5.9887,5.9772,5.8523,5.6851,5.5172,5.5391,5.5576,5.4783,5.4575,5.448,5.4385,5.4174,5.3932,5.3689,5.3621,5.3621,5.3621,5.3621,5.26,5.1166,5.0329,5.0377,5.0329,5.001,4.9851,4.9879,4.8638,4.7842,4.7475,4.651,4.5384,4.5151,4.4893,4.4796,4.464,4.2757,4.0407,3.8577,3.6424,3.3702,3.0998,2.8399,2.4789,7.7814,7.7807,7.7804,7.7412,7.6815,7.6848,7.6754,7.6559,7.5926,7.4121,7.1722,7.1599,7.1631,7.1533,7.0789,7.0427,7.046,7.046,7.0,6.9266,7.0098,7.0033,6.9233,6.9233,6.9233,6.9233,6.9233,6.9233,6.9233,6.9233,6.9233,6.9233,6.9233,6.9233,6.9233,6.9233,6.9233,6.92,6.8553,6.8181,6.8257,6.8257,6.8224,6.8224,6.8871,6.9233,6.9233,6.9233,6.9233,6.9233,6.8576,6.8224,6.8224,6.759,6.69,6.6153,6.6087,6.5758,6.4969,6.4904,6.4608,6.3884,6.4476,6.464,6.3924,6.2608,6.1591,6.1018,6.032,5.9635,5.908,5.7978,5.7335,5.7261,5.6274,5.5018,5.3962,5.43,5.4348,5.3767,5.3621,5.3621,5.3621,5.3621,5.3504,5.2796,5.2691,5.232,5.1732,5.0804,4.9541,4.8277,4.832,4.8321,4.7916,4.7765,4.7602,4.7575,4.6425,4.576,4.6035,4.5154,4.457,4.4772,4.4016,4.3919,4.482,4.1517,3.8079,3.5655,3.3348,3.1517,2.9719,2.698,2.3084,7.5524,7.5392,7.4208,7.3669,7.3669,7.3669,7.3669,7.3518,7.1952,7.0427,6.9233,6.9233,6.9233,6.9233,6.9233,6.9233,6.9233,6.9233,6.9233,6.9233,6.9233,6.9233,6.9233,6.9233,6.9233,6.9233,6.9233,6.9233,6.9233,6.9233,6.9233,6.92,6.9036,6.8948,6.8948,6.8948,6.8859,6.8649,6.7486,6.6833,6.68,6.68,6.6669,6.6386,6.7976,6.8784,6.8435,6.8696,6.8664,6.815,6.6703,6.5914,6.5929,6.4657,6.4246,6.4575,6.464,6.4542,6.4312,6.4345,6.326,6.1057,6.2898,6.3194,6.0498,6.0006,5.9559,5.8803,5.8456,5.7946,5.698,5.5665,5.4941,5.503,5.3923,5.3155,5.3232,5.3164,5.3028,5.3126,5.3154,5.29,5.2562,5.2559,5.2018,5.1108,5.0447,5.0246,4.8926,4.6958,4.5631,4.5631,4.6249,4.6355,4.5546,4.5158,4.5035,4.4975,4.3987,4.3608,4.4457,4.3902,4.3447,4.381,4.2301,4.2034,4.3236,3.9584,3.5397,3.301,3.025,2.8499,2.8179,2.5566,2.2147,7.4044,7.4044,7.3814,7.3669,7.3669,7.3669,7.3669,7.3518,7.0789,0.0,0.0,6.9233,6.9233,6.9233,6.9233,6.9233,6.9233,6.9233,6.9233,6.9233,6.9233,6.9233,6.9233,6.9233,6.9233,6.9233,6.9233,6.9233,6.9233,6.9233,6.9233,6.9112,6.8135,6.7645,6.7645,6.7613,6.7101,6.6066,6.5749,6.5623,6.5591,6.5591,6.4618,6.2475,6.5773,6.6564,6.4558,6.6396,6.6065,6.3088,6.1067,6.0229,6.0622,6.0021,6.0728,6.297,6.3201,6.2635,6.1484,6.1385,6.1155,6.0695,6.1122,6.0498,5.8397,5.6946,5.6519,5.7371,5.6487,5.5756,5.5557,5.3568,5.2617,5.3629,5.1797,5.078,5.1408,5.0942,5.0791,5.1343,5.078,4.9995,4.9245,4.8924,4.8253,4.7368,4.7269,4.687,4.6336,4.4328,4.2608,4.2633,4.2965,4.2899,4.2592,4.2498,4.2434,4.2513,4.2212,4.2286,4.2912,4.2977,4.2019,3.9926,3.9292,3.9024,3.9062,3.5039,3.0961,2.9525,2.6555,2.4082,2.3887,2.1888,1.9445,7.2564,7.2499,7.1697,7.1401,0.0,7.1446,7.1369,7.127,6.9824,6.9233,6.9233,6.9233,6.9233,6.9233,6.9233,6.9233,6.9233,6.9233,6.9233,6.9156,6.8527,6.8225,6.818,6.7553,6.7553,6.818,6.7553,6.7599,6.8135,6.7553,6.7227,6.7227,6.6628,6.596,6.5376,6.5929,6.5969,6.5328,6.4576,6.4234,6.4234,6.4234,6.363,6.2465,6.4869,0.0,0.0,0.0,0.0,0.0,0.0,0.0,0.0,5.6997,0.0,5.6127,5.3261,5.1195,5.0475,5.0247,5.1745,5.5441,5.3967,5.2425,5.1727,5.3244,5.346,5.1702,5.2687,5.3097,5.2524,5.137,5.0912,5.1401,5.0505,4.9936,5.0239,4.9505,4.9047,4.9353,4.8488,4.7621,4.7113,4.6938,4.6399,4.5324,4.5022,4.4757,4.3901,4.1814,4.0172,4.012,4.0587,4.0754,4.0291,4.0563,4.0843,4.0122,3.9936,3.9526,3.8606,3.8588,3.7659,3.4949,3.4693,3.4114,3.2265,3.054,2.8408,2.6081,2.4178,2.2531,2.0167,1.8365,1.6589,7.0866,7.0953,6.9737,6.9233,6.9134,6.8391,6.8172,6.8378,6.8378,6.8378,6.8378,6.8411,6.8378,6.8378,6.8378,6.8292,6.8085,6.8042,6.7954,6.7701,6.6657,6.6131,6.6084,6.5086,6.5166,6.6069,6.5086,6.5135,6.6131,6.5086,6.4581,6.4581,6.4582,6.4049,6.3058,0.0,0.0,0.0,6.3211,6.2804,6.2804,6.2804,6.2436,6.1829,6.3603,0.0,6.204,6.2324,6.178,6.007,5.9378,0.0,0.0,0.0,0.0,0.0,0.0,0.0,0.0,0.0,0.0,0.0,4.5892,4.4861,4.6589,4.9348,4.906,4.4525,4.812,5.0095,4.835,4.8625,4.9122,4.9309,4.918,4.9061,4.9066,4.7998,4.7175,4.694,4.5954,4.5221,4.4953,4.4995,4.445,4.3173,4.298,4.2477,4.1434,3.9802,3.8508,3.8208,3.9161,3.9434,3.8254,3.8598,3.8441,3.7733,3.729,3.6161,3.4114,3.3662,3.2587,2.9741,2.9913,2.9358,2.6048,2.6261,2.6293,2.3444,2.25,2.0971,1.7022,1.5277,1.4064,6.8323,6.9463,6.9266,6.9233,6.8959,6.5389,6.4557,6.5454,6.5495,6.5495,6.5495,6.5495,6.5462,6.5454,6.5421,6.493,6.3975,6.3963,6.337,6.2463,6.2247,6.2154,6.2154,6.2014,6.2014,6.2154,6.1968,6.2014,6.2154,6.2014,6.1921,6.1936,6.19,6.1843,6.1611,6.0597,5.9571,5.8572,6.0515,6.1517,6.1432,6.1517,5.9904,5.6919,6.0056,6.0258,5.687,5.8649,5.8229,5.4831,5.2873,5.2164,5.2676,5.1453,4.9384,0.0,4.5466,0.0,0.0,0.0,0.0,0.0,0.0,0.0,0.0,4.5945,4.1481,3.708,4.3777,4.6622,4.2669,4.4789,4.6824,4.7885,4.7057,4.6407,4.6503,4.5369,4.4204,4.3075,4.2685,4.2136,4.1408,4.1056,4.0519,3.9678,3.9503,3.9326,3.8905,3.8633,3.8009,3.6763,3.7825,3.8169,3.6884,3.5786,3.5104,3.4759,3.4274,3.295,3.0867,3.0313,2.9313,2.6612,2.6075,2.5912,2.5285,2.4259,2.3444,2.2371,2.0674,1.8164,1.4541,1.3164,1.2252,6.4315,6.4891,6.4891,6.4456,6.3668,6.1925,6.183,6.2991,6.2959,6.3341,6.3921,6.3254,6.3373,6.3921,6.3286,6.3079,6.3123,6.2471,6.1928,6.139,6.0638,6.0351,6.0333,5.9614,5.9633,6.0303,5.9664,5.9633,6.0255,5.9584,5.9267,5.9247,5.9298,5.6884,5.249,5.4622,5.5563,5.5088,5.6178,5.7017,5.763,5.7839,5.7378,5.6412,5.8233,5.8101,5.5675,5.6645,5.6125,5.3804,5.3387,5.3378,5.3522,4.7624,4.428,0.0,0.0,0.0,0.0,0.0,0.0,0.0,0.0,0.0,0.0,0.0,3.3617,3.4869,4.0856,4.2434,3.6966,3.9344,4.1493,4.2027,3.9945,3.9962,4.3559,4.1231,3.9835,4.1066,4.0541,3.9852,3.9404,3.9327,3.9022,3.8558,3.8485,3.7741,3.6109,3.732,3.7705,3.5598,3.6194,3.658,3.5388,3.4595,3.3835,3.2684,3.2082,3.0788,2.7815,2.7516,2.716,2.5466,2.4395,2.4112,2.4839,2.3355,2.1281,1.9622,1.7314,1.4789,1.2199,1.1021,0.984,6.0234,6.0344,5.8524,5.7521,5.7148,5.7459,5.8512,5.9956,6.0253,6.0922,6.1663,6.0818,6.0199,5.9764,5.7715,5.7756,5.9446,5.8502,5.8648,5.9542,5.8568,5.8108,5.801,5.7074,5.7176,5.793,5.6457,5.6507,5.795,5.6457,5.5295,5.4584,5.3935,5.0531,4.4734,4.8794,5.1556,5.2661,5.2931,5.3525,5.4357,5.4581,5.495,5.5587,5.6184,5.5978,5.4714,5.4961,5.4497,5.3206,5.3015,5.2696,5.1977,4.2825,0.0,0.0,0.0,0.0,0.0,0.0,0.0,0.0,0.0,2.6506,2.2412,0.0,2.7625,0.0,3.7623,3.8679,3.3849,3.5598,0.0,0.0,3.3941,3.3788,3.852,3.6792,3.6149,3.861,3.8685,3.8485,3.8485,3.8485,3.8234,3.7529,3.7502,3.6482,3.3879,3.53,3.5761,3.4222,3.4671,3.483,3.3524,3.347,3.2883,3.0766,3.0029,2.8743,2.5616,2.5324,2.54,2.5095,2.3708,2.2693,2.2956,2.1575,1.8925,1.5646,1.3573,1.1839,1.0022,0.8783,0.7489,5.6643,5.7203,5.0064,4.8371,5.0412,5.1624,5.347,5.5775,5.6956,5.7516,5.7603,5.7547,5.4881,5.0197,4.5461,0.0,4.8855,4.8775,5.0723,5.4225,5.4186,5.4137,5.4137,5.399,5.399,5.4001,5.1554,5.1688,5.3884,5.1612,4.8909,4.6072,4.3675,4.2718,4.3159,4.4538,4.7408,5.1362,5.2442,5.3035,5.3143,5.3234,5.2804,5.1855,5.3063,5.3171,5.1911,5.3072,5.3143,5.1676,4.7987,4.4826,4.2368,0.0,0.0,0.0,0.0,0.0,0.0,0.0,0.0,0.0,0.0,0.0,0.0,0.0,0.0,2.7907,3.3095,0.0,3.5393,3.5668,0.0,0.0,0.0,2.9787,3.0163,3.2505,3.4165,3.4328,0.0,0.0,3.8485,3.8485,3.7553,3.4914,3.4542,3.4445,3.4167,3.2156,3.106,3.2149,3.3416,3.3362,3.104,3.1366,3.1333,2.9393,2.7656,2.6412,2.529,2.4231,2.3835,2.4527,2.2873,2.0591,1.8159,1.7621,1.5618,1.0606,1.025,1.0022,0.7625,0.6707,0.5787,4.7913,4.3139,3.9464,3.9619,4.2332,4.229,4.5108,4.9746,4.8965,4.9035,4.9676,4.8139,4.533,4.155,4.0271,0.0,0.0,0.0,4.3416,4.618,4.6894,4.7904,4.9005,4.9061,4.9061,4.9033,4.8036,4.8015,4.9033,4.8036,4.2569,3.3119,0.0,0.0,3.1057,3.5691,3.9272,4.1462,4.3927,4.5184,4.5184,4.6793,4.8395,4.9702,5.0608,5.0796,5.0251,5.0749,4.96,4.65,4.4065,4.0829,0.0,0.0,0.0,0.0,0.0,0.0,0.0,0.0,0.0,0.0,0.0,1.9098,1.8134,0.0,0.0,0.0,2.1617,2.2248,2.2842,2.6992,0.0,0.0,0.0,0.0,0.0,0.0,0.0,2.8456,3.1228,3.3145,3.3654,3.4615,3.4286,3.173,3.3011,3.3418,3.1199,0.0,3.0125,3.0724,3.1263,3.1263,3.0105,2.9189,2.8593,2.8734,2.7406,2.601,2.5197,2.3912,2.2354,2.0771,2.0011,1.9227,1.746,1.4915,1.2119,0.9412,0.8495,0.7893,0.682,0.5091,0.3307,3.9407,0.0,0.0,0.0,0.0,3.5305,3.8134,4.2813,4.1643,4.1662,4.2372,4.0276,0.0,0.0,0.0,0.0,0.0,0.0,3.8133,4.1227,4.3059,4.4667,4.6071,4.6098,4.6098,4.6044,4.5319,4.4693,4.4085,4.1307,3.4196,2.3428,0.0,0.0,0.0,0.0,3.271,3.4989,3.8097,3.9803,4.0025,4.198,4.4037,4.6191,4.742,4.8283,4.8747,4.7949,4.571,4.186,3.8303,0.0,0.0,0.0,0.0,0.0,0.0,0.0,0.0,0.0,0.0,0.0,0.0,0.0,0.0,0.0,0.0,0.0,0.0,0.0,1.5796,2.0861,2.2862,0.0,0.0,0.0,0.0,0.0,0.0,0.0,0.0,0.0,2.7852,2.9366,3.0305,0.0,0.0,3.1732,2.9123,2.9423,2.9691,2.9127,2.9559,0.0,2.7829,2.655,2.5979,2.6373,2.605,2.4989,2.2937,2.2187,2.0503,1.6425,1.683,1.7189,1.5071,1.211,0.9949,0.8875,0.7225,0.586,0.5359,0.3698,0.1793,0.0,0.0,0.0,0.0,0.0,0.0,0.0,0.0,3.6189,3.6642,0.0,3.5418,0.0,0.0,0.0,0.0,2.7736,3.0719,0.0,0.0,4.4112,4.5963,4.5886,4.581,4.5967,4.5935,4.3269,4.1216,3.9176,2.9827,0.0,0.0,0.0,0.0,0.0,0.0,2.9191,3.4595,3.7236,3.9066,3.9835,4.0025,4.0193,4.0398,4.3238,4.5491,4.7045,4.447,4.1696,3.8653,2.9889,0.0,0.0,0.0,0.0,0.0,0.0,0.0,0.0,0.0,0.0,0.0,0.0,0.0,0.0,0.0,0.0,0.0,0.0,0.0,0.0,1.9942,0.0,0.0,0.0,0.0,0.0,0.0,0.0,0.0,0.0,0.0,2.1532,2.332,2.5819,2.7221,0.0,0.0,0.0,0.0,2.9202,2.7203,2.8642,2.8068,2.2952,2.3587,2.3815,2.139,0.0,0.0,1.7523,1.8053,1.771,1.3119,1.3937,1.3792,0.9885,0.8985,0.8675,0.8672,0.6412,0.4014,0.2661,0.2243,0.161,0.0,0.0,0.0,0.0,0.0,0.0,0.0,0.0,0.0,2.8116,0.0,2.6943,0.0,0.0,0.0,0.0,0.0,0.0,0.0,0.0,3.3009,3.464,3.3632,3.6091,3.6017,0.0,3.2013,2.9293,0.0,0.0,0.0,0.0,0.0,0.0,0.0,0.0,2.2652,2.5418,2.9452,3.1929,3.2614,3.3609,3.4694,3.5744,3.7872,3.8558,3.7618,3.7236,3.4927,0.0,0.0,0.0,0.0,0.0,0.0,0.0,0.0,0.0,0.0,0.0,0.0,0.0,0.0,0.0,0.0,0.0,0.0,0.0,0.0,0.0,0.0,0.0,1.6215,0.0,0.0,0.0,0.0,0.0,0.0,0.0,0.0,0.0,1.6635,1.9382,2.1959,2.2882,2.4355,2.5357,2.5374,0.0,0.0,0.0,0.0,0.0,0.0,0.0,2.0419,2.0578,1.9352,1.7908,1.6535,1.6767,1.5895,1.2089,0.0,0.0,0.9519,0.8701,0.8694,0.8703,0.5839,0.3111,0.212,0.1291,0.0364,0.0,0.0,0.0,0.0,0.0,0.0,0.0,0.0,0.0,2.1429,2.1389,0.0,0.0,0.0,0.0,0.0,0.0,0.0,0.0,0.0,0.0,0.0,2.698,2.9505,0.0,0.0,0.0,0.0,0.0,0.0,0.0,0.0,0.0,0.0,0.0,0.0,1.8869,2.0355,2.4917,2.7612,2.8293,2.9397,3.0521,3.1494,3.3241,3.304,3.0901,0.0,0.0,0.0,0.0,0.0,0.0,0.0,0.0,0.0,0.0,0.0,0.0,0.0,0.0,0.0,0.0,0.0,0.0,0.0,0.0,0.0,0.0,0.0,0.0,0.0,1.3247,0.0,0.0,0.0,0.0,0.0,0.0,0.0,0.0,0.0,0.0,0.0,1.8415,1.9733,2.1411,2.2703,2.3071,2.2093,2.162,0.0,0.0,0.0,0.0,0.0,0.0,0.0,0.0,0.0,0.0,0.0,0.0,0.0,0.0,1.1334,0.6671,0.621,0.6371,0.5892,0.0,0.0,0.0,0.0,0.0,0.0,0.0,0.0,0.0,0.0,0.0,0.0,0.0,0.0,0.0,1.7063,0.0,0.0,1.5455,0.0,0.0,0.0,0.0,0.0,0.0,0.0,0.0,0.0,0.0,0.0,0.0,0.0,0.0,0.0,0.0,0.0,0.0,0.0,0.0,0.0,0.0,1.7806,2.0007,2.389,2.6494,2.7372,2.7596,2.7516,2.7724,2.9312,2.9368,2.7517,0.0,0.0,0.0,0.0,0.0,0.0,0.0,0.0,0.0,0.0,0.0,0.0,0.0,0.0,0.0,0.0,0.0,0.0,0.0,0.0,0.0,0.0,0.0,0.0,0.0,0.0,1.2101,1.3095,1.4087,0.0,0.0,0.0,0.0,0.0,0.0,0.0,0.0,0.0,1.7856,1.9523,2.0856,2.1904,1.9292,1.8009,1.9971,1.758,1.5458,1.5476,1.6876,1.6745,0.0,0.0,0.0,0.0,0.0,0.0,0.0,0.0,0.0,0.0,0.0,0.0,0.0,0.0,0.0,0.0,0.0,0.0,0.0,0.0,0.0,0.0,0.0,0.0,0.0,0.0,0.0,0.0,0.0,0.0,0.0,0.0,0.0,0.0,0.0,0.0,0.0,0.0,0.0,0.0,0.0,0.0,0.0,0.0,0.0,0.0,0.0,0.0,0.0,0.0,0.0,0.0,0.0,0.0,1.392,1.503,1.7483,1.9091,1.9718,2.0935,2.2031,2.3156,2.4788,2.5082,0.0,0.0,0.0,0.0,0.0,0.0,0.0,0.0,0.0,0.0,0.0,0.0,0.0,0.0,0.0,0.0,0.0,0.0,0.0,0.0,0.0,0.0,0.0,0.0,0.0,0.0,0.0,0.0,1.5073,1.4531,1.2453,0.0,0.0,0.0,0.0,0.0,0.0,0.0,0.0,0.0,0.0,1.6354,1.7101,1.7179,1.696,1.6608,1.6602,1.5884,1.39,1.342,1.3238,1.2934,0.0,0.0,0.0,0.0,0.0,0.0,0.0,0.0,0.0,0.0,0.0,0.0,0.0,0.0,0.0,0.0,0.0,0.0,0.0,0.0,0.0,0.0,0.0,0.0,0.0,0.0,0.0,0.0,0.0,0.0,0.0,0.0,0.0,0.0,0.0,0.0,0.0,0.0,0.0,0.0,0.0,0.0,0.0,0.0,0.0,0.0,0.0,0.0,0.0,0.0,0.0,0.0,0.0,1.1634,1.238,1.4448,1.5668,1.6043,1.704,1.8054,1.9015,2.0039,1.981,0.0,0.0,0.0,0.0,0.0,0.0,0.0,0.0,0.0,0.0,0.0,0.0,0.0,0.0,0.0,0.0,0.0,0.0,0.0,0.0,0.0,0.0,0.0,0.0,0.0,0.0,0.0,0.0,1.3002,1.2872,1.1056,0.0,0.0,0.0,0.0,0.0,0.0,0.0,0.0,0.0,0.0,1.3599,1.3837,1.569,0.0,0.0,1.4909,1.4857,1.3122,1.2247,1.1762,1.1318,0.9941,0.0,0.0,0.0,0.0,0.0,0.0,0.0,0.0,0.0,0.0,0.0,0.0,0.0,0.0,0.0,0.0,0.0,0.0,0.0,0.0,0.0,0.0,0.0,0.0,0.0,0.0,0.0,0.0,0.0,0.0,0.0,0.0,0.0,0.0,0.0,0.0,0.0,0.0,0.0,0.0,0.0,0.0,0.0,0.0,0.0,0.0,0.0,0.0,0.0,0.0,0.0,0.0,1.0506,1.1379,1.3871,1.5035,1.4827,1.5088,1.5151,1.5016,1.5278,1.4122,0.0,0.0,0.0,0.0,0.0,0.0,0.0,0.0,0.0,0.0,0.0,0.0,0.0,0.0,0.0,0.0,0.0,0.0,0.0,0.0,0.0,0.0,0.0,0.0,0.0,0.0,0.0,0.0,0.0,0.0,0.0,0.0,0.0,0.0,0.0,0.0,0.0,0.0,0.0,0.0,0.0,1.2118,1.1978,1.4595,1.5611,0.0,1.2558,1.2505,1.2377,1.2315,1.1432,0.8531,0.0,0.0,0.0,0.0,0.0,0.0,0.0,0.0,0.0,0.0,0.0,0.0,0.0,0.0,0.0,0.0,0.0,0.0,0.0,0.0,0.0,0.0,0.0,0.0,0.0,0.0,0.0,0.0,0.0,0.0,0.0,0.0,0.0,0.0,0.0,0.0,0.0,0.0,0.0,0.0,0.0,0.0,0.0,0.0,0.0,0.0,0.0,0.0,0.0,0.0,0.0,0.0,0.0,0.0,0.7766,1.038,1.0441,0.7968,1.028,1.104,0.9807,1.2227,0.0,0.0,0.0,0.0,0.0,0.0,0.0,0.0,0.0,0.0,0.0,0.0,0.0,0.0,0.0,0.0,0.0,0.0,0.0,0.0,0.0,0.0,0.0,0.0,0.0,0.0,0.0,0.5965,0.0,0.0,0.0,0.0,0.0,0.0,0.0,0.0,0.0,0.0,0.0,0.0,0.0,0.0,1.0203,1.0929,1.0928,1.08,0.0,0.0,0.9221,0.7677,0.7858,0.7897,0.0,0.0,0.0,0.0,0.0,0.0,0.0,0.0,0.0,0.0,0.0,0.0,0.0,0.0,0.0,0.0,0.0,0.0,0.0,0.0,0.0,0.0,0.0,0.0,0.0,0.0,0.0,0.0,0.0,0.0,0.0,0.0,0.0,0.0,0.0,0.0,0.0,0.0,0.0,0.0,0.0,0.0,0.0,0.0,0.0,0.0,0.0,0.0,0.0,0.0,0.0,0.0,0.0,0.0,0.6452,0.5993,0.7437,0.7268,0.5389,0.7135,0.7646,0.6739,0.8526,0.8142,0.0,0.0,0.0,0.0,0.0,0.0,0.0,0.0,0.0,0.0,0.0,0.0,0.0,0.0,0.0,0.0,0.0,0.0,0.0,0.0,0.0,0.0,0.0,0.0,0.0,0.0,0.0,0.0,0.0,0.0,0.0,0.0,0.0,0.0,0.0,0.0,0.0,0.0,0.0,0.0,0.0,0.0,0.9253,0.8975,0.0,0.0,0.0,0.7288,0.5354,0.0,0.0,0.0,0.0,0.0,0.0,0.0,0.0,0.0,0.0,0.0,0.0,0.0,0.0,0.0,0.0,0.0,0.0,0.0,0.0,0.0,0.0,0.0,0.0,0.0,0.0,0.0,0.0,0.0,0.0,0.0,0.0,0.0,0.0,0.0,0.0,0.0,0.0,0.0,0.0,0.0,0.0,0.0,0.0,0.0,0.0,0.0,0.0,0.0,0.0,0.0,0.0,0.0,0.0,0.0,0.0,0.0,0.497,0.5153,0.5061,0.4668,0.4812,0.4815,0.4621,0.488,0.4496,0.0,0.0,0.0,0.0,0.0,0.0,0.0,0.0,0.0,0.0,0.0,0.0,0.0,0.0,0.0,0.0,0.0,0.0,0.0,0.0,0.0,0.0,0.0,0.0,0.0,0.0,0.0,0.0,0.0,0.0,0.0,0.0,0.0,0.0,0.0,0.0,0.0,0.0,0.0,0.0,0.0,0.9031,0.7535,0.8087,0.7938,0.0,0.0,0.6034,0.4195,0.4022,0.0,0.0,0.0,0.0,0.0,0.0,0.0,0.0,0.0,0.0,0.0,0.0,0.0,0.0,0.0,0.0,0.0,0.0,0.0,0.0,0.0,0.0,0.0,0.0,0.0,0.0,0.0,0.0,0.0,0.0,0.0,0.0,0.0,0.0,0.0,0.0,0.0,0.0,0.0,0.0,0.0,0.0,0.0,0.0,0.0,0.0,0.0,0.0,0.0,0.0,0.0,0.0,0.0,0.0,0.0,0.0,0.319,0.4501,0.3844,0.1241,0.2348,0.2411,0.1112,0.2348,0.2341,0.0,0.0,0.0,0.0,0.0,0.0,0.0,0.0,0.0,0.0,0.0,0.0,0.0,0.0,0.0,0.0,0.0,0.0,0.0,0.0,0.0,0.0,0.0,0.0,0.0,0.0,0.0,0.0,0.0,0.0,0.0,0.0,0.0,0.0,0.0,0.0,0.0,0.0,0.0,0.0,0.0,0.7407,0.686,0.742,0.0,0.0,0.0,0.0,0.2231,0.2297,0.0,0.0,0.0,0.0,0.0,0.0,0.0,0.0,0.0,0.0,0.0,0.0,0.0,0.0,0.0,0.0,0.0,0.0,0.0,0.0,0.0,0.0,0.0,0.0,0.0,0.0,0.0,0.0,0.0,0.0,0.0,0.0,0.0,0.0,0.0,0.0,0.0,0.0,0.0,0.0,0.0,0.0,0.0,0.0,0.0,0.0,0.0,0.0,0.0,0.0,0.0,0.0,0.0,0.0,0.0,0.0,0.3266,0.3673,0.2629,0.0131,0.085,0.0915,0.0065,0.085,0.0903,0.0,0.0,0.0,0.0,0.0,0.0,0.0,0.0,0.0,0.0,0.0,0.0,0.0,0.0,0.0,0.0,0.0,0.0,0.0,0.0,0.0,0.0,0.0,0.0,0.0,0.0,0.0,0.0,0.0,0.0,0.0,0.0,0.0,0.0,0.0,0.0,0.0,0.0,0.0,0.0,0.6605,0.6352,0.632,0.0,0.0,0.0,0.0,0.0,0.0,0.0566,0.0107,0.0,0.0,0.0,0.0,0.0,0.0,0.0,0.0,0.0,0.0,0.0,0.0,0.0,0.0,0.0,0.0,0.0,0.0,0.0,0.0,0.0,0.0,0.0,0.0,0.0,0.0,0.0,0.0,0.0,0.0,0.0,0.0,0.0,0.0,0.0,0.0,0.0,0.0,0.0,0.0,0.0,0.0,0.0,0.0,0.0,0.0,0.0,0.0,0.0,0.0,0.0,0.0,0.0,0.0,0.0,0.3662,0.2844,0.1623,0.0,0.0,0.0,0.0,0.0,-0.006,-0.0248,0.0,0.0,0.0,0.0,0.0,0.0,0.0,0.0,0.0,0.0,0.0,0.0,0.0,0.0,0.0,0.0,0.0,0.0,0.0,0.0,0.0,0.0,0.0,0.0,0.0,0.0,0.0,0.0,0.0,0.0,0.0,0.0,0.0,0.0,0.0,0.0,0.0,0.0,0.0,0.6112,0.5463,0.0,0.0,0.0,0.0,0.0,0.0,0.0,0.0,-0.1351,0.0,0.0,0.0,0.0,0.0,0.0,0.0,0.0,0.0,0.0,0.0,0.0,0.0,0.0,0.0,0.0,0.0,0.0,0.0,0.0,0.0,0.0,0.0,0.0,0.0,0.0,0.0,0.0,0.0,0.0,0.0,0.0,0.0,0.0,0.0,0.0,0.0,0.0,0.0,0.0,0.0,0.0,0.0,0.0,0.0,0.0,0.0,0.0,0.0,0.0,0.0,0.0,0.0,0.0,0.0,0.0,0.2137,0.1227,0.0,0.0,0.0,0.0,0.0,-0.0362,-0.1139,0.0,0.0,0.0,0.0,0.0,0.0,0.0,0.0,0.0,0.0,0.0,0.0,0.0,0.0,0.0,0.0,0.0,0.0,0.0,0.0,0.0,0.0,0.0,0.0,0.0,0.0,0.0,0.0,0.0,0.0,0.0,0.0,0.0,0.0,0.0,0.0,0.0,0.0,0.6512,0.5632,0.0,0.0,0.0,0.0,0.0,0.0,0.0,0.0,-0.0746,0.0,0.0,0.0,0.0,0.0,0.0,0.0,0.0,0.0,0.0,0.0,0.0,0.0,0.0,0.0,0.0,0.0,0.0,0.0,0.0,0.0,0.0,0.0,0.0,0.0,0.0,0.0,0.0,0.0,0.0,0.0,0.0,0.0,0.0,0.0,0.0,0.0,0.0,0.0,0.0,0.0,0.0,0.0,0.0,0.0,0.0,0.0,0.0,0.0,0.0,0.0,0.0,0.0,0.0,0.0,0.0,0.0,0.0,0.194,0.0,0.0,0.0,0.0,0.0,-0.0641,0.0,0.0,0.0,0.0,0.0,0.0,0.0,0.0,0.0,0.0,0.0,0.0,0.0,0.0,0.0,0.0,0.0,0.0,0.0,0.0,0.0,0.0,0.0,0.0,0.0,0.0,0.0,0.0,0.0,0.0,0.0,0.0,0.0,0.0,0.0,0.0,0.0,0.0,0.0,0.0,0.0,0.0,0.0,0.0,0.0,0.0,0.0,0.0,0.0,0.0,0.0,0.0,0.0,0.0,0.0,0.0,0.0,0.0,0.0,0.0,0.0,0.0,0.0,0.0,0.0,0.0,0.0,0.0,0.0,0.0,0.0,0.0,0.0,0.0,0.0,0.0,0.0,0.0,0.0,0.0,0.0,0.0,0.0,0.0,0.0,0.0,0.0,0.0,0.0,0.0,0.0,0.0,0.0,0.0,0.0,0.0,0.0,0.0,0.0,0.0,0.0,0.0,0.0,0.0,0.0,0.0,0.0,0.0,0.2628,0.0,0.0,0.0,0.0,-0.0185,-0.1009,0.0,0.0,0.0,0.0,0.0,0.0,0.0,0.0,0.0,0.0,0.0,0.0,0.0,0.0,0.0,0.0,0.0,0.0,0.0,0.0,0.0,0.0,0.0,0.0,0.0,0.0,0.0,0.0,0.0,0.0,0.0,0.0,0.0,0.0,0.0,0.0,0.0,0.0,0.0,0.0,0.0,0.0,0.0,0.0,0.0,0.0,0.0,0.0,0.0,0.0,0.0,0.0,0.0,0.0,0.0,0.0,0.0,0.0,0.0,0.0,0.0,0.0,0.0,0.0,0.0,0.0,0.0,0.0,0.0,0.0,0.0,0.0,0.0,0.0,0.0,0.0,0.0,0.0,0.0,0.0,0.0,0.0,0.0,0.0,0.0,0.0,0.0,0.0,0.0,0.0,0.0,0.0,0.0,0.0,0.0,0.0,0.0,0.0,0.0,0.0,0.0,0.0,0.0,0.0,0.0,0.0,0.0,0.0,0.2627,0.0,0.0,0.0,0.0,-0.0784,-0.1643,0.0,0.0,0.0,0.0,0.0,0.0,0.0,0.0,0.0,0.0,0.0,0.0,0.0,0.0,0.0,0.0,0.0,0.0,0.0,0.0,0.0,0.0,0.0,0.0,0.0,0.0,0.0,0.0,0.0,0.0,0.0,0.0,0.0,0.0,0.0,0.0,0.0,0.0,0.0,0.0,0.0,0.0,0.0,0.0,0.0,0.0,0.0,0.0,0.0,0.0,0.0,0.0,0.0,0.0,0.0,0.0,0.0,0.0,0.0,0.0,0.0,0.0,0.0,0.0,0.0,0.0,0.0,0.0,0.0,0.0,0.0,0.0,0.0,0.0,0.0,0.0,0.0,0.0,0.0,0.0,0.0,0.0,0.0,0.0,0.0,0.0,0.0,0.0,0.0,0.0,0.0,0.0,0.0,0.0,0.0,0.0,0.0,0.0,0.0,0.0,0.0,0.0,0.0,0.0,0.0,0.0,0.0,0.0,0.2108,0.0,0.0,0.0,0.0,-0.092,-0.1713,0.0,0.0,0.0,0.0,0.0,0.0,0.0,0.0,0.0,0.0,0.0,0.0,0.0,0.0,0.0,0.0,0.0,0.0,0.0,0.0,0.0,0.0,0.0,0.0,0.0,0.0,0.0,0.0,0.0,0.0,0.0,0.0,0.0,0.0,0.0,0.0,0.0,0.0,0.0,0.0,0.0,0.0,0.0,0.0,0.0,0.0,0.0,0.0,0.0,0.0,0.0,0.0,0.0,0.0,0.0,0.0,0.0,0.0,0.0,0.0,0.0,0.0,0.0,0.0,0.0,0.0,0.0,0.0,0.0,0.0,0.0,0.0,0.0,0.0,0.0,0.0,0.0,0.0,0.0,0.0,0.0,0.0,0.0,0.0,0.0,0.0,0.0,0.0,0.0,0.0,0.0,0.0,0.0,0.0,0.0,0.0,0.0,0.0,0.0,0.0,0.0,0.0,0.0,0.0,0.0,0.0,0.0,0.0,0.0,0.0414,0.0499,0.0377,0.0,-0.1078,-0.1939,0.0,0.0,0.0,0.0,0.0,0.0,0.0,0.0,0.0,0.0,0.0,0.0,0.0,0.0,0.0,0.0,0.0,0.0,0.0,0.0,0.0,0.0,0.0,0.0,0.0,0.0,0.0,0.0,0.0,0.0,0.0,0.0,0.0,0.0,0.0,0.0,0.0,0.0,0.0,0.0,0.0,0.0,0.0,0.0,0.0,0.0,0.0,0.0,0.0,0.0,0.0,0.0,0.0,0.0,0.0,0.0,0.0,0.0,0.0,0.0,0.0,0.0,0.0,0.0,0.0,0.0,0.0,0.0,0.0,0.0,0.0,0.0,0.0,0.0,0.0,0.0,0.0,0.0,0.0,0.0,0.0,0.0,0.0,0.0,0.0,0.0,0.0,0.0,0.0,0.0,0.0,0.0,0.0,0.0,0.0,0.0,0.0,0.0,0.0,0.0,0.0,0.0,0.0,0.0,0.0,0.0,0.0,0.0,0.0,0.1263,0.1776,0.1344,0.0055,-0.1581,-0.2461,0.0,0.0,0.0,0.0,0.0,0.0,0.0,0.0,0.0,0.0,0.0,0.0,0.0,0.0,0.0,0.0,0.0,0.0,0.0,0.0,0.0,0.0,0.0,0.0,0.0,0.0,0.0,0.0,0.0,0.0,0.0,0.0,0.0,0.0,0.0,0.0,0.0,0.0,0.0,0.0,0.0,0.0,0.0,0.0,0.0,0.0,0.0,0.0,0.0,0.0,0.0,0.0,0.0,0.0,0.0,0.0,0.0,0.0,0.0,0.0,0.0,0.0,0.0,0.0,0.0,0.0,0.0,0.0,0.0,0.0,0.0,0.0,0.0,0.0,0.0,0.0,0.0,0.0,0.0,0.0,0.0,0.0,0.0,0.0,0.0,0.0,0.0,0.0,0.0,0.0,0.0,0.0,0.0,0.0,0.0,0.0,0.0,0.0,0.0,0.0,0.0,0.0,0.0,0.0,0.0,0.0,0.0,0.0,0.0,0.2169,0.1832,0.1111,0.0,-0.1155,-0.1791,-0.1821,0.0,0.0,0.0,0.0,0.0,0.0,0.0,0.0,0.0,0.0,0.0,0.0,0.0,0.0,0.0,0.0,0.0,0.0,0.0,0.0,0.0,0.0,0.0,0.0,0.0,0.0,0.0,0.0,0.0,0.0,0.0,0.0,0.0,0.0,0.0,0.0,0.0,0.0,0.0,0.0,0.0,0.0,0.0,0.0,0.0,0.0,0.0,0.0,0.0,0.0,0.0,0.0,0.0,0.0,0.0,0.0,0.0,0.0,0.0,0.0,0.0,0.0,0.0,0.0,0.0,0.0,0.0,0.0,0.0,0.0,0.0,0.0,0.0,0.0,0.0,0.0,0.0,0.0,0.0,0.0,0.0,0.0,0.0,0.0,0.0,0.0,0.0,0.0,0.0,0.0,0.0,0.0,0.0,0.0,0.0,0.0,0.0,0.0,0.0,0.0,0.0,0.0,0.0,0.0,0.0,0.0,0.0,0.0,0.2542,0.1904,0.108,0.0,-0.0896,-0.1377,0.0,0.0,0.0,0.0,0.0,0.0,0.0,0.0,0.0,0.0,0.0,0.0,0.0,0.0,0.0,0.0,0.0,0.0,0.0,0.0,0.0,0.0,0.0,0.0,0.0,0.0,0.0,0.0,0.0,0.0,0.0,0.0,0.0,0.0,0.0,0.0,0.0,0.0,0.0,0.0,0.0,0.0,0.0,0.0,0.0,0.0,0.0,0.0,0.0,0.0,0.0,0.0,0.0,0.0,0.0,0.0,0.0,0.0,0.0,0.0,0.0,0.0,0.0,0.0,0.0,0.0,0.0,0.0,0.0,0.0,0.0,0.0,0.0,0.0,0.0,0.0,0.0,0.0,0.0,0.0,0.0,0.0,0.0,0.0,0.0,0.0,0.0,0.0,0.0,0.0,0.0,0.0,0.0,0.0,0.0,0.0,0.0,0.0,0.0,0.0,0.0,0.0,0.0,0.0,0.0,0.0,0.0,0.0,0.4382,0.2587,0.2247,0.1416,0.0044,-0.0858,-0.134,0.0,0.0,0.0,0.0,0.0,0.0,0.0,0.0,0.0,0.0,0.0,0.0,0.0,0.0,0.0,0.0,0.0,0.0,0.0,0.0,0.0,0.0,0.0,0.0,0.0,0.0,0.0,0.0,0.0,0.0,0.0,0.0,0.0,0.0,0.0,0.0,0.0,0.0,0.0,0.0,0.0,0.0,0.0,0.0,0.0,0.0,0.0,0.0,0.0,0.0,0.0,0.0,0.0,0.0,0.0,0.0,0.0,0.0,0.0,0.0,0.0,0.0,0.0,0.0,0.0,0.0,0.0,0.0,0.0,0.0,0.0,0.0,0.0,0.0,0.0,0.0,0.0,0.0,0.0,0.0,0.0,0.0,0.0,0.0,0.0,0.0,0.0,0.0,0.0,0.0,0.0,0.0,0.0,0.0,0.0,0.0,0.0,0.0,0.0,0.0,0.0,0.0,0.0,0.0,0.0,0.0,0.0,0.0,0.0,0.2559,0.0,0.1086,0.0,-0.0302,-0.0439,0.0,0.0,0.0,0.0,0.0,0.0,0.0,0.0,0.0,0.0,0.0,0.0,0.0,0.0,0.0,0.0,0.0,0.0,0.0,0.0,0.0,0.0,0.0,0.0,0.0,0.0,0.0,0.0,0.0,0.0,0.0,0.0,0.0,0.0,0.0,0.0,0.0,0.0,0.0,0.0,0.0,0.0,0.0,0.0,0.0,0.0,0.0,0.0,0.0,0.0,0.0,0.0,0.0,0.0,0.0,0.0,0.0,0.0,0.0,0.0,0.0,0.0,0.0,0.0,0.0,0.0,0.0,0.0,0.0,0.0,0.0,0.0,0.0,0.0,0.0,0.0,0.0,0.0,0.0,0.0,0.0,0.0,0.0,0.0,0.0,0.0,0.0,0.0,0.0,0.0,0.0,0.0,0.0,0.0,0.0,0.0,0.0,0.0,0.0,0.0,0.0,0.0,0.0,0.0,0.0,0.0,0.0,0.0,0.0,0.2158,0.1621,0.0934,0.0,0.0,0.0,0.0,0.0,0.0,0.0,0.0,0.0,0.0,0.0,0.0,0.0,0.0,0.0,0.0,0.0,0.0,0.0,0.0,0.0,0.0,0.0,0.0,0.0,0.0,0.0,0.0,0.0,0.0,0.0,0.0,0.0,0.0,0.0,0.0,0.0,0.0,0.0,0.0,0.0,0.0,0.0,0.0,0.0,0.0,0.0,0.0,0.0,0.0,0.0,0.0,0.0,0.0,0.0,0.0,0.0,0.0,0.0,0.0,0.0,0.0,0.0,0.0,0.0,0.0,0.0,0.0,0.0,0.0,0.0,0.0,0.0,0.0,0.0,0.0,0.0,0.0,0.0,0.0,0.0,0.0,0.0,0.0,0.0,0.0,0.0,0.0,0.0,0.0,0.0,0.0,0.0,0.0,0.0,0.0,0.0,0.0,0.0,0.0,0.0,0.0,0.0,0.0,0.0,0.0,0.0,0.0,0.0,0.0,0.0,0.0,0.0,0.1365,0.0898,0.0041,0.0,0.0,0.0,0.0,0.0,0.0,0.0,0.0,0.0,0.0,0.0,0.0,0.0,0.0,0.0,0.0,0.0,0.0,0.0,0.0,0.0,0.0,0.0,0.0,0.0,0.0,0.0,0.0,0.0,0.0,0.0,0.0,0.0,0.0,0.0,0.0,0.0,0.0,0.0,0.0,0.0,0.0,0.0,0.0,0.0,0.0,0.0,0.0,0.0,0.0,0.0,0.0,0.0,0.0,0.0,0.0,0.0,0.0,0.0,0.0,0.0,0.0,0.0,0.0,0.0,0.0,0.0,0.0,0.0,0.0,0.0,0.0,0.0,0.0,0.0,0.0,0.0,0.0,0.0,0.0,0.0,0.0,0.0,0.0,0.0,0.0,0.0,0.0,0.0,0.0,0.0,0.0,0.0,0.0,0.0,0.0,0.0,0.0,0.0,0.0,0.0,0.0,0.0,0.0,0.0,0.0,0.0,0.0,0.0,0.0,0.0,0.0,0.1447,0.0,0.0112,0.0615,0.0981,0.0982,0.0,0.0,0.0,0.0,0.0,0.0,0.0,0.0,0.0,0.0,0.0,0.0,0.0,0.0,0.0,0.0,0.0,0.0,0.0,0.0,0.0,0.0,0.0,0.0,0.0,0.0,0.0,0.0,0.0,0.0,0.0,0.0,0.0,0.0,0.0,0.0,0.0,0.0,0.0,0.0,0.0,0.0,0.0,0.0,0.0,0.0,0.0,0.0,0.0,0.0,0.0,0.0,0.0,0.0,0.0,0.0,0.0,0.0,0.0,0.0,0.0,0.0,0.0,0.0,0.0,0.0,0.0,0.0,0.0,0.0,0.0,0.0,0.0,0.0,0.0,0.0,0.0,0.0,0.0,0.0,0.0,0.0,0.0,0.0,0.0,0.0,0.0,0.0,0.0,0.0,0.0,0.0,0.0,0.0,0.0,0.0,0.0,0.0,0.0,0.0,0.0,0.0,0.0,0.0,0.0,0.0,0.0,0.0,0.0,0.0,0.1034,0.0,0.0511,0.0967,0.0,0.0,0.0,0.0,0.0,0.0,0.0,0.0,0.0,0.0,0.0,0.0,0.0,0.0,0.0,0.0,0.0,0.0,0.0,0.0,0.0,0.0,0.0,0.0,0.0,0.0,0.0,0.0,0.0,0.0,0.0,0.0,0.0,0.0,0.0,0.0,0.0,0.0,0.0,0.0,0.0,0.0,0.0,0.0,0.0,0.0,0.0,0.0,0.0,0.0,0.0,0.0,0.0,0.0,0.0,0.0,0.0,0.0,0.0,0.0,0.0,0.0,0.0,0.0,0.0,0.0,0.0,0.0,0.0,0.0,0.0,0.0,0.0,0.0,0.0,0.0,0.0,0.0,0.0,0.0,0.0,0.0,0.0,0.0,0.0,0.0,0.0,0.0,0.0,0.0,0.0,0.0,0.0,0.0,0.0,0.0,0.0,0.0,0.0,0.0,0.0,0.0,0.0,0.0,0.0,0.0,0.0,0.0,0.0,0.0,0.0,0.1297,0.0038,0.0076,0.0,0.1526,0.0,0.0,0.0,0.0,0.0,0.0,0.0,0.0,0.0,0.0,0.0,0.0,0.0,0.0,0.0,0.0,0.0,0.0,0.0,0.0,0.0,0.0,0.0,0.0,0.0,0.0,0.0,0.0,0.0,0.0,0.0,0.0,0.0,0.0,0.0,0.0,0.0,0.0,0.0,0.0,0.0,0.0,0.0,0.0,0.0,0.0,0.0,0.0,0.0,0.0,0.0,0.0,0.0,0.0,0.0,0.0,0.0,0.0,0.0,0.0,0.0,0.0,0.0,0.0,0.0,0.0,0.0,0.0,0.0,0.0,0.0,0.0,0.0,0.0,0.0,0.0,0.0,0.0,0.0,0.0,0.0,0.0,0.0,0.0,0.0,0.0,0.0,0.0,0.0,0.0,0.0,0.0,0.0,0.0,0.0,0.0,0.0,0.0,0.0,0.0,0.0,0.0,0.0,0.0,0.0,0.0,0.0,0.0,0.0,0.0,0.0,0.0,0.0672,0.1423,0.2301,0.0,0.0,0.0,0.0,0.0,0.0,0.0,0.0,0.0,0.0,0.0,0.0,0.0,0.0,0.0,0.0,0.0,0.0,0.0,0.0,0.0,0.0,0.0,0.0,0.0,0.0,0.0,0.0,0.0,0.0,0.0,0.0,0.0,0.0,0.0,0.0,0.0,0.0,0.0,0.0,0.0,0.0,0.0,0.0,0.0,0.0,0.0,0.0,0.0,0.0,0.0,0.0,0.0,0.0,0.0,0.0,0.0,0.0,0.0,0.0,0.0,0.0,0.0,0.0,0.0,0.0,0.0,0.0,0.0,0.0,0.0,0.0,0.0,0.0,0.0,0.0,0.0,0.0,0.0,0.0,0.0,0.0,0.0,0.0,0.0,0.0,0.0,0.0,0.0,0.0,0.0,0.0,0.0,0.0,0.0,0.0,0.0,0.0,0.0,0.0,0.0,0.0,0.0,0.0,0.0,0.0,0.0,0.0,0.0,0.0,0.3075,0.1504,0.176,0.2267,0.3172,0.0,0.0,0.0,0.0,0.0,0.0,0.0,0.0,0.0,0.0,0.0,0.0,0.0,0.0,0.0,0.0,0.0,0.0,0.0,0.0,0.0,0.0,0.0,0.0,0.0,0.0,0.0,0.0,0.0,0.0,0.0,0.0,0.0,0.0,0.0,0.0,0.0,0.0,0.0,0.0,0.0,0.0,0.0,0.0,0.0,0.0,0.0,0.0,0.0,0.0,0.0,0.0,0.0,0.0,0.0,0.0,0.0,0.0,0.0,0.0,0.0,0.0,0.0,0.0,0.0,0.0,0.0,0.0,0.0,0.0,0.0,0.0,0.0,0.0,0.0,0.0,0.0,0.0,0.0,0.0,0.0,0.0,0.0,0.0,0.0,0.0,0.0,0.0,0.0,0.0,0.0,0.0,0.0,0.0,0.0,0.0,0.0,0.0,0.0,0.0,0.0,0.0,0.0,0.0,0.0,0.0,0.0,0.0,0.0,0.0,0.0,0.0,0.0,0.0,0.4082,0.0,0.0,0.0,0.0,0.0,0.0,0.0,0.0,0.0,0.0,0.0,0.0,0.0,0.0,0.0,0.0,0.0,0.0,0.0,0.0,0.0,0.0,0.0,0.0,0.0,0.0,0.0,0.0,0.0,0.0,0.0,0.0,0.0,0.0,0.0,0.0,0.0,0.0,0.0,0.0,0.0,0.0,0.0,0.0,0.0,0.0,0.0,0.0,0.0,0.0,0.0,0.0,0.0,0.0,0.0,0.0,0.0,0.0,0.0,0.0,0.0,0.0,0.0,0.0,0.0,0.0,0.0,0.0,0.0,0.0,0.0,0.0,0.0,0.0,0.0,0.0,0.0,0.0,0.0,0.0,0.0,0.0,0.0,0.0,0.0,0.0,0.0,0.0,0.0,0.0,0.0,0.0,0.0,0.0,0.0,0.0,0.0,0.0,0.0,0.0,0.0,0.0,0.0,0.0,0.0,0.0,0.0,0.0,0.0,0.0,0.0,0.0,0.0,0.0,0.0,0.0,0.0,0.0,0.0,0.0,0.0,0.0,0.0,0.0,0.0,0.0,0.0,0.0,0.0,0.0,0.0,0.0,0.0,0.0,0.0,0.0,0.0,0.0,0.0,0.0,0.0,0.0,0.0,0.0,0.0,0.0,0.0,0.0,0.0,0.0,0.0,0.0,0.0,0.0,0.0,0.0,0.0,0.0,0.0,0.0,0.0,0.0,0.0,0.0,0.0,0.0,0.0,0.0,0.0,0.0,0.0,0.0,0.0,0.0,0.0,0.0,0.0,0.0,0.0,0.0,0.0,0.0,0.0,0.0,0.0,0.0,0.0,0.0,0.0,0.0,0.0,0.0,0.0,0.0,0.0,0.0,0.0,0.0,0.0,0.0,0.0,0.0,0.0,0.0,0.0,0.0,0.0,0.0,0.0,0.0,0.0,0.0,0.0,0.0,0.0,0.0,0.0,0.0,0.0,0.0,0.0,0.0,0.0,0.0,0.0,0.0,0.0,0.0,0.0,0.0,0.0,0.0,0.0,0.0,0.0,0.0,0.0,0.0,0.0,0.0,0.0,0.0,0.0,0.0,0.0,0.0,0.0,0.0,0.0,0.0,0.0,0.0,0.0,0.0,0.0,0.0,0.0,0.0,0.0,0.0,0.0,0.0,0.0,0.0,0.0,0.0,0.0,0.0,0.0,0.0,0.0,0.0,0.0,0.0,0.0,0.0,0.0,0.0,0.0,0.0,0.0,0.0,0.0,0.0,0.0,0.0,0.0,0.0,0.0,0.0,0.0,0.0,0.0,0.0,0.0,0.0,0.0,0.0,0.0,0.0,0.0,0.0,0.0,0.0,0.0,0.0,0.0,0.0,0.0,0.0,0.0,0.0,0.0,0.0,0.0,0.0,0.0,0.0,0.0,0.0,0.0,0.0,0.0,0.0,0.0,0.0,0.0,0.0,0.0,0.0,0.0,0.0,0.0,0.0,0.0,0.0,0.0,0.0,0.0,0.0,0.0,0.0,0.0,0.0,0.0,0.0,0.0,0.0,0.0,0.0,0.0,0.0,0.0,0.0,0.0,0.0,0.0,0.0,0.0,0.0,0.0,0.0,0.0,0.0,0.0,0.0,0.0,0.0,0.0,0.0,0.0,0.0,0.0,0.0,0.0,0.0,0.0,0.0,0.0,0.0,0.0,0.0,0.0,0.0,0.0,0.0,0.0,0.0,0.0,0.0,0.0,0.0,0.0,0.0,0.0,0.0,0.0,0.0,0.0,0.0,0.0,0.0,0.0,0.0,0.0,0.0,0.0,0.0,0.0,0.0,0.0,0.0,0.0,0.0,0.0,0.0,0.0,0.0,0.0,0.0,0.0,0.0,0.0,0.0,0.0,0.0,0.0,0.0,0.0,0.0,0.0,0.0,0.0,0.0,0.0,0.0,0.0,0.0,0.0,0.0,0.0,0.0,0.0,0.0,0.0,0.0,0.0,0.0,0.0,0.0,0.0,0.0,0.0,0.0,0.0,0.0,0.0,0.0,0.0,0.0,0.0,0.0,0.0,0.0,0.0,0.0,0.0,0.0,0.0,0.0,0.0,0.0,0.0,0.0,0.0,0.0,0.0,0.0,0.0,0.0,0.0,0.0,0.0,0.0,0.0,0.0,0.0,0.0,0.0,0.0,0.0,0.0,0.0,0.0,0.0,0.0,0.0,0.0,0.0,0.0,0.0,0.0,0.0,0.0,0.0,0.0,0.0,0.0,0.0,0.0,0.0,0.0,0.0,0.0,0.0,0.0,0.0,0.0,0.0,0.0,0.0,0.0,0.0,0.0,0.0,0.0,0.0,0.0,0.0,0.0,0.0,0.0,0.0,0.0,0.0,0.0,0.0,0.0,0.0,0.0,0.0,0.0,0.0,0.0,0.0,0.0,0.0,0.0,0.0,0.0,0.0,0.0,0.0,0.0,0.0,0.0,0.0,0.0,0.0,0.0,0.0,0.0,0.0,0.0,0.0,0.0,0.0,0.0,0.0,0.0,0.0,0.0,0.0,0.0,0.0,0.0,0.0,0.0,0.0,0.0,0.0,0.0,0.0,0.0,0.0,0.0,0.0,0.0,0.0,0.0,0.0,0.0,0.0,0.0,0.0,0.0,0.0,0.0,0.0,0.0,0.0,0.0,0.0,0.0,0.0,0.0,0.0,0.0,0.0,0.0,0.0,0.0,0.0,0.0,0.0,0.0,0.0,0.0,0.0,0.0,0.0,0.0,0.0,0.0,0.0,0.0,0.0,0.0,0.0,0.0,0.0,0.0,0.0,0.0,0.0,0.0,0.0,0.0,0.0,0.0,0.0,0.0,0.0,0.0,0.0,0.0,0.0,0.0,0.0,0.0,0.0,0.0,0.0,0.0,0.0,0.0,0.0,0.0,0.0,0.0,0.0,0.0,0.0,0.0,0.0,0.0,0.0,0.0,0.0,0.0,0.0,0.0,0.0,0.0,0.0,0.0,0.0,0.0,0.0,0.0,0.0,0.0,0.0,0.0,0.0,0.0,0.0,0.0,0.0,0.0,0.0,0.0,0.0,0.0,0.0,0.0,0.0,0.0,0.0,0.0,0.0,0.0,0.0,0.0,0.0,0.0,0.0,0.0,0.0,0.0,0.0,0.0,0.0,0.0,0.0,0.0,0.0,0.0,0.0,0.0,0.0,0.0,0.0,0.0,0.0,0.0,0.0,0.0,0.0,0.0,0.0,0.0,0.0,0.0,0.0,0.0,0.0,0.0,0.0,0.0,0.0,0.0,0.0,0.0,0.0,0.0,0.0,0.0,0.0,0.0,0.0,0.0,0.0,0.0,0.0,0.0,0.0,0.0,0.0,0.0,0.0,0.0,0.0,0.0,0.0,0.0,0.0,0.0,0.0,0.0,0.0,0.0,0.0,0.0,0.0,0.0,0.0,0.0,0.0,0.0,0.0,0.0,0.0,0.0,0.0,0.0,0.0,0.0,0.0,0.0,0.0,0.0,0.0,0.0,0.0,0.0,0.0,0.0,0.0,0.0,0.0,0.0,0.0,0.0,0.0,0.0,0.0,0.0,0.0,0.0,0.0,0.0,0.0,0.0,0.0,0.0,0.0,0.0,0.0,0.0,0.0,0.0,0.0,0.0,0.0,0.0,0.0,0.0,0.0,0.0,0.0,0.0,0.0,0.0,0.0,0.0,0.0,0.0,0.0,0.0,0.0,0.0,0.0,0.0,0.0,0.0,0.0,0.0,0.0,0.0,0.0,0.0,0.0,0.0,0.0,0.0,0.0,0.0,0.0,0.0,0.0,0.0,0.0,0.0,0.0,0.0,0.0,0.0,0.0,0.0,0.0,0.0,0.0,0.0,0.0,0.0,0.0,0.0,0.0,0.0,0.0,0.0,0.0,0.0,0.0,0.0,0.0,0.0,0.0,0.0,0.0,0.0,0.0,0.0,0.0,0.0,0.0,0.0,0.0,0.0,0.0,0.0,0.0,0.0,0.0,0.0,0.0,0.0,0.0,0.0,0.0,0.0,0.0,0.0,0.0,0.0,0.0,0.0,0.0,0.0,0.0,0.0,0.0,0.0,0.0,0.0,0.0,0.0,0.0,0.0,0.0,0.0,0.0,0.0,0.0,0.0,0.0,0.0,0.0,0.0,0.0,0.0,0.0,0.0,0.0,0.0,0.0,0.0,0.0,0.0,0.0,0.0,0.0,0.0,0.0,0.0,0.0,0.0,0.0,0.0,0.0,0.0,0.0,0.0,0.0,0.0,0.0,0.0,0.0,0.0,0.0,0.0,0.0,0.0,0.0,0.0,0.0,0.0,0.0,0.0,0.0,0.0,0.0,0.0,0.0,0.0,0.0,0.0]}]]]